GFSGL_850_dewp_000.txt.gz
Dewpoint
-2 -2 -2 -1 -1 -1 -1 -2 -2 -2 -3 -5 -9 -18 -26 -26 -19 -18 -20 -21 -20 -20 -19 -16 -14 -13 -14 -16 -14 -10 -9 -9 -8 -9 -9 -10 -9 -10 -10 -8 -8 -9 -8
-2 -2 -2 -1 -1 -1 -2 -2 -2 -2 -4 -9 -17 -25 -23 -17 -18 -20 -19 -19 -19 -19 -15 -12 -12 -12 -14 -14 -11 -9 -8 -8 -8 -7 -9 -9 -10 -9 -7 -8 -11 -12 -11
-2 -2 -2 -2 -2 -2 -2 -1 -2 -4 -8 -17 -24 -21 -16 -17 -19 -18 -18 -19 -19 -16 -12 -11 -12 -12 -13 -12 -10 -9 -7 -7 -8 -8 -9 -9 -10 -7 -8 -12 -12 -12 -14
-2 -3 -3 -2 -3 -3 -1 -2 -3 -8 -15 -22 -19 -15 -16 -18 -17 -18 -19 -20 -17 -13 -12 -12 -12 -12 -12 -9 -9 -8 -9 -11 -10 -9 -7 -9 -7 -9 -10 -11 -12 -12 -12
-3 -3 -4 -3 -3 -2 -2 -4 -7 -15 -21 -19 -15 -15 -16 -16 -16 -18 -18 -14 -13 -13 -13 -12 -11 -11 -10 -9 -9 -9 -8 -8 -7 -7 -9 -8 -8 -11 -11 -11 -10 -11 -10
-2 -4 -4 -4 -2 -2 -4 -6 -13 -19 -20 -15 -14 -14 -15 -15 -17 -19 -15 -13 -13 -12 -12 -11 -11 -11 -10 -9 -9 -9 -8 -8 -8 -8 -8 -10 -10 -10 -11 -10 -9 -9 -11
-3 -4 -4 -3 -3 -5 -7 -12 -19 -20 -16 -14 -13 -14 -14 -16 -19 -19 -14 -12 -11 -11 -11 -11 -10 -10 -10 -11 -11 -8 -8 -8 -8 -9 -11 -11 -10 -10 -9 -10 -10 -10 -10
-4 -4 -3 -3 -5 -7 -11 -18 -21 -19 -14 -13 -13 -14 -16 -18 -19 -20 -16 -12 -12 -12 -11 -11 -10 -11 -13 -10 -9 -8 -8 -11 -14 -12 -10 -10 -10 -10 -11 -10 -11 -10 -11
-4 -3 -3 -4 -6 -9 -17 -21 -21 -15 -14 -13 -13 -15 -18 -20 -19 -18 -10 -11 -11 -12 -12 -12 -11 -14 -10 -9 -8 -9 -10 -12 -14 -10 -10 -11 -12 -11 -11 -11 -11 -11 -11
-2 -3 -4 -6 -8 -16 -20 -23 -17 -15 -14 -13 -15 -18 -20 -20 -19 -16 -9 -9 -10 -11 -11 -10 -12 -10 -9 -9 -9 -10 -12 -12 -10 -11 -13 -15 -14 -13 -11 -11 -12 -12 -11
-2 -4 -5 -7 -16 -19 -24 -20 -16 -14 -13 -14 -18 -21 -23 -19 -16 -13 -9 -9 -9 -9 -9 -10 -11 -9 -9 -10 -11 -12 -11 -10 -11 -13 -14 -13 -12 -12 -12 -11 -11 -11 -12
-3 -5 -8 -15 -18 -23 -23 -18 -15 -13 -14 -18 -21 -23 -20 -17 -14 -13 -9 -9 -9 -9 -9 -11 -10 -9 -11 -11 -12 -11 -11 -11 -13 -13 -12 -12 -12 -12 -11 -11 -11 -11 -11
-5 -7 -13 -17 -22 -24 -19 -15 -13 -14 -18 -21 -21 -17 -16 -15 -14 -12 -9 -9 -10 -10 -10 -9 -10 -11 -12 -14 -13 -11 -11 -13 -13 -12 -12 -12 -11 -11 -11 -11 -12 -11 -11
-7 -12 -16 -22 -25 -19 -15 -13 -14 -18 -21 -21 -17 -14 -13 -13 -12 -10 -9 -11 -10 -9 -10 -10 -12 -14 -14 -13 -14 -13 -13 -12 -12 -12 -12 -12 -11 -11 -11 -11 -11 -11 -11
-12 -16 -21 -23 -20 -15 -13 -15 -17 -21 -21 -14 -13 -12 -11 -11 -10 -10 -10 -9 -10 -10 -10 -12 -15 -14 -15 -14 -13 -13 -13 -12 -12 -12 -12 -11 -11 -11 -11 -11 -11 -11 -10
-16 -20 -21 -18 -15 -13 -15 -17 -21 -22 -22 -21 -19 -13 -12 -11 -11 -10 -10 -10 -10 -11 -12 -14 -13 -13 -13 -13 -13 -13 -13 -13 -12 -12 -11 -11 -11 -10 -10 -10 -10 -10 -10
-20 -20 -17 -14 -13 -15 -17 -20 -21 -24 -22 -22 -20 -18 -12 -11 -11 -10 -11 -11 -13 -12 -14 -13 -13 -13 -13 -13 -13 -12 -13 -12 -12 -12 -11 -10 -10 -10 -10 -10 -10 -10 -10
-19 -16 -14 -13 -15 -18 -20 -21 -21 -20 -20 -21 -19 -17 -16 -12 -11 -11 -11 -13 -15 -14 -13 -13 -13 -13 -13 -12 -12 -12 -12 -12 -11 -11 -10 -9 -10 -10 -10 -10 -10 -10 -10
-16 -14 -13 -15 -18 -20 -21 -22 -21 -20 -20 -19 -18 -18 -16 -13 -11 -13 -13 -14 -13 -13 -14 -14 -14 -13 -12 -12 -12 -12 -12 -11 -11 -10 -9 -9 -9 -9 -9 -9 -10 -10 -10
-14 -12 -15 -18 -22 -22 -22 -22 -21 -20 -19 -18 -18 -16 -14 -12 -13 -15 -15 -14 -13 -14 -14 -14 -14 -12 -11 -11 -11 -11 -11 -10 -10 -9 -9 -8 -8 -9 -9 -9 -9 -9 -9
-12 -15 -18 -23 -22 -22 -22 -22 -20 -19 -18 -17 -17 -16 -12 -12 -14 -14 -14 -14 -14 -14 -14 -14 -12 -11 -11 -11 -11 -10 -10 -10 -9 -8 -8 -8 -8 -8 -9 -9 -9 -9 -9
-15 -19 -24 -24 -23 -23 -22 -21 -19 -18 -18 -17 -16 -16 -13 -14 -15 -14 -14 -14 -14 -14 -14 -12 -11 -11 -11 -10 -10 -10 -9 -9 -8 -7 -7 -7 -8 -8 -8 -8 -8 -8 -8
-19 -24 -24 -24 -23 -22 -21 -20 -19 -18 -17 -16 -15 -15 -15 -15 -15 -14 -14 -14 -14 -15 -14 -11 -11 -11 -10 -9 -9 -9 -8 -8 -7 -7 -7 -8 -8 -8 -8 -8 -8 -8 -8
-24 -24 -24 -23 -23 -21 -21 -19 -18 -17 -16 -15 -15 -15 -15 -15 -15 -14 -14 -14 -14 -15 -12 -11 -10 -10 -9 -9 -8 -8 -7 -7 -7 -7 -7 -7 -7 -8 -8 -7 -7 -7 -8
-24 -24 -24 -23 -23 -21 -20 -19 -17 -16 -16 -15 -15 -15 -15 -15 -14 -14 -14 -14 -15 -15 -11 -11 -10 -10 -9 -8 -8 -7 -7 -7 -7 -7 -7 -7 -7 -7 -7 -7 -7 -7 -7
-24 -24 -24 -24 -23 -20 -19 -17 -16 -16 -15 -15 -14 -15 -15 -14 -14 -14 -14 -15 -16 -13 -11 -10 -10 -9 -8 -8 -7 -7 -7 -7 -7 -7 -7 -7 -8 -8 -7 -7 -8 -7 -7

GFSGL_850_dewp_003.txt.gz
Dewpoint
3 -0 -1 -2 -2 -2 -1 -2 -2 -3 -2 -3 -6 -12 -19 -23 -19 -18 -19 -19 -18 -19 -20 -18 -17 -15 -15 -15 -14 -15 -11 -9 -8 -10 -9 -10 -11 -11 -9 -9 -8 -7 -9
-0 -1 -2 -2 -2 -2 -2 -2 -3 -2 -3 -5 -10 -17 -21 -17 -17 -18 -17 -17 -18 -19 -18 -17 -16 -14 -13 -12 -13 -13 -11 -9 -7 -8 -10 -11 -11 -9 -12 -12 -7 -12 -12
-2 -2 -3 -2 -2 -2 -3 -3 -3 -3 -5 -10 -16 -19 -16 -16 -16 -16 -16 -17 -17 -17 -16 -15 -15 -13 -12 -11 -10 -10 -9 -8 -8 -9 -9 -10 -8 -10 -9 -8 -13 -13 -13
-3 -3 -3 -3 -3 -3 -3 -2 -3 -5 -8 -14 -18 -16 -15 -15 -15 -15 -16 -16 -17 -17 -16 -14 -13 -11 -11 -9 -9 -9 -8 -9 -9 -9 -8 -8 -9 -9 -10 -11 -13 -11 -11
-2 -3 -4 -3 -3 -4 -3 -3 -4 -7 -13 -18 -16 -14 -14 -14 -14 -16 -16 -16 -17 -17 -15 -14 -13 -12 -10 -9 -9 -9 -10 -9 -8 -8 -8 -8 -10 -11 -12 -12 -10 -10 -10
-3 -4 -4 -4 -4 -3 -3 -5 -6 -11 -18 -16 -14 -14 -14 -14 -15 -17 -17 -17 -17 -17 -17 -17 -15 -14 -14 -11 -10 -10 -9 -8 -8 -8 -9 -10 -14 -11 -10 -9 -10 -10 -11
-3 -4 -5 -4 -3 -3 -5 -6 -11 -18 -18 -16 -15 -14 -13 -14 -18 -20 -16 -12 -16 -17 -15 -15 -14 -13 -13 -13 -12 -9 -8 -8 -9 -10 -11 -11 -10 -10 -10 -10 -10 -10 -10
-3 -5 -5 -4 -3 -4 -6 -11 -17 -19 -18 -17 -16 -14 -14 -17 -20 -21 -13 -14 -14 -13 -13 -13 -12 -11 -12 -9 -8 -9 -11 -12 -13 -13 -10 -10 -10 -10 -10 -10 -11 -11 -11
-5 -5 -3 -3 -3 -6 -11 -16 -19 -21 -20 -18 -14 -14 -18 -21 -22 -22 -14 -13 -11 -11 -12 -11 -10 -9 -10 -8 -9 -10 -11 -13 -14 -11 -10 -10 -11 -11 -11 -11 -11 -11 -11
-5 -3 -2 -4 -7 -9 -14 -19 -22 -22 -19 -14 -14 -17 -21 -22 -22 -21 -11 -10 -9 -11 -9 -10 -11 -9 -9 -9 -10 -10 -11 -13 -10 -10 -13 -14 -14 -13 -11 -11 -11 -12 -11
-2 -3 -4 -6 -8 -14 -17 -23 -25 -20 -15 -14 -17 -21 -24 -22 -22 -20 -11 -9 -10 -8 -10 -10 -10 -10 -10 -10 -11 -11 -11 -10 -11 -13 -13 -13 -12 -12 -12 -11 -11 -11 -12
-3 -4 -6 -9 -13 -16 -23 -28 -19 -14 -14 -18 -22 -24 -24 -23 -21 -16 -9 -9 -9 -10 -9 -10 -10 -10 -10 -11 -12 -11 -10 -11 -13 -13 -12 -12 -12 -12 -12 -11 -11 -11 -11
-4 -6 -8 -12 -16 -23 -26 -19 -14 -14 -19 -22 -23 -22 -22 -21 -18 -14 -11 -10 -10 -9 -10 -10 -11 -11 -13 -15 -13 -11 -12 -13 -12 -12 -12 -12 -11 -11 -11 -11 -11 -11 -11
-6 -7 -11 -16 -22 -23 -17 -14 -15 -19 -22 -23 -22 -20 -19 -18 -15 -11 -10 -11 -10 -10 -10 -10 -12 -15 -16 -14 -14 -13 -13 -12 -12 -12 -12 -12 -11 -11 -11 -10 -10 -11 -11
-7 -11 -16 -21 -20 -15 -13 -16 -19 -21 -22 -20 -18 -16 -15 -13 -11 -10 -10 -9 -10 -10 -11 -12 -15 -15 -15 -14 -13 -13 -13 -12 -12 -12 -12 -11 -11 -11 -10 -10 -10 -10 -11
-12 -17 -20 -18 -14 -13 -16 -19 -22 -24 -25 -23 -22 -19 -17 -12 -11 -10 -10 -10 -11 -11 -12 -15 -15 -15 -14 -13 -12 -12 -12 -12 -12 -11 -11 -10 -10 -10 -10 -10 -10 -10 -10
-18 -19 -16 -13 -13 -16 -20 -22 -25 -28 -26 -25 -22 -20 -19 -12 -11 -10 -11 -11 -13 -12 -14 -14 -14 -15 -13 -12 -12 -12 -12 -12 -11 -11 -10 -10 -10 -10 -10 -10 -10 -10 -10
-18 -16 -13 -13 -16 -20 -23 -24 -25 -24 -23 -23 -21 -20 -19 -16 -11 -11 -12 -13 -15 -15 -14 -14 -15 -14 -12 -12 -12 -11 -11 -11 -10 -10 -10 -9 -9 -9 -9 -9 -9 -10 -10
-16 -13 -12 -15 -20 -23 -24 -25 -24 -23 -22 -20 -19 -19 -18 -15 -12 -14 -15 -15 -14 -14 -14 -15 -14 -12 -12 -11 -11 -11 -11 -10 -10 -9 -9 -9 -9 -9 -9 -9 -9 -9 -9
-14 -12 -15 -19 -24 -25 -25 -24 -23 -22 -21 -19 -19 -17 -15 -13 -13 -15 -15 -14 -14 -14 -14 -15 -13 -12 -11 -11 -11 -11 -10 -10 -9 -8 -8 -8 -8 -8 -8 -9 -9 -9 -9
-12 -14 -18 -24 -25 -25 -24 -23 -22 -20 -19 -19 -18 -17 -13 -12 -15 -15 -15 -14 -14 -14 -15 -14 -12 -11 -11 -11 -10 -10 -9 -9 -8 -8 -8 -8 -8 -8 -8 -8 -8 -8 -9
-13 -18 -24 -25 -25 -24 -24 -22 -21 -20 -19 -18 -17 -17 -15 -15 -15 -15 -15 -14 -14 -14 -15 -12 -11 -11 -10 -10 -10 -9 -9 -8 -8 -8 -8 -8 -8 -8 -8 -8 -8 -8 -8
-19 -24 -25 -25 -24 -24 -23 -23 -21 -20 -18 -17 -16 -15 -15 -15 -15 -15 -15 -14 -15 -15 -14 -11 -11 -10 -10 -9 -9 -8 -8 -8 -8 -8 -8 -8 -8 -8 -8 -7 -7 -7 -9
-24 -24 -25 -24 -24 -24 -23 -22 -20 -18 -17 -17 -16 -15 -15 -15 -15 -15 -15 -15 -15 -16 -11 -11 -10 -10 -9 -8 -8 -8 -7 -7 -8 -8 -8 -7 -7 -7 -7 -7 -7 -7 -8
-24 -24 -24 -24 -24 -22 -21 -20 -19 -17 -16 -15 -15 -15 -15 -15 -15 -15 -15 -15 -15 -15 -11 -10 -10 -9 -9 -8 -7 -7 -7 -7 -8 -7 -7 -7 -7 -7 -7 -7 -7 -7 -8
-24 -25 -24 -23 -22 -20 -19 -18 -17 -16 -15 -15 -15 -15 -15 -15 -14 -14 -15 -15 -16 -12 -11 -10 -10 -9 -8 -8 -7 -7 -7 -7 -7 -7 -7 -7 -7 -8 -8 -7 -7 -7 -8

GFSGL_850_dewp_006.txt.gz
Dewpoint
5 1 -1 -2 -2 -2 -4 -3 -3 -3 -3 -3 -3 -5 -10 -15 -18 -17 -17 -16 -15 -15 -16 -17 -17 -17 -17 -15 -13 -12 -11 -11 -10 -12 -11 -11 -12 -13 -11 -10 -9 -8 -8
2 1 -0 -1 -2 -3 -3 -3 -3 -3 -3 -2 -4 -8 -14 -17 -16 -15 -15 -14 -14 -15 -16 -17 -18 -16 -15 -14 -11 -10 -9 -10 -9 -9 -10 -12 -13 -11 -10 -11 -10 -10 -12
2 1 -1 -2 -3 -3 -3 -3 -3 -3 -2 -3 -6 -12 -16 -16 -15 -14 -14 -14 -15 -16 -17 -18 -17 -17 -15 -13 -11 -10 -9 -8 -8 -9 -10 -11 -10 -9 -9 -10 -12 -12 -12
1 -1 -2 -3 -3 -3 -3 -4 -3 -3 -3 -6 -11 -16 -16 -15 -14 -14 -14 -15 -16 -18 -18 -20 -20 -18 -16 -11 -10 -9 -9 -10 -11 -10 -9 -9 -8 -9 -11 -12 -12 -11 -10
-2 -3 -4 -4 -4 -4 -4 -4 -3 -4 -6 -11 -15 -16 -15 -15 -15 -14 -16 -17 -17 -16 -18 -19 -17 -16 -14 -10 -9 -10 -10 -9 -8 -8 -9 -9 -10 -11 -12 -12 -10 -10 -10
-3 -4 -4 -4 -4 -5 -4 -4 -4 -7 -11 -15 -17 -17 -17 -16 -14 -15 -18 -15 -15 -16 -16 -14 -14 -13 -13 -12 -13 -9 -8 -8 -9 -10 -9 -10 -11 -12 -11 -10 -10 -10 -11
-3 -4 -5 -5 -5 -5 -4 -5 -7 -10 -14 -17 -19 -19 -18 -14 -15 -19 -22 -16 -14 -14 -13 -12 -12 -12 -13 -12 -11 -9 -8 -10 -10 -11 -12 -11 -10 -10 -10 -11 -10 -11 -11
-4 -5 -6 -6 -5 -4 -5 -7 -9 -13 -17 -20 -22 -19 -15 -14 -19 -23 -23 -18 -13 -11 -11 -11 -10 -12 -11 -9 -8 -8 -11 -12 -13 -13 -11 -10 -10 -10 -10 -10 -11 -11 -11
-5 -6 -6 -5 -4 -5 -7 -8 -11 -16 -21 -25 -21 -15 -15 -19 -23 -25 -23 -12 -10 -10 -11 -10 -11 -10 -10 -8 -9 -9 -10 -13 -14 -11 -10 -11 -12 -12 -11 -11 -11 -11 -11
-5 -6 -5 -4 -5 -6 -8 -11 -16 -21 -27 -21 -15 -15 -20 -23 -25 -23 -13 -9 -9 -10 -9 -10 -11 -9 -9 -9 -9 -10 -11 -13 -10 -11 -13 -13 -13 -13 -12 -11 -11 -12 -12
-5 -4 -4 -5 -6 -7 -11 -15 -22 -27 -20 -14 -16 -21 -25 -25 -24 -21 -13 -9 -10 -9 -10 -10 -11 -10 -9 -10 -11 -11 -12 -10 -11 -13 -13 -13 -13 -12 -11 -11 -11 -11 -11
-4 -4 -4 -5 -7 -11 -15 -22 -24 -17 -14 -17 -22 -26 -27 -25 -22 -19 -12 -9 -9 -10 -10 -11 -10 -10 -10 -11 -12 -11 -11 -11 -13 -13 -13 -12 -12 -11 -11 -11 -11 -11 -10
-4 -4 -6 -7 -11 -15 -22 -20 -14 -14 -18 -23 -25 -25 -24 -23 -21 -17 -12 -11 -10 -9 -10 -10 -12 -11 -15 -16 -14 -12 -12 -13 -12 -12 -12 -12 -11 -11 -11 -10 -11 -11 -11
-4 -5 -7 -10 -16 -21 -17 -13 -14 -19 -23 -25 -23 -21 -21 -19 -17 -12 -11 -11 -10 -10 -10 -11 -13 -15 -16 -14 -13 -13 -13 -12 -12 -12 -11 -11 -10 -10 -10 -10 -10 -10 -10
-6 -7 -11 -18 -19 -15 -13 -14 -19 -23 -24 -21 -22 -20 -16 -14 -12 -10 -11 -10 -11 -11 -11 -13 -15 -16 -15 -13 -13 -12 -12 -12 -11 -11 -11 -10 -10 -10 -10 -10 -10 -10 -10
-8 -12 -18 -18 -14 -12 -14 -19 -23 -25 -25 -24 -23 -20 -18 -15 -11 -11 -10 -11 -11 -11 -13 -15 -15 -16 -14 -12 -12 -12 -12 -11 -11 -10 -10 -10 -10 -10 -10 -9 -9 -10 -10
-14 -18 -17 -14 -12 -14 -19 -24 -26 -27 -25 -24 -22 -21 -20 -19 -12 -11 -11 -11 -14 -15 -15 -15 -15 -14 -13 -12 -12 -11 -11 -11 -10 -10 -10 -9 -10 -9 -9 -9 -9 -9 -10
-17 -17 -14 -12 -14 -19 -24 -24 -24 -24 -24 -24 -24 -21 -20 -19 -13 -11 -12 -15 -16 -16 -15 -15 -15 -13 -12 -11 -11 -11 -11 -10 -10 -10 -9 -9 -9 -9 -9 -9 -9 -9 -10
-17 -14 -13 -13 -18 -24 -24 -24 -24 -23 -23 -22 -21 -21 -19 -18 -12 -15 -16 -16 -15 -15 -15 -15 -15 -12 -11 -11 -11 -10 -10 -10 -9 -9 -8 -9 -9 -9 -9 -8 -8 -9 -9
-15 -13 -13 -17 -23 -25 -24 -24 -24 -23 -22 -21 -20 -19 -17 -13 -14 -16 -16 -15 -15 -14 -15 -15 -13 -12 -11 -11 -10 -10 -9 -9 -8 -8 -8 -8 -8 -8 -8 -8 -8 -8 -9
-13 -13 -17 -23 -25 -25 -24 -24 -23 -22 -21 -21 -19 -18 -14 -13 -15 -16 -15 -15 -15 -15 -15 -15 -12 -11 -11 -10 -10 -9 -9 -8 -8 -8 -8 -8 -8 -8 -8 -8 -7 -8 -8
-13 -18 -22 -24 -25 -24 -24 -23 -23 -22 -21 -19 -18 -17 -16 -16 -16 -15 -15 -15 -15 -15 -15 -13 -11 -10 -10 -10 -9 -9 -8 -8 -8 -8 -8 -8 -8 -8 -8 -8 -7 -7 -8
-18 -23 -24 -25 -24 -25 -24 -24 -22 -20 -19 -17 -16 -16 -15 -15 -15 -15 -15 -15 -15 -15 -15 -11 -11 -10 -10 -9 -8 -8 -8 -8 -8 -8 -8 -7 -7 -7 -7 -7 -7 -7 -8
-24 -24 -25 -25 -25 -24 -23 -22 -20 -18 -17 -16 -15 -15 -15 -15 -15 -15 -15 -15 -15 -16 -12 -11 -10 -9 -9 -8 -8 -7 -7 -8 -8 -8 -7 -7 -7 -7 -7 -7 -7 -7 -9
-24 -24 -25 -25 -24 -22 -20 -19 -17 -16 -16 -15 -15 -15 -15 -15 -15 -15 -15 -15 -16 -16 -11 -10 -9 -9 -9 -8 -8 -7 -7 -8 -8 -7 -7 -7 -7 -8 -7 -7 -7 -8 -9
-25 -26 -26 -24 -21 -18 -17 -17 -16 -15 -15 -15 -15 -15 -15 -15 -15 -14 -15 -16 -16 -13 -10 -10 -9 -9 -8 -8 -8 -8 -8 -8 -7 -7 -7 -7 -7 -7 -7 -7 -7 -8 -9

GFSGL_850_dewp_009.txt.gz
Dewpoint
10 10 9 5 -2 -3 -3 -3 -4 -3 -3 -3 -3 -3 -4 -7 -11 -14 -15 -15 -14 -14 -14 -15 -16 -18 -19 -20 -18 -15 -13 -11 -9 -12 -9 -10 -9 -9 -10 -9 -8 -8 -8
10 7 4 -2 -2 -2 -3 -4 -4 -4 -4 -3 -3 -4 -6 -10 -14 -15 -14 -14 -14 -14 -15 -17 -19 -21 -23 -22 -19 -16 -13 -11 -9 -9 -10 -9 -10 -9 -8 -8 -8 -9 -10
6 3 -1 -2 -2 -2 -4 -4 -4 -4 -4 -3 -4 -6 -9 -13 -15 -15 -15 -15 -14 -15 -17 -19 -21 -21 -20 -18 -17 -13 -10 -9 -9 -9 -10 -10 -8 -8 -8 -10 -11 -12 -12
3 0 -0 -2 -3 -4 -4 -4 -4 -4 -3 -4 -6 -8 -11 -15 -16 -16 -15 -14 -15 -18 -20 -19 -19 -17 -16 -14 -10 -9 -9 -9 -9 -9 -8 -8 -9 -11 -11 -12 -11 -11 -10
1 -0 -2 -3 -4 -4 -4 -5 -4 -4 -4 -6 -8 -11 -15 -18 -19 -17 -14 -16 -19 -21 -20 -18 -16 -14 -13 -10 -9 -9 -9 -9 -8 -8 -9 -9 -10 -11 -11 -11 -10 -10 -10
0 -2 -3 -4 -5 -5 -5 -5 -4 -5 -6 -8 -11 -15 -19 -21 -17 -14 -17 -21 -22 -18 -17 -17 -14 -12 -11 -10 -10 -9 -8 -8 -9 -9 -9 -11 -12 -11 -10 -10 -10 -10 -10
-3 -4 -5 -5 -5 -6 -5 -5 -5 -6 -7 -10 -15 -20 -23 -17 -14 -17 -22 -24 -21 -19 -16 -13 -11 -10 -12 -11 -11 -9 -8 -9 -10 -11 -11 -11 -10 -10 -10 -11 -11 -10 -10
-4 -5 -6 -6 -6 -5 -5 -5 -5 -7 -11 -16 -21 -24 -17 -14 -18 -23 -25 -25 -21 -15 -12 -11 -10 -11 -10 -9 -8 -8 -9 -11 -11 -11 -10 -10 -10 -10 -10 -10 -11 -11 -11
-5 -6 -6 -6 -6 -5 -5 -5 -7 -11 -15 -22 -23 -15 -15 -20 -24 -26 -25 -22 -14 -11 -12 -10 -10 -9 -9 -9 -9 -10 -10 -11 -13 -11 -10 -10 -12 -12 -11 -11 -10 -11 -11
-6 -6 -6 -6 -5 -4 -5 -7 -10 -14 -24 -21 -14 -16 -22 -25 -26 -26 -22 -12 -10 -10 -9 -9 -10 -9 -10 -9 -10 -10 -10 -13 -10 -10 -12 -13 -13 -13 -12 -11 -11 -11 -12
-6 -6 -5 -5 -4 -5 -7 -10 -16 -23 -17 -14 -17 -23 -26 -26 -26 -25 -22 -10 -9 -9 -9 -9 -10 -10 -9 -10 -11 -11 -12 -10 -10 -12 -13 -13 -12 -12 -11 -10 -10 -11 -11
-6 -5 -4 -4 -5 -7 -11 -18 -21 -15 -14 -18 -24 -27 -27 -27 -25 -23 -15 -9 -9 -9 -9 -10 -10 -10 -11 -11 -13 -12 -11 -11 -12 -12 -12 -11 -11 -11 -10 -10 -10 -10 -10
-4 -3 -4 -5 -8 -12 -20 -18 -13 -14 -20 -25 -27 -26 -26 -26 -24 -19 -13 -10 -10 -10 -11 -10 -10 -11 -16 -17 -14 -13 -13 -12 -12 -12 -11 -11 -11 -10 -10 -10 -10 -10 -10
-3 -4 -6 -9 -14 -20 -16 -13 -15 -20 -25 -26 -26 -25 -25 -22 -20 -13 -11 -11 -10 -11 -11 -11 -14 -16 -17 -14 -13 -13 -12 -12 -12 -12 -11 -10 -10 -10 -10 -10 -10 -10 -10
-5 -7 -10 -16 -19 -14 -12 -15 -20 -25 -26 -25 -24 -23 -20 -17 -14 -10 -11 -10 -11 -11 -11 -14 -16 -17 -15 -13 -13 -12 -12 -11 -11 -10 -10 -10 -9 -10 -10 -10 -9 -10 -10
-7 -11 -17 -17 -14 -12 -14 -19 -24 -26 -25 -24 -24 -22 -22 -19 -13 -11 -10 -11 -11 -12 -13 -15 -16 -16 -13 -12 -12 -12 -11 -11 -10 -10 -10 -9 -9 -10 -10 -9 -9 -9 -9
-13 -17 -16 -14 -12 -14 -18 -25 -26 -25 -25 -24 -24 -24 -22 -21 -16 -11 -11 -11 -16 -16 -15 -15 -16 -15 -13 -12 -11 -11 -11 -10 -10 -9 -9 -9 -9 -10 -9 -9 -9 -9 -9
-17 -16 -14 -12 -13 -18 -24 -25 -24 -24 -24 -27 -27 -24 -22 -21 -17 -11 -13 -16 -17 -16 -15 -15 -16 -14 -12 -11 -11 -11 -10 -9 -9 -9 -9 -9 -9 -9 -9 -9 -9 -8 -9
-16 -15 -13 -13 -18 -24 -25 -24 -24 -24 -25 -25 -25 -23 -20 -19 -16 -16 -16 -16 -16 -15 -15 -16 -15 -12 -11 -11 -10 -10 -9 -9 -9 -9 -9 -9 -9 -9 -9 -8 -8 -8 -8
-15 -13 -12 -18 -23 -25 -24 -24 -24 -25 -25 -24 -22 -19 -18 -15 -15 -17 -16 -16 -15 -15 -15 -16 -14 -12 -11 -10 -10 -9 -9 -8 -8 -8 -8 -8 -8 -8 -8 -8 -8 -8 -8
-13 -12 -18 -23 -24 -24 -24 -25 -25 -25 -23 -21 -20 -18 -16 -13 -15 -16 -16 -15 -15 -15 -15 -16 -12 -11 -10 -10 -9 -9 -9 -8 -8 -8 -8 -8 -8 -8 -8 -8 -8 -8 -8
-13 -19 -24 -24 -24 -24 -25 -25 -24 -22 -20 -18 -18 -17 -16 -16 -16 -16 -15 -15 -15 -15 -15 -14 -11 -10 -10 -10 -9 -9 -8 -8 -8 -8 -8 -8 -8 -8 -8 -8 -7 -8 -8
-20 -24 -24 -24 -25 -27 -26 -24 -21 -19 -18 -17 -16 -16 -16 -16 -15 -15 -15 -15 -15 -16 -16 -11 -10 -10 -9 -9 -8 -8 -8 -8 -8 -8 -8 -8 -7 -7 -8 -8 -7 -8 -9
-24 -24 -24 -26 -27 -26 -22 -19 -18 -17 -16 -16 -16 -16 -16 -16 -15 -15 -15 -15 -16 -16 -13 -10 -10 -9 -9 -8 -8 -8 -7 -8 -8 -8 -7 -7 -7 -7 -7 -7 -7 -8 -9
-24 -25 -28 -28 -25 -20 -19 -18 -17 -16 -16 -16 -16 -17 -17 -16 -15 -15 -15 -16 -16 -16 -11 -10 -9 -9 -8 -8 -8 -8 -8 -8 -7 -7 -7 -7 -7 -7 -7 -7 -7 -9 -9
-26 -29 -28 -23 -20 -18 -17 -17 -16 -16 -15 -16 -19 -18 -16 -15 -15 -15 -15 -15 -16 -13 -10 -9 -9 -8 -8 -8 -8 -8 -8 -8 -8 -7 -7 -6 -6 -7 -7 -7 -8 -9 -9

GFSGL_850_dewp_012.txt.gz
Dewpoint
11 11 11 9 8 7 2 -3 -3 -4 -4 -4 -4 -4 -4 -4 -5 -9 -12 -15 -15 -15 -14 -14 -15 -17 -18 -14 -12 -12 -11 -11 -11 -12 -11 -10 -10 -10 -10 -9 -9 -9 -9
11 11 10 10 8 3 -3 -4 -4 -5 -5 -5 -4 -4 -4 -5 -8 -11 -14 -16 -16 -15 -14 -15 -17 -16 -18 -14 -12 -12 -11 -10 -10 -10 -10 -10 -10 -9 -8 -9 -10 -11 -12
11 10 8 6 3 -3 -4 -4 -5 -5 -5 -5 -4 -4 -5 -7 -11 -14 -17 -18 -16 -14 -15 -17 -17 -17 -15 -13 -12 -10 -9 -9 -9 -9 -10 -10 -8 -8 -9 -10 -11 -12 -11
9 7 7 3 -3 -4 -4 -5 -6 -6 -5 -5 -4 -5 -7 -10 -15 -18 -19 -16 -13 -14 -16 -16 -14 -14 -11 -10 -9 -9 -10 -9 -10 -10 -9 -7 -8 -9 -11 -12 -12 -11 -10
7 5 1 -2 -3 -3 -5 -6 -6 -5 -5 -5 -6 -7 -10 -15 -19 -20 -15 -14 -13 -12 -13 -11 -11 -12 -15 -11 -8 -9 -9 -9 -9 -9 -7 -8 -9 -11 -12 -12 -10 -10 -10
3 -0 -2 -2 -4 -5 -6 -6 -5 -5 -5 -6 -7 -10 -15 -21 -21 -15 -15 -19 -15 -11 -11 -12 -11 -9 -9 -8 -9 -9 -9 -8 -8 -8 -8 -9 -12 -12 -11 -10 -9 -9 -10
-0 -1 -2 -4 -5 -6 -6 -6 -5 -5 -6 -7 -11 -15 -22 -20 -15 -16 -21 -26 -14 -13 -11 -10 -9 -10 -9 -9 -9 -9 -9 -8 -8 -9 -10 -12 -11 -10 -11 -10 -10 -10 -10
-2 -4 -5 -6 -6 -6 -6 -6 -5 -6 -7 -12 -16 -23 -18 -14 -17 -24 -27 -24 -15 -10 -9 -9 -9 -9 -9 -9 -9 -9 -8 -10 -11 -11 -11 -10 -10 -10 -10 -10 -10 -11 -10
-4 -5 -6 -6 -6 -6 -6 -5 -6 -8 -12 -18 -22 -15 -14 -20 -26 -27 -27 -21 -11 -10 -10 -10 -9 -9 -9 -9 -9 -9 -10 -11 -11 -11 -9 -9 -9 -10 -10 -10 -11 -10 -10
-6 -6 -7 -7 -6 -5 -5 -6 -9 -13 -20 -19 -14 -16 -21 -27 -27 -27 -27 -13 -10 -10 -10 -10 -10 -9 -10 -9 -9 -10 -11 -11 -11 -10 -10 -11 -11 -10 -10 -10 -10 -11 -11
-6 -6 -6 -6 -5 -5 -7 -10 -14 -21 -15 -14 -17 -23 -27 -26 -26 -27 -25 -12 -10 -10 -10 -10 -10 -10 -9 -10 -10 -11 -11 -10 -10 -10 -11 -11 -11 -10 -10 -10 -10 -10 -11
-6 -6 -5 -5 -6 -7 -10 -17 -19 -14 -14 -18 -25 -26 -24 -25 -25 -26 -22 -10 -9 -9 -9 -10 -10 -10 -10 -11 -11 -11 -10 -11 -11 -11 -11 -10 -10 -10 -10 -10 -10 -10 -10
-5 -5 -5 -6 -8 -12 -19 -16 -13 -14 -19 -26 -26 -25 -23 -23 -23 -20 -12 -10 -10 -9 -10 -10 -10 -10 -13 -16 -13 -12 -11 -11 -11 -11 -11 -11 -10 -10 -10 -10 -10 -10 -10
-4 -5 -7 -9 -14 -18 -14 -13 -15 -20 -25 -25 -22 -21 -18 -16 -13 -12 -11 -10 -9 -10 -10 -10 -11 -13 -12 -12 -12 -11 -11 -11 -11 -11 -12 -11 -10 -10 -10 -10 -10 -10 -10
-5 -7 -10 -15 -17 -14 -12 -14 -19 -24 -26 -25 -24 -23 -15 -14 -13 -11 -10 -10 -10 -10 -11 -11 -13 -13 -13 -12 -11 -11 -11 -11 -11 -11 -10 -10 -10 -10 -10 -10 -9 -9 -10
-7 -10 -17 -16 -14 -12 -14 -18 -24 -25 -25 -25 -25 -25 -23 -18 -13 -11 -11 -10 -11 -11 -12 -13 -13 -12 -12 -12 -12 -11 -11 -10 -10 -9 -9 -9 -10 -10 -10 -9 -9 -9 -9
-13 -17 -16 -14 -12 -13 -17 -24 -25 -24 -24 -25 -27 -26 -24 -21 -18 -12 -11 -13 -14 -17 -13 -13 -12 -12 -12 -12 -12 -11 -10 -10 -9 -9 -9 -9 -10 -10 -10 -9 -9 -9 -9
-17 -16 -14 -13 -13 -18 -23 -25 -25 -25 -26 -28 -25 -24 -23 -21 -19 -11 -13 -17 -15 -14 -14 -13 -13 -13 -12 -11 -11 -10 -10 -9 -9 -9 -9 -9 -9 -9 -9 -9 -9 -8 -9
-16 -15 -13 -13 -18 -23 -25 -25 -24 -26 -26 -25 -24 -23 -21 -20 -18 -14 -17 -16 -15 -14 -14 -13 -13 -13 -11 -11 -10 -10 -10 -9 -9 -9 -9 -9 -8 -9 -9 -9 -8 -8 -9
-15 -13 -13 -19 -23 -24 -24 -25 -27 -26 -25 -22 -19 -18 -18 -13 -12 -15 -16 -15 -15 -14 -14 -14 -15 -12 -11 -10 -10 -10 -9 -9 -8 -8 -8 -8 -8 -8 -8 -8 -8 -8 -8
-13 -13 -19 -24 -24 -24 -26 -28 -27 -24 -21 -19 -18 -17 -16 -13 -14 -15 -15 -15 -15 -15 -15 -16 -14 -11 -10 -10 -10 -9 -9 -8 -8 -8 -8 -8 -8 -8 -8 -8 -8 -8 -8
-14 -20 -24 -24 -24 -28 -28 -26 -23 -20 -18 -18 -17 -17 -16 -16 -15 -15 -15 -15 -15 -15 -15 -15 -11 -10 -10 -9 -9 -9 -8 -8 -8 -8 -8 -8 -7 -7 -7 -7 -7 -8 -8
-21 -24 -24 -25 -29 -29 -26 -21 -19 -18 -17 -16 -16 -16 -16 -17 -16 -16 -15 -15 -15 -16 -16 -12 -10 -10 -9 -9 -8 -8 -8 -8 -8 -8 -8 -7 -7 -7 -7 -7 -7 -8 -8
-24 -24 -26 -30 -29 -24 -20 -19 -18 -17 -17 -16 -16 -18 -19 -18 -16 -15 -15 -15 -15 -16 -14 -10 -10 -9 -9 -8 -8 -8 -8 -8 -8 -8 -7 -7 -7 -7 -7 -7 -7 -8 -9
-24 -27 -30 -29 -24 -20 -19 -18 -17 -17 -16 -16 -18 -19 -18 -15 -15 -15 -15 -15 -15 -15 -11 -9 -9 -9 -8 -8 -8 -8 -8 -8 -7 -7 -7 -7 -7 -7 -7 -8 -8 -9 -9
-27 -30 -28 -23 -20 -19 -18 -17 -17 -16 -16 -16 -17 -17 -17 -15 -15 -14 -14 -14 -15 -13 -10 -9 -9 -8 -8 -8 -8 -8 -7 -7 -7 -7 -7 -7 -7 -7 -8 -8 -8 -9 -9

GFSGL_850_dewp_015.txt.gz
Dewpoint
9 11 11 11 10 9 6 3 3 -1 -3 -3 -3 -4 -4 -3 -3 -4 -7 -10 -13 -14 -14 -14 -14 -13 -14 -14 -15 -13 -12 -11 -11 -11 -10 -10 -10 -10 -10 -9 -8 -10 -10
6 10 11 10 9 7 3 2 -0 -4 -4 -4 -4 -4 -4 -4 -4 -6 -10 -13 -15 -16 -15 -13 -12 -11 -13 -14 -13 -12 -12 -11 -10 -9 -9 -9 -9 -10 -9 -8 -9 -10 -11
8 10 10 9 8 4 1 1 -4 -4 -5 -5 -5 -4 -4 -4 -5 -8 -13 -17 -18 -14 -12 -11 -11 -12 -12 -12 -11 -11 -10 -9 -9 -9 -9 -9 -10 -8 -7 -8 -10 -11 -12
9 9 9 8 4 1 -1 -3 -5 -5 -6 -5 -5 -4 -4 -5 -7 -12 -17 -20 -15 -12 -11 -10 -11 -11 -11 -10 -11 -9 -9 -9 -9 -9 -9 -10 -8 -7 -9 -10 -11 -11 -10
8 8 6 5 1 -3 -4 -5 -6 -6 -6 -5 -4 -4 -4 -6 -12 -18 -21 -15 -15 -13 -12 -11 -11 -11 -11 -9 -8 -8 -8 -9 -9 -10 -8 -7 -8 -9 -10 -11 -11 -10 -12
8 6 -2 -2 -4 -5 -5 -5 -6 -6 -5 -4 -5 -5 -7 -12 -17 -20 -15 -17 -22 -17 -13 -13 -12 -10 -10 -9 -8 -8 -9 -9 -8 -8 -7 -8 -9 -10 -11 -10 -11 -9 -9
5 0 -1 -4 -4 -5 -5 -5 -6 -5 -5 -5 -5 -8 -13 -20 -18 -15 -19 -26 -26 -16 -14 -11 -9 -10 -9 -9 -9 -9 -10 -8 -7 -9 -9 -10 -10 -11 -12 -10 -9 -9 -10
0 -1 -5 -3 -3 -3 -5 -6 -6 -6 -5 -6 -9 -13 -20 -15 -15 -22 -27 -26 -22 -14 -11 -10 -10 -10 -9 -9 -10 -9 -10 -10 -11 -10 -10 -10 -11 -10 -8 -9 -9 -11 -11
-1 -5 -1 -1 -6 -6 -6 -6 -6 -5 -6 -10 -16 -18 -14 -18 -23 -26 -26 -26 -18 -11 -11 -11 -10 -10 -9 -9 -8 -9 -10 -10 -11 -11 -10 -9 -9 -9 -9 -10 -11 -10 -10
1 -4 -6 -6 -6 -6 -6 -5 -5 -8 -12 -19 -14 -14 -18 -25 -25 -25 -26 -23 -12 -10 -11 -10 -10 -10 -9 -9 -9 -9 -10 -11 -11 -11 -11 -11 -11 -11 -10 -10 -10 -10 -10
-6 -6 -7 -7 -6 -5 -4 -6 -9 -15 -17 -13 -15 -20 -23 -22 -22 -22 -23 -19 -10 -9 -10 -10 -11 -10 -9 -9 -9 -10 -11 -10 -10 -10 -11 -11 -11 -11 -10 -10 -10 -10 -11
-7 -7 -6 -5 -4 -5 -7 -11 -17 -14 -13 -16 -20 -22 -18 -15 -16 -16 -15 -9 -9 -9 -10 -11 -10 -10 -9 -10 -10 -10 -10 -10 -11 -11 -11 -11 -11 -10 -10 -10 -10 -10 -10
-5 -5 -4 -4 -6 -8 -13 -16 -13 -13 -16 -21 -23 -20 -17 -17 -16 -13 -11 -10 -10 -10 -10 -10 -10 -10 -10 -12 -12 -10 -10 -11 -11 -11 -11 -11 -10 -10 -10 -10 -10 -10 -9
-4 -4 -5 -6 -9 -16 -15 -13 -13 -16 -22 -23 -20 -20 -20 -18 -15 -13 -15 -12 -11 -10 -10 -11 -11 -11 -13 -12 -12 -12 -11 -11 -11 -11 -11 -10 -10 -10 -10 -10 -10 -10 -10
-4 -5 -8 -12 -17 -14 -13 -13 -16 -22 -25 -25 -24 -25 -24 -23 -20 -21 -12 -11 -10 -10 -10 -13 -13 -13 -13 -12 -12 -12 -11 -11 -11 -10 -10 -10 -10 -10 -10 -10 -10 -10 -11
-6 -8 -14 -16 -14 -13 -13 -16 -21 -24 -24 -24 -24 -27 -29 -27 -23 -18 -11 -10 -10 -10 -12 -13 -13 -13 -12 -12 -12 -11 -11 -10 -10 -9 -9 -9 -10 -10 -9 -9 -9 -9 -10
-9 -16 -16 -14 -13 -13 -17 -22 -24 -22 -22 -23 -27 -30 -27 -24 -22 -19 -11 -11 -15 -12 -14 -13 -13 -13 -12 -12 -12 -11 -11 -10 -10 -9 -9 -9 -9 -9 -9 -9 -9 -9 -9
-16 -16 -14 -13 -13 -18 -22 -24 -24 -24 -26 -26 -24 -24 -21 -20 -19 -11 -11 -13 -15 -15 -14 -13 -13 -13 -13 -12 -11 -10 -10 -10 -9 -9 -9 -9 -9 -9 -9 -9 -9 -9 -9
-16 -14 -13 -13 -18 -23 -24 -24 -25 -27 -25 -24 -21 -19 -17 -18 -14 -11 -12 -14 -14 -14 -14 -14 -14 -14 -12 -11 -10 -10 -10 -9 -9 -9 -9 -8 -8 -8 -8 -8 -8 -8 -8
-14 -13 -13 -19 -23 -24 -24 -27 -27 -26 -24 -20 -17 -16 -16 -16 -16 -15 -15 -14 -14 -14 -14 -14 -15 -14 -11 -10 -10 -10 -9 -9 -9 -8 -8 -8 -8 -8 -8 -8 -8 -8 -8
-12 -14 -20 -24 -24 -24 -29 -29 -27 -23 -20 -18 -17 -15 -13 -12 -15 -15 -15 -15 -14 -15 -15 -16 -15 -11 -10 -10 -10 -9 -9 -9 -8 -8 -8 -8 -7 -8 -8 -8 -7 -7 -7
-15 -20 -24 -23 -24 -30 -31 -26 -22 -20 -18 -16 -16 -16 -14 -16 -16 -16 -15 -15 -15 -15 -16 -15 -11 -10 -10 -9 -9 -9 -9 -8 -8 -8 -8 -7 -7 -7 -7 -8 -7 -7 -8
-21 -24 -23 -25 -30 -31 -25 -22 -19 -18 -17 -17 -16 -16 -18 -18 -17 -15 -15 -15 -16 -15 -15 -12 -10 -10 -9 -9 -9 -8 -8 -8 -8 -8 -8 -8 -8 -8 -8 -8 -8 -8 -8
-23 -23 -25 -30 -30 -25 -22 -20 -19 -17 -16 -16 -16 -17 -18 -18 -16 -15 -15 -15 -15 -15 -13 -10 -9 -9 -9 -9 -8 -8 -8 -8 -7 -8 -8 -8 -8 -8 -8 -8 -8 -9 -9
-23 -25 -30 -30 -25 -22 -20 -19 -18 -17 -17 -16 -16 -17 -17 -17 -16 -15 -14 -14 -14 -13 -10 -9 -9 -8 -8 -8 -8 -8 -7 -7 -7 -8 -8 -7 -8 -8 -8 -9 -9 -10 -9
-26 -30 -29 -25 -22 -20 -19 -18 -17 -17 -17 -16 -16 -17 -17 -17 -15 -14 -12 -12 -10 -10 -9 -9 -8 -8 -8 -8 -8 -8 -7 -7 -7 -8 -9 -9 -9 -9 -9 -9 -9 -9 -8

GFSGL_850_dewp_018.txt.gz
Dewpoint
10 10 9 9 10 10 9 9 9 8 2 -0 -2 -3 -3 -3 -3 -2 -2 -3 -5 -9 -14 -16 -17 -15 -12 -13 -14 -16 -16 -13 -12 -12 -11 -9 -9 -9 -9 -10 -11 -8 -9
9 9 9 9 9 8 8 8 6 2 0 -2 -4 -4 -4 -3 -3 -3 -3 -5 -9 -14 -17 -17 -14 -12 -12 -14 -15 -14 -12 -12 -10 -9 -8 -9 -9 -10 -11 -10 -8 -9 -11
9 9 9 8 7 6 5 4 0 -1 -3 -4 -5 -4 -4 -3 -3 -4 -5 -9 -15 -19 -17 -13 -12 -12 -14 -15 -13 -12 -12 -12 -9 -9 -9 -10 -11 -11 -9 -9 -10 -12 -11
8 8 7 5 5 4 3 -0 0 -3 -4 -5 -5 -4 -4 -3 -3 -4 -9 -14 -20 -16 -14 -14 -13 -13 -12 -11 -11 -10 -9 -8 -8 -9 -9 -9 -9 -9 -8 -10 -11 -11 -12
6 5 4 4 2 2 -1 -2 -3 -5 -5 -6 -5 -4 -4 -3 -4 -10 -16 -19 -15 -15 -20 -21 -16 -12 -11 -10 -8 -8 -8 -8 -8 -8 -8 -8 -7 -10 -9 -10 -10 -11 -12
3 1 1 -1 -4 -2 -4 -5 -6 -6 -6 -5 -3 -2 -3 -3 -9 -17 -17 -15 -18 -25 -25 -21 -16 -14 -13 -9 -8 -8 -8 -8 -8 -9 -8 -9 -10 -9 -10 -10 -12 -10 -9
-1 -1 -3 -4 -2 -4 -4 -3 -7 -5 -3 -4 -4 -3 -4 -8 -17 -15 -16 -22 -25 -24 -22 -15 -12 -11 -10 -10 -10 -8 -9 -9 -9 -9 -10 -10 -10 -10 -10 -10 -9 -8 -9
-1 -2 -1 2 1 -3 -5 -5 -4 -4 -5 -3 -2 -4 -10 -17 -14 -17 -23 -25 -24 -25 -18 -13 -10 -11 -10 -9 -9 -9 -8 -10 -11 -10 -10 -10 -10 -10 -9 -9 -9 -9 -11
-0 2 1 -3 -3 -3 -1 -3 -5 -4 -3 -1 -6 -15 -15 -14 -18 -23 -24 -24 -26 -24 -16 -12 -11 -10 -9 -9 -8 -9 -9 -10 -11 -12 -10 -9 -9 -9 -9 -9 -10 -10 -10
2 -0 1 0 -4 -7 -6 -5 -3 -2 -4 -10 -16 -14 -15 -20 -22 -21 -21 -23 -25 -21 -18 -13 -11 -9 -9 -9 -9 -9 -9 -11 -11 -10 -11 -12 -12 -12 -11 -11 -10 -10 -10
2 -1 -2 -5 -7 -5 -4 -3 -4 -8 -15 -14 -14 -17 -20 -20 -19 -18 -19 -21 -15 -10 -9 -10 -11 -10 -9 -9 -9 -9 -10 -10 -10 -10 -12 -12 -12 -11 -10 -10 -10 -10 -10
-7 -8 -7 -7 -5 -3 -4 -7 -13 -15 -13 -15 -17 -22 -20 -17 -17 -18 -13 -10 -9 -9 -10 -10 -10 -10 -9 -10 -10 -11 -10 -9 -11 -12 -11 -12 -11 -10 -10 -10 -10 -10 -10
-8 -7 -6 -4 -3 -7 -11 -16 -13 -13 -15 -19 -22 -21 -21 -21 -20 -18 -16 -15 -18 -10 -10 -10 -10 -10 -11 -11 -13 -11 -10 -12 -11 -11 -11 -11 -10 -10 -10 -10 -10 -10 -10
-4 -3 -4 -6 -10 -16 -14 -13 -13 -15 -20 -24 -24 -24 -24 -25 -26 -24 -22 -20 -17 -13 -11 -11 -12 -15 -12 -13 -14 -13 -12 -12 -11 -11 -10 -10 -10 -10 -10 -10 -9 -9 -10
-4 -6 -9 -13 -16 -14 -13 -13 -15 -20 -23 -23 -24 -24 -27 -31 -28 -17 -14 -14 -12 -10 -10 -12 -16 -15 -15 -15 -14 -13 -12 -11 -10 -10 -10 -10 -10 -10 -9 -9 -9 -9 -10
-7 -9 -14 -16 -14 -13 -13 -15 -20 -22 -23 -23 -25 -31 -31 -26 -23 -20 -18 -11 -10 -10 -11 -14 -15 -15 -15 -15 -13 -12 -11 -11 -10 -10 -9 -9 -9 -9 -9 -9 -9 -9 -9
-10 -16 -15 -14 -13 -13 -16 -21 -23 -23 -22 -23 -22 -22 -22 -17 -16 -15 -11 -10 -11 -12 -15 -16 -15 -15 -15 -14 -12 -11 -11 -10 -10 -9 -9 -9 -9 -9 -9 -9 -9 -9 -8
-16 -15 -15 -13 -13 -17 -22 -23 -23 -25 -29 -31 -26 -22 -18 -15 -17 -11 -11 -12 -16 -17 -16 -15 -15 -15 -15 -13 -11 -11 -10 -10 -9 -9 -9 -9 -8 -9 -9 -8 -8 -9 -9
-15 -15 -13 -13 -19 -22 -23 -23 -27 -30 -29 -25 -22 -20 -19 -19 -17 -15 -15 -16 -16 -16 -16 -16 -16 -16 -13 -11 -11 -10 -10 -9 -9 -9 -9 -8 -8 -9 -9 -8 -8 -8 -8
-14 -13 -14 -20 -23 -23 -24 -29 -31 -28 -23 -21 -19 -18 -17 -15 -17 -18 -17 -16 -16 -15 -15 -16 -16 -14 -11 -10 -10 -10 -9 -9 -9 -8 -8 -8 -8 -8 -8 -8 -8 -8 -7
-12 -14 -20 -23 -23 -24 -30 -32 -27 -22 -21 -20 -19 -18 -13 -13 -18 -18 -17 -16 -15 -16 -16 -16 -14 -11 -10 -10 -9 -9 -9 -9 -8 -8 -8 -8 -8 -8 -8 -8 -8 -7 -7
-15 -20 -23 -23 -25 -30 -31 -26 -23 -21 -20 -19 -18 -18 -17 -18 -19 -17 -16 -15 -16 -15 -15 -14 -11 -10 -9 -9 -9 -9 -9 -8 -8 -8 -8 -8 -8 -8 -8 -8 -8 -8 -8
-20 -23 -22 -24 -29 -31 -26 -23 -21 -20 -19 -18 -17 -17 -17 -18 -18 -17 -15 -15 -14 -14 -13 -10 -10 -10 -9 -9 -9 -9 -8 -8 -7 -8 -8 -8 -8 -8 -8 -8 -8 -9 -8
-23 -22 -24 -29 -30 -26 -23 -21 -20 -19 -18 -17 -17 -17 -17 -17 -17 -16 -15 -13 -12 -11 -10 -10 -9 -9 -9 -9 -8 -8 -8 -7 -7 -8 -8 -9 -8 -8 -9 -9 -9 -8 -8
-22 -24 -29 -29 -26 -23 -21 -20 -19 -18 -17 -17 -17 -16 -17 -17 -17 -16 -14 -12 -11 -10 -10 -9 -9 -8 -8 -8 -8 -8 -7 -7 -7 -7 -8 -8 -7 -7 -7 -7 -8 -8 -8
-24 -28 -28 -25 -23 -21 -19 -18 -18 -17 -17 -17 -17 -16 -17 -17 -17 -15 -13 -11 -11 -10 -9 -9 -8 -8 -8 -8 -8 -8 -7 -7 -7 -7 -7 -6 -6 -6 -7 -7 -7 -7 -7

GFSGL_850_dewp_021.txt.gz
Dewpoint
4 7 8 8 9 11 10 9 9 9 7 3 3 3 -1 -2 -3 -3 -2 -2 -2 -3 -7 -13 -16 -17 -15 -12 -13 -14 -16 -15 -13 -14 -14 -14 -12 -12 -14 -13 -13 -11 -11
5 7 8 8 9 10 9 8 9 8 3 3 2 -2 -3 -3 -3 -3 -3 -3 -3 -6 -13 -17 -17 -13 -12 -12 -14 -16 -15 -14 -13 -12 -11 -11 -11 -12 -12 -11 -10 -11 -13
6 7 8 9 9 8 8 8 6 5 4 4 -3 -4 -3 -4 -3 -3 -3 -3 -7 -12 -17 -16 -13 -13 -14 -15 -15 -14 -13 -12 -10 -9 -9 -9 -10 -11 -9 -9 -11 -12 -12
7 8 9 9 8 8 6 5 5 3 2 -3 -2 -3 -4 -4 -3 -3 -3 -6 -13 -18 -15 -15 -16 -18 -16 -14 -13 -12 -10 -8 -8 -8 -8 -9 -10 -9 -9 -11 -11 -11 -12
9 8 8 7 5 2 2 1 -1 -0 -0 -1 -5 -5 -5 -4 -3 -1 -7 -13 -17 -15 -18 -23 -23 -19 -15 -14 -11 -8 -8 -8 -8 -8 -9 -10 -8 -9 -11 -10 -10 -11 -11
7 6 5 2 1 -1 -3 -2 1 -4 -5 -4 -6 -5 -4 -3 -2 -9 -15 -15 -15 -20 -24 -23 -22 -19 -17 -13 -10 -9 -8 -8 -8 -9 -9 -8 -10 -11 -10 -10 -10 -10 -9
4 3 1 -1 -2 -2 -1 -3 -4 -4 -6 -6 -4 -4 -3 -3 -9 -16 -14 -16 -21 -23 -23 -24 -22 -16 -12 -11 -10 -9 -9 -8 -8 -8 -10 -11 -10 -10 -10 -10 -9 -9 -9
1 -0 -0 -1 -1 -1 -1 -0 -1 0 -2 -1 -4 -4 -6 -13 -15 -14 -17 -23 -23 -23 -26 -26 -19 -13 -11 -10 -9 -8 -8 -9 -10 -10 -11 -10 -10 -10 -9 -9 -10 -10 -10
-4 -5 -3 -1 1 2 3 1 -1 0 -1 -4 -6 -13 -15 -14 -15 -19 -22 -22 -22 -26 -29 -22 -16 -13 -13 -9 -8 -8 -9 -10 -10 -12 -12 -10 -9 -10 -10 -10 -10 -10 -11
1 2 2 3 3 2 -1 -1 -5 -7 -5 -9 -16 -14 -15 -17 -20 -22 -21 -22 -25 -24 -19 -15 -14 -10 -9 -9 -8 -9 -9 -10 -11 -10 -10 -12 -12 -12 -11 -10 -10 -10 -10
2 2 1 0 -0 -2 -6 -7 -6 -5 -14 -14 -14 -16 -18 -21 -21 -21 -21 -19 -14 -12 -13 -16 -14 -12 -9 -9 -9 -9 -9 -10 -9 -10 -12 -12 -12 -11 -10 -10 -10 -10 -10
2 1 -1 -6 -8 -8 -6 -8 -13 -15 -13 -14 -16 -20 -21 -21 -21 -20 -16 -11 -10 -14 -19 -15 -12 -10 -9 -10 -10 -11 -10 -10 -12 -12 -12 -11 -11 -10 -10 -10 -10 -10 -10
-4 -7 -8 -8 -7 -7 -12 -15 -14 -13 -14 -17 -22 -22 -22 -22 -23 -25 -24 -21 -22 -20 -16 -10 -9 -10 -14 -16 -15 -11 -13 -13 -12 -11 -11 -11 -10 -10 -10 -10 -10 -10 -9
-8 -7 -7 -8 -11 -15 -15 -13 -13 -15 -19 -23 -23 -23 -23 -26 -30 -29 -25 -23 -20 -14 -11 -9 -10 -15 -17 -16 -16 -14 -12 -12 -11 -10 -10 -10 -10 -10 -10 -10 -9 -9 -9
-4 -5 -8 -11 -15 -14 -13 -14 -16 -20 -22 -22 -23 -26 -33 -32 -26 -22 -18 -14 -11 -10 -9 -12 -16 -18 -18 -17 -15 -12 -12 -11 -11 -10 -10 -10 -10 -9 -9 -9 -9 -9 -9
-7 -10 -14 -15 -14 -13 -14 -18 -21 -22 -23 -24 -29 -33 -24 -20 -16 -15 -14 -10 -10 -10 -13 -16 -17 -17 -16 -16 -13 -12 -11 -11 -10 -10 -9 -9 -9 -9 -9 -9 -9 -9 -9
-12 -16 -15 -14 -13 -14 -19 -22 -23 -22 -25 -29 -27 -24 -21 -15 -12 -13 -11 -10 -11 -14 -17 -16 -16 -16 -16 -14 -12 -11 -11 -10 -10 -9 -9 -9 -9 -9 -9 -9 -9 -9 -9
-16 -15 -14 -13 -15 -20 -22 -22 -23 -29 -32 -28 -24 -22 -20 -19 -16 -15 -15 -17 -17 -17 -16 -16 -16 -16 -15 -12 -11 -11 -10 -10 -9 -9 -9 -9 -9 -9 -9 -9 -9 -9 -9
-15 -14 -13 -15 -20 -22 -22 -24 -29 -30 -27 -23 -22 -21 -20 -18 -16 -17 -18 -18 -17 -16 -16 -16 -16 -15 -12 -11 -10 -10 -10 -10 -9 -8 -8 -8 -9 -9 -9 -9 -9 -8 -8
-14 -13 -16 -20 -22 -22 -25 -29 -31 -26 -23 -21 -20 -19 -18 -16 -17 -19 -18 -17 -16 -16 -16 -16 -15 -11 -10 -10 -10 -10 -9 -9 -8 -8 -8 -8 -9 -9 -8 -8 -8 -8 -9
-13 -16 -20 -22 -22 -25 -29 -31 -26 -23 -21 -20 -19 -18 -16 -14 -18 -19 -17 -16 -16 -16 -15 -15 -11 -10 -10 -9 -9 -9 -9 -9 -8 -8 -8 -8 -9 -9 -8 -8 -8 -8 -9
-16 -20 -22 -22 -24 -29 -30 -26 -23 -21 -20 -19 -18 -18 -17 -17 -18 -18 -17 -16 -15 -14 -13 -11 -10 -10 -9 -9 -9 -9 -9 -8 -8 -8 -8 -8 -9 -8 -8 -8 -8 -8 -8
-20 -22 -22 -24 -28 -30 -26 -23 -21 -20 -19 -18 -17 -18 -17 -17 -17 -18 -16 -15 -13 -12 -10 -10 -9 -9 -9 -8 -8 -8 -8 -8 -8 -8 -8 -8 -8 -8 -8 -8 -8 -9 -8
-22 -21 -23 -28 -29 -26 -23 -21 -20 -19 -18 -17 -17 -17 -17 -17 -17 -18 -16 -14 -12 -11 -10 -9 -9 -9 -8 -8 -8 -9 -8 -8 -8 -8 -7 -7 -7 -7 -8 -8 -8 -8 -8
-21 -23 -27 -28 -25 -23 -21 -20 -18 -18 -17 -17 -17 -17 -17 -17 -18 -17 -16 -14 -12 -10 -10 -9 -9 -9 -8 -8 -8 -8 -8 -7 -7 -7 -7 -7 -7 -7 -7 -8 -8 -8 -8
-23 -28 -27 -25 -22 -20 -19 -18 -18 -17 -17 -17 -17 -17 -17 -17 -17 -18 -17 -15 -12 -11 -10 -9 -9 -8 -8 -8 -9 -8 -8 -8 -7 -7 -7 -7 -7 -7 -7 -8 -8 -8 -8

GFSGL_850_dewp_027.txt.gz
Dewpoint
-5 -7 -6 -5 -2 -1 0 1 8 8 8 7 8 10 9 9 6 1 1 -2 -1 1 -2 -3 -2 -3 -8 -15 -16 -14 -13 -14 -14 -15 -15 -15 -14 -16 -18 -17 -18 -18 -19
-4 -5 -5 -0 1 3 4 5 8 9 9 8 9 9 8 3 1 1 -1 2 -0 -1 1 0 -5 -7 -13 -14 -13 -14 -16 -17 -15 -15 -13 -12 -12 -13 -13 -13 -15 -19 -19
-2 -4 -3 -1 3 4 5 7 10 10 9 9 9 7 2 1 1 -1 2 1 2 1 -2 -6 -9 -11 -14 -14 -16 -19 -19 -16 -15 -12 -10 -10 -10 -12 -12 -14 -15 -18 -17
-1 -1 -0 4 5 6 7 9 8 8 8 7 6 5 2 1 0 2 1 1 -1 -5 -6 -7 -13 -14 -16 -20 -21 -19 -17 -16 -13 -10 -10 -9 -9 -11 -11 -12 -14 -16 -13
1 3 6 7 8 7 8 8 6 6 6 5 4 0 0 1 -0 0 -1 -3 -4 -4 -11 -13 -16 -20 -22 -21 -19 -17 -14 -10 -11 -9 -8 -8 -9 -10 -11 -12 -13 -11 -11
2 5 5 5 5 6 6 6 5 3 2 2 -0 -0 -0 0 1 0 0 -2 -6 -12 -6 -18 -22 -22 -21 -21 -19 -15 -12 -10 -8 -7 -8 -8 -9 -10 -12 -12 -10 -9 -10
3 3 3 4 4 3 3 3 1 1 1 -0 0 1 0 -1 -0 -1 -2 -3 -2 -13 -20 -22 -22 -22 -23 -22 -20 -18 -15 -13 -8 -8 -9 -9 -10 -13 -11 -9 -9 -9 -10
1 2 2 1 -0 -0 -1 -1 -1 -0 0 1 0 0 0 0 0 -1 -1 -9 -19 -21 -21 -22 -23 -23 -23 -21 -18 -12 -10 -10 -10 -11 -11 -12 -11 -10 -9 -9 -9 -10 -11
-0 -0 -0 -0 -0 0 1 0 0 1 1 1 1 -0 -1 -1 -1 -3 -17 -19 -20 -20 -21 -22 -22 -22 -25 -23 -9 -8 -9 -11 -12 -13 -13 -12 -10 -11 -11 -11 -11 -11 -11
-2 -1 -0 -0 -0 -1 0 -0 0 0 -0 -0 -1 -1 -3 -11 -16 -18 -20 -20 -20 -20 -20 -21 -24 -24 -16 -9 -8 -9 -10 -13 -13 -13 -15 -13 -13 -13 -12 -11 -11 -10 -10
-1 -1 -1 -1 -0 -0 -0 -1 0 -0 -0 -1 -6 -13 -15 -16 -18 -18 -17 -18 -17 -21 -25 -26 -23 -19 -12 -9 -9 -11 -13 -10 -10 -13 -14 -13 -12 -12 -11 -11 -10 -10 -10
-0 -0 -0 -0 -0 -0 -0 -1 -2 -6 -11 -14 -14 -15 -17 -19 -19 -20 -20 -20 -20 -21 -22 -21 -19 -13 -9 -10 -14 -18 -14 -11 -16 -14 -12 -12 -11 -11 -11 -10 -10 -10 -10
0 -0 -0 -3 -6 -7 -6 -8 -13 -14 -14 -15 -17 -19 -21 -21 -21 -23 -25 -27 -23 -20 -21 -17 -10 -11 -13 -18 -19 -20 -18 -16 -13 -12 -12 -11 -10 -10 -10 -10 -10 -10 -10
-5 -7 -7 -7 -9 -13 -14 -14 -14 -15 -17 -20 -22 -22 -22 -24 -28 -25 -22 -22 -22 -18 -12 -10 -10 -12 -17 -19 -19 -18 -15 -12 -11 -11 -11 -10 -10 -10 -10 -10 -10 -10 -10
-6 -7 -8 -12 -14 -14 -14 -15 -16 -19 -21 -21 -22 -24 -28 -29 -27 -25 -23 -17 -11 -10 -10 -12 -15 -18 -19 -19 -18 -15 -12 -11 -11 -10 -10 -10 -9 -9 -10 -10 -10 -10 -9
-6 -9 -13 -15 -14 -14 -15 -16 -19 -21 -22 -23 -27 -32 -31 -26 -23 -19 -17 -12 -13 -17 -16 -18 -18 -18 -18 -18 -15 -12 -11 -11 -10 -10 -9 -9 -9 -9 -9 -9 -9 -9 -9
-11 -15 -15 -14 -14 -14 -18 -20 -21 -22 -23 -27 -30 -27 -23 -21 -20 -19 -19 -19 -20 -20 -19 -18 -18 -17 -17 -15 -12 -11 -10 -10 -10 -9 -9 -9 -9 -9 -9 -8 -8 -8 -9
-15 -15 -14 -14 -14 -18 -21 -22 -22 -25 -28 -28 -25 -23 -22 -21 -19 -18 -18 -20 -20 -19 -18 -17 -17 -16 -14 -11 -11 -10 -10 -9 -9 -9 -9 -9 -9 -9 -8 -8 -8 -8 -9
-15 -15 -14 -14 -19 -21 -22 -22 -25 -28 -29 -26 -23 -22 -21 -20 -18 -17 -18 -19 -19 -18 -17 -17 -16 -13 -11 -10 -10 -10 -9 -9 -9 -9 -8 -9 -9 -9 -8 -8 -8 -8 -8
-15 -14 -15 -19 -21 -22 -22 -25 -28 -28 -25 -23 -22 -22 -20 -19 -17 -18 -18 -19 -18 -17 -16 -15 -12 -10 -10 -10 -9 -9 -9 -9 -9 -9 -9 -9 -9 -9 -8 -8 -8 -8 -8
-14 -14 -19 -21 -22 -22 -24 -28 -28 -25 -23 -22 -21 -20 -18 -17 -18 -18 -18 -18 -18 -17 -15 -13 -11 -10 -10 -9 -9 -9 -9 -9 -9 -9 -9 -9 -8 -8 -8 -8 -8 -8 -9
-14 -18 -21 -22 -22 -24 -27 -28 -25 -23 -22 -21 -20 -19 -18 -18 -18 -18 -18 -18 -18 -16 -13 -11 -10 -10 -10 -9 -9 -9 -9 -9 -9 -9 -9 -8 -8 -8 -8 -8 -8 -8 -8
-17 -20 -22 -22 -23 -27 -27 -25 -23 -21 -20 -19 -18 -18 -18 -18 -18 -18 -18 -19 -18 -16 -13 -11 -10 -10 -10 -9 -9 -9 -9 -9 -8 -9 -8 -8 -8 -8 -8 -8 -8 -8 -8
-19 -21 -21 -23 -28 -27 -25 -22 -20 -19 -18 -18 -18 -18 -18 -18 -18 -18 -18 -19 -19 -17 -15 -12 -11 -10 -9 -9 -9 -8 -8 -8 -8 -9 -8 -8 -8 -8 -7 -8 -8 -8 -8
-21 -21 -22 -28 -27 -24 -21 -20 -19 -19 -18 -18 -18 -18 -18 -18 -18 -18 -18 -19 -19 -18 -16 -12 -11 -10 -9 -9 -9 -8 -8 -8 -8 -9 -8 -8 -8 -8 -8 -8 -8 -8 -8
-21 -22 -27 -27 -24 -21 -20 -19 -18 -18 -18 -18 -18 -18 -18 -18 -18 -18 -18 -19 -19 -18 -16 -12 -11 -10 -9 -9 -8 -8 -8 -8 -8 -8 -8 -8 -7 -8 -8 -8 -8 -8 -8

GFSGL_850_dewp_030.txt.gz
Dewpoint
-2 -3 -4 -6 -6 -6 -3 -1 1 4 7 8 7 8 9 10 9 9 7 5 1 -0 -2 1 -0 -1 -1 -1 -9 -12 -13 -13 -12 -14 -16 -17 -17 -18 -19 -21 -19 -19 -20
0 -1 -3 -5 -5 -5 -0 1 3 6 8 10 10 10 10 9 8 7 4 2 1 -1 -0 2 2 -3 -1 -1 -3 -11 -13 -13 -14 -16 -16 -16 -16 -18 -17 -15 -16 -17 -19
0 -1 -1 -2 -4 -3 1 4 5 8 9 9 9 8 9 8 7 4 2 1 -2 0 1 1 1 -6 -8 -9 -12 -13 -15 -17 -17 -15 -15 -14 -14 -14 -13 -14 -14 -19 -20
1 -0 -1 0 2 2 5 5 6 8 8 7 7 7 7 6 2 1 -1 -1 1 2 2 0 -2 -5 -4 -5 -14 -19 -20 -18 -17 -15 -13 -12 -10 -11 -11 -12 -13 -16 -14
2 1 1 1 5 6 7 7 7 7 7 6 6 5 4 1 -2 -1 1 1 1 1 0 -1 -6 -7 -3 -11 -21 -21 -18 -18 -15 -13 -11 -8 -9 -11 -11 -11 -12 -12 -12
3 3 3 4 5 5 6 5 6 6 6 5 3 2 0 0 1 1 1 1 0 -0 -0 -2 -2 -9 -21 -21 -20 -18 -17 -16 -14 -9 -8 -9 -10 -10 -10 -12 -10 -9 -10
1 2 3 3 4 4 4 4 3 3 2 2 1 1 0 0 1 1 0 1 0 -0 -1 -4 -20 -21 -21 -22 -22 -21 -20 -18 -12 -9 -9 -10 -9 -11 -10 -9 -9 -10 -11
-0 0 1 1 2 2 1 1 1 -0 -1 -1 -1 -0 0 0 -0 -0 -1 -1 -0 -5 -19 -20 -21 -22 -23 -25 -26 -19 -13 -11 -11 -11 -11 -11 -10 -9 -9 -9 -11 -11 -11
-1 -1 -1 -1 -0 -0 -0 0 0 -0 -0 -0 -0 -0 -0 -0 -1 -1 -1 -8 -18 -19 -20 -20 -21 -23 -26 -26 -12 -9 -9 -10 -11 -12 -13 -12 -12 -13 -13 -12 -12 -11 -11
-1 -1 -1 -1 -1 -1 -1 -1 -1 -1 -1 -1 -1 -1 -1 -1 -5 -16 -18 -18 -19 -19 -19 -22 -23 -25 -22 -13 -8 -8 -9 -12 -15 -16 -17 -16 -14 -13 -12 -11 -10 -10 -10
-1 -1 -1 -1 -1 -1 -1 -1 -1 -1 -0 -1 -1 -3 -14 -16 -16 -18 -20 -20 -19 -21 -25 -25 -22 -19 -12 -8 -9 -10 -14 -12 -12 -16 -17 -13 -12 -12 -11 -11 -10 -10 -9
-0 -0 -0 -1 -1 -1 -1 -1 -1 -4 -10 -14 -14 -15 -16 -17 -18 -18 -17 -18 -21 -27 -24 -19 -14 -9 -9 -12 -15 -18 -16 -14 -18 -16 -13 -12 -12 -11 -11 -10 -10 -10 -10
-0 -0 -1 -2 -4 -6 -7 -12 -14 -14 -14 -15 -17 -18 -19 -19 -20 -21 -25 -27 -23 -18 -15 -12 -12 -11 -13 -16 -19 -20 -19 -18 -14 -12 -12 -11 -11 -10 -10 -10 -10 -10 -10
-4 -6 -6 -8 -11 -14 -14 -14 -14 -15 -17 -20 -21 -22 -22 -23 -27 -27 -23 -20 -18 -15 -14 -13 -15 -17 -19 -19 -19 -19 -17 -13 -12 -11 -11 -10 -10 -10 -10 -9 -9 -9 -9
-5 -8 -11 -14 -14 -14 -14 -15 -17 -19 -21 -21 -22 -24 -27 -28 -24 -16 -13 -14 -14 -16 -17 -19 -19 -19 -19 -20 -19 -16 -12 -11 -11 -10 -10 -10 -9 -9 -9 -9 -8 -8 -8
-8 -12 -14 -14 -14 -14 -16 -19 -20 -21 -22 -24 -28 -31 -27 -23 -20 -21 -22 -21 -20 -19 -20 -20 -20 -19 -19 -18 -16 -12 -11 -11 -10 -10 -10 -9 -9 -9 -9 -9 -8 -8 -9
-12 -15 -14 -14 -14 -16 -20 -21 -22 -22 -24 -27 -29 -27 -24 -22 -22 -21 -19 -19 -20 -21 -21 -20 -19 -19 -18 -15 -11 -11 -10 -10 -9 -9 -9 -9 -9 -9 -9 -9 -8 -9 -9
-15 -14 -14 -14 -16 -19 -21 -22 -22 -24 -27 -29 -27 -24 -22 -22 -21 -20 -19 -19 -20 -20 -19 -18 -18 -17 -14 -11 -10 -10 -10 -9 -9 -9 -9 -9 -9 -9 -9 -9 -8 -8 -8
-15 -15 -14 -15 -18 -21 -21 -22 -24 -27 -29 -27 -25 -23 -22 -21 -20 -19 -19 -19 -19 -19 -18 -18 -16 -13 -11 -10 -10 -9 -9 -9 -9 -9 -9 -9 -10 -9 -9 -9 -8 -8 -8
-15 -15 -14 -17 -20 -21 -22 -23 -26 -28 -27 -25 -24 -22 -21 -20 -18 -19 -19 -19 -19 -19 -18 -17 -14 -11 -10 -10 -9 -9 -9 -9 -9 -9 -9 -10 -9 -8 -8 -8 -8 -8 -8
-15 -14 -16 -20 -21 -21 -23 -25 -28 -26 -24 -23 -22 -20 -19 -17 -18 -18 -18 -18 -19 -19 -18 -16 -12 -11 -10 -10 -9 -9 -9 -9 -9 -9 -9 -9 -9 -8 -8 -8 -9 -8 -8
-14 -14 -18 -21 -21 -22 -25 -28 -26 -24 -22 -21 -20 -19 -18 -18 -18 -18 -18 -18 -19 -19 -18 -16 -12 -11 -10 -10 -9 -9 -9 -9 -9 -9 -9 -9 -9 -8 -8 -8 -8 -8 -8
-14 -17 -20 -21 -22 -25 -28 -26 -23 -21 -20 -19 -19 -18 -18 -18 -18 -18 -18 -19 -19 -19 -18 -16 -13 -11 -11 -10 -9 -9 -9 -9 -9 -9 -9 -9 -9 -9 -8 -8 -8 -8 -8
-15 -19 -21 -22 -24 -28 -26 -22 -20 -20 -19 -19 -19 -18 -18 -18 -18 -18 -18 -19 -19 -19 -19 -17 -15 -12 -11 -10 -9 -9 -8 -8 -8 -8 -8 -9 -9 -8 -8 -7 -8 -8 -8
-16 -21 -21 -23 -28 -26 -22 -20 -20 -19 -19 -18 -18 -18 -18 -18 -19 -19 -19 -19 -20 -20 -19 -18 -16 -13 -11 -10 -9 -8 -8 -8 -8 -8 -9 -9 -9 -8 -8 -8 -8 -8 -8
-19 -21 -22 -27 -26 -22 -21 -20 -19 -19 -18 -18 -17 -17 -18 -19 -19 -19 -19 -20 -20 -20 -19 -17 -15 -12 -11 -9 -8 -8 -8 -8 -8 -8 -9 -9 -9 -8 -8 -8 -8 -8 -8

GFSGL_850_dewp_033.txt.gz
Dewpoint
3 2 0 -1 -4 -5 -5 -5 -4 -3 -0 5 7 9 9 10 10 10 10 10 7 6 3 1 2 2 1 -1 -0 -0 -5 -9 -8 -11 -10 -13 -18 -19 -19 -20 -21 -21 -22
2 1 0 -1 -2 -4 -5 -4 -1 1 1 4 8 9 9 9 9 9 9 9 8 3 1 1 1 -1 1 1 -0 -1 -3 -5 -6 -11 -15 -19 -18 -20 -19 -21 -19 -21 -20
2 2 1 0 -1 -1 -1 -3 1 4 4 6 8 8 8 8 8 8 8 6 3 1 1 1 0 1 1 1 1 -4 -4 -4 -6 -11 -17 -17 -17 -19 -19 -18 -17 -18 -21
3 2 2 1 0 -2 -1 -2 2 6 7 7 7 8 8 7 7 6 5 2 -1 -1 0 1 1 1 0 -2 -1 -1 -1 -8 -17 -15 -15 -14 -15 -16 -14 -13 -14 -17 -20
3 3 3 2 1 0 0 1 4 5 5 6 6 7 7 5 4 2 -1 -2 -0 0 1 1 0 -0 -0 -0 -0 -4 -16 -19 -19 -16 -13 -13 -11 -11 -9 -10 -12 -14 -14
2 2 2 2 3 3 4 4 5 5 5 4 4 4 4 2 0 -2 -1 -0 0 1 1 0 -0 -0 -1 -3 -17 -19 -19 -21 -19 -11 -11 -11 -9 -11 -11 -12 -12 -10 -9
1 1 2 2 2 3 3 3 3 2 2 1 1 0 -0 -0 -0 -0 1 1 0 0 -1 -1 -1 -4 -17 -20 -20 -21 -22 -20 -17 -10 -9 -11 -9 -10 -12 -11 -10 -10 -11
-1 -0 0 0 1 1 1 0 0 1 1 1 0 -0 -0 -1 -0 -0 -0 -1 -0 -1 -0 -4 -17 -19 -20 -22 -25 -27 -25 -18 -14 -11 -10 -10 -12 -12 -9 -9 -11 -10 -10
-1 -1 -1 -1 -1 -1 -0 -1 -1 -0 -0 -1 -1 -1 -0 -1 -2 -1 -1 -0 -0 -9 -19 -19 -19 -20 -25 -29 -26 -19 -13 -11 -10 -11 -14 -16 -13 -14 -13 -12 -11 -10 -10
-1 -1 -1 -1 -1 -1 -1 -1 -2 -1 -1 -1 -2 -1 -1 -1 -1 -2 -11 -18 -18 -19 -18 -20 -25 -31 -27 -21 -8 -8 -9 -11 -15 -19 -18 -18 -16 -13 -12 -11 -10 -10 -10
-1 -1 -1 -1 -1 -1 -1 -1 -1 -1 -2 -2 -1 -2 -3 -8 -14 -16 -19 -20 -20 -22 -26 -27 -23 -19 -14 -9 -9 -9 -13 -12 -14 -17 -19 -14 -12 -12 -11 -10 -10 -9 -9
-1 -1 -1 -1 -1 -1 -1 -1 -1 -2 -5 -11 -14 -16 -17 -16 -17 -18 -18 -20 -25 -27 -22 -18 -15 -12 -9 -11 -13 -17 -20 -18 -19 -17 -13 -12 -12 -11 -11 -10 -10 -10 -9
-1 -1 -2 -3 -5 -9 -13 -14 -14 -14 -15 -17 -18 -19 -19 -19 -20 -22 -25 -26 -21 -19 -18 -15 -13 -14 -17 -19 -20 -20 -20 -19 -15 -12 -12 -11 -11 -10 -10 -10 -10 -9 -9
-6 -7 -10 -13 -14 -14 -14 -15 -16 -17 -19 -21 -21 -22 -22 -25 -26 -23 -19 -18 -19 -18 -17 -17 -20 -21 -21 -20 -19 -19 -17 -13 -12 -11 -11 -10 -10 -10 -10 -9 -9 -9 -9
-8 -12 -14 -14 -14 -14 -15 -17 -19 -21 -21 -22 -24 -26 -26 -25 -22 -19 -20 -18 -16 -17 -21 -21 -21 -20 -20 -19 -18 -15 -12 -11 -11 -10 -10 -10 -10 -9 -10 -9 -9 -9 -9
-11 -15 -14 -14 -15 -15 -18 -20 -21 -22 -23 -26 -28 -29 -26 -24 -22 -21 -21 -20 -19 -20 -21 -20 -20 -19 -19 -18 -14 -11 -11 -10 -10 -10 -10 -10 -10 -9 -9 -9 -9 -9 -9
-14 -15 -14 -14 -15 -18 -20 -21 -22 -23 -24 -27 -28 -26 -23 -22 -21 -21 -20 -19 -18 -20 -20 -19 -19 -19 -17 -13 -11 -11 -10 -10 -9 -9 -9 -9 -9 -9 -9 -9 -9 -9 -9
-15 -15 -14 -14 -17 -20 -21 -22 -22 -24 -26 -28 -26 -24 -23 -22 -21 -20 -18 -18 -19 -20 -20 -19 -19 -17 -14 -11 -10 -10 -10 -9 -9 -9 -9 -9 -9 -9 -9 -9 -9 -8 -8
-15 -15 -14 -16 -19 -21 -21 -22 -23 -26 -29 -27 -25 -23 -22 -21 -20 -18 -18 -19 -20 -20 -20 -19 -18 -15 -11 -10 -10 -10 -9 -9 -9 -9 -9 -9 -9 -9 -9 -9 -8 -8 -8
-15 -14 -14 -17 -20 -21 -21 -23 -26 -29 -27 -25 -23 -22 -21 -20 -19 -19 -19 -19 -19 -20 -20 -19 -17 -13 -11 -10 -10 -10 -10 -9 -9 -9 -9 -9 -9 -9 -9 -8 -8 -8 -9
-15 -14 -15 -18 -21 -21 -22 -25 -29 -27 -25 -22 -21 -20 -19 -19 -19 -19 -19 -19 -19 -19 -19 -19 -17 -13 -11 -10 -10 -10 -10 -9 -9 -9 -9 -9 -9 -9 -9 -9 -8 -8 -8
-15 -14 -16 -20 -21 -22 -24 -29 -27 -24 -21 -20 -20 -19 -19 -19 -18 -18 -19 -19 -19 -19 -19 -19 -18 -15 -12 -11 -11 -10 -10 -9 -9 -10 -9 -9 -9 -9 -9 -9 -9 -8 -9
-15 -14 -17 -21 -21 -23 -28 -27 -23 -21 -20 -20 -19 -19 -19 -19 -19 -19 -19 -19 -19 -19 -19 -19 -18 -16 -14 -13 -11 -11 -10 -9 -9 -9 -9 -9 -9 -9 -9 -9 -9 -9 -8
-15 -15 -19 -21 -22 -28 -27 -22 -21 -20 -19 -19 -19 -18 -19 -19 -19 -19 -19 -19 -19 -19 -20 -19 -19 -17 -16 -13 -12 -11 -9 -8 -8 -8 -9 -9 -9 -9 -9 -9 -9 -8 -8
-14 -16 -20 -21 -27 -28 -23 -21 -20 -19 -19 -19 -19 -19 -18 -18 -19 -19 -19 -20 -20 -20 -20 -20 -19 -17 -15 -13 -11 -9 -8 -8 -8 -8 -9 -9 -9 -9 -9 -9 -8 -8 -8
-14 -17 -21 -23 -28 -24 -21 -20 -19 -17 -17 -17 -18 -18 -19 -19 -19 -20 -20 -20 -21 -21 -20 -19 -17 -15 -13 -10 -8 -8 -8 -8 -8 -8 -9 -9 -9 -9 -9 -8 -8 -8 -8

GFSGL_850_dewp_036.txt.gz
Dewpoint
2 2 2 1 0 -1 -2 -3 -3 -2 -1 0 2 5 7 7 9 9 9 9 9 9 9 8 6 7 2 -1 0 2 2 -1 -1 -0 -4 -7 -3 -1 -5 -17 -18 -18 -21
2 2 2 1 -0 -1 -2 -3 -2 -1 -0 1 2 7 9 9 9 9 9 9 9 9 8 7 5 3 -0 1 0 0 1 2 -0 -1 -0 0 -0 -2 -7 -18 -19 -23 -23
2 2 2 2 1 0 -0 1 2 3 4 4 6 8 7 8 8 8 8 7 7 7 7 5 1 -1 1 0 1 1 1 0 -0 -0 -1 -2 -8 -17 -18 -20 -19 -17 -20
3 3 3 3 2 2 1 1 1 1 1 5 5 6 6 6 6 7 7 6 5 5 3 1 1 1 1 1 1 0 -0 -1 -2 -2 -4 -11 -15 -16 -19 -15 -10 -9 -10
2 3 3 2 3 3 3 2 3 2 1 2 5 6 6 5 4 5 4 4 4 2 0 -1 0 1 1 0 -0 -0 -1 -1 -2 -10 -14 -15 -11 -8 -8 -8 -8 -9 -10
1 1 2 2 2 3 4 4 4 5 3 2 4 4 3 2 2 1 0 0 -1 -1 -1 0 1 0 -0 -1 -1 -1 -3 -11 -17 -13 -10 -8 -8 -8 -8 -9 -9 -9 -9
-0 0 1 1 2 2 3 3 3 3 3 3 2 1 1 1 -0 -1 -2 -2 -0 0 0 -0 -0 -1 -1 -1 -5 -17 -20 -20 -20 -8 -7 -8 -8 -8 -8 -10 -9 -9 -9
-1 -0 0 0 1 1 1 1 1 1 0 -0 -0 -1 -1 -1 -1 -1 -1 -0 -0 -0 -1 -1 -2 -3 -9 -19 -20 -22 -24 -27 -20 -14 -9 -8 -8 -9 -9 -9 -9 -9 -8
-1 -1 -0 -0 -0 -0 -0 -0 -1 -1 -1 -1 -1 -1 -1 -2 -1 -1 -2 -2 -2 -1 -5 -14 -18 -19 -21 -24 -25 -24 -20 -11 -8 -11 -12 -15 -16 -15 -14 -10 -11 -9 -9
-1 -1 -1 -1 -1 -1 -1 -1 -1 -1 -2 -2 -2 -2 -2 -2 -3 -1 -2 -6 -15 -18 -19 -20 -24 -28 -26 -20 -13 -8 -8 -10 -11 -16 -10 -12 -19 -18 -13 -12 -11 -10 -9
-1 -1 -1 -1 -1 -2 -2 -2 -2 -2 -2 -2 -2 -2 -3 -6 -14 -19 -19 -18 -19 -21 -25 -27 -22 -21 -21 -17 -12 -10 -12 -15 -15 -17 -19 -18 -13 -12 -11 -11 -10 -10 -10
-1 -1 -1 -1 -1 -2 -2 -2 -2 -3 -6 -11 -15 -16 -17 -15 -16 -18 -21 -24 -26 -26 -23 -22 -22 -20 -20 -19 -16 -15 -17 -19 -16 -19 -16 -12 -11 -11 -11 -10 -10 -9 -9
-2 -2 -4 -8 -11 -13 -14 -14 -15 -15 -17 -19 -20 -20 -19 -19 -21 -23 -25 -24 -22 -22 -21 -19 -19 -18 -18 -19 -21 -21 -21 -20 -18 -14 -12 -11 -11 -10 -10 -10 -10 -9 -9
-8 -12 -14 -14 -14 -14 -15 -16 -18 -20 -21 -21 -22 -22 -23 -26 -26 -25 -21 -20 -20 -18 -18 -19 -20 -21 -21 -21 -21 -20 -19 -16 -12 -11 -11 -11 -10 -10 -10 -10 -10 -9 -9
-12 -15 -15 -15 -15 -16 -17 -19 -21 -21 -22 -23 -25 -27 -27 -25 -23 -23 -22 -15 -10 -13 -19 -20 -20 -20 -19 -19 -19 -17 -13 -11 -11 -11 -10 -10 -10 -10 -10 -10 -9 -9 -9
-14 -15 -15 -15 -15 -17 -20 -21 -22 -22 -24 -26 -28 -29 -25 -23 -23 -21 -19 -19 -19 -19 -20 -21 -20 -20 -20 -19 -15 -12 -11 -10 -10 -10 -10 -9 -9 -9 -10 -9 -10 -9 -9
-15 -15 -15 -15 -16 -19 -21 -22 -22 -23 -24 -27 -28 -26 -24 -23 -22 -21 -20 -20 -19 -20 -20 -20 -20 -19 -18 -15 -11 -11 -10 -10 -10 -9 -9 -9 -9 -9 -9 -10 -10 -9 -9
-15 -15 -15 -15 -18 -20 -21 -22 -23 -24 -26 -27 -26 -25 -24 -23 -22 -21 -20 -19 -19 -19 -19 -20 -19 -18 -16 -12 -11 -10 -10 -10 -9 -9 -9 -9 -9 -9 -9 -9 -9 -9 -9
-16 -15 -15 -16 -19 -21 -21 -22 -23 -26 -28 -27 -25 -23 -22 -21 -20 -19 -18 -19 -19 -19 -19 -19 -19 -18 -15 -12 -11 -10 -10 -10 -9 -9 -9 -9 -9 -9 -9 -9 -9 -9 -9
-15 -15 -15 -16 -20 -21 -21 -22 -25 -29 -27 -25 -23 -21 -21 -20 -18 -18 -19 -19 -19 -19 -19 -19 -19 -17 -15 -12 -11 -11 -10 -10 -10 -9 -9 -9 -9 -9 -9 -9 -9 -9 -9
-16 -15 -15 -17 -20 -21 -22 -23 -29 -27 -24 -22 -21 -20 -20 -19 -19 -19 -19 -19 -19 -19 -19 -19 -20 -19 -16 -13 -12 -11 -11 -11 -10 -10 -9 -9 -9 -9 -9 -9 -9 -9 -9
-16 -15 -15 -18 -21 -21 -22 -28 -28 -24 -22 -21 -20 -20 -20 -20 -19 -19 -19 -19 -19 -19 -19 -20 -20 -19 -18 -16 -14 -13 -12 -11 -11 -9 -9 -9 -9 -9 -9 -9 -9 -9 -9
-16 -15 -15 -18 -21 -22 -27 -28 -24 -22 -21 -21 -20 -20 -20 -20 -20 -19 -19 -20 -20 -20 -20 -20 -20 -20 -18 -17 -16 -14 -13 -11 -10 -9 -8 -9 -9 -9 -9 -10 -10 -10 -9
-15 -15 -15 -19 -21 -23 -29 -25 -22 -21 -21 -20 -20 -20 -20 -20 -19 -19 -20 -20 -20 -20 -20 -21 -20 -19 -18 -17 -16 -14 -12 -9 -8 -8 -8 -9 -9 -9 -10 -10 -10 -9 -9
-15 -15 -16 -20 -21 -27 -27 -23 -22 -20 -19 -18 -18 -19 -19 -20 -20 -20 -20 -20 -21 -21 -21 -20 -20 -19 -17 -15 -13 -11 -8 -8 -8 -8 -9 -9 -10 -10 -9 -9 -9 -8 -8
-15 -15 -16 -21 -23 -28 -24 -22 -20 -18 -16 -15 -15 -15 -15 -16 -17 -18 -19 -20 -20 -20 -20 -19 -17 -15 -12 -10 -8 -8 -8 -8 -8 -9 -9 -9 -9 -9 -8 -8 -8 -8 -8

GFSGL_850_dewp_039.txt.gz
Dewpoint
1 1 3 4 4 3 0 -0 -1 -3 -3 -0 5 9 9 9 9 8 9 9 8 8 8 8 8 8 7 5 3 5 6 6 1 1 1 -5 -8 -5 -1 0 1 1 -0
2 2 3 4 5 6 2 -0 1 1 1 2 2 3 5 7 7 7 7 7 7 7 7 6 7 6 6 5 4 3 1 1 2 2 -2 -1 1 0 0 0 0 -7 -16
2 3 3 3 4 4 2 1 2 3 3 3 4 5 5 6 5 7 7 6 6 6 5 5 5 5 3 3 2 -0 -0 1 1 1 1 1 0 -0 -0 -1 -5 -14 -21
2 2 3 3 3 3 2 2 2 2 2 3 3 3 2 3 4 6 6 6 5 4 3 3 3 3 2 1 -0 1 1 1 1 0 -0 -1 -1 -2 -5 -16 -19 -15 -15
0 1 2 2 3 3 3 3 3 3 3 3 3 4 4 5 5 4 5 4 3 2 1 1 -0 -0 1 1 1 1 1 0 -0 -1 -2 -3 -9 -12 -13 -10 -8 -9 -12
0 1 1 1 2 2 2 2 3 3 3 3 2 3 3 3 4 2 2 1 1 1 0 0 0 0 1 0 -0 -0 -1 -1 -2 -3 -12 -16 -11 -8 -8 -8 -8 -9 -11
-0 0 1 1 1 1 2 2 2 2 1 2 2 2 2 2 0 -1 -1 -1 -1 -1 -1 -0 -1 -1 -1 -2 -2 -1 -2 -12 -20 -18 -10 -8 -7 -8 -8 -9 -10 -11 -12
-0 -0 0 1 1 1 1 1 1 1 1 0 0 -0 -0 -1 -1 -1 -1 -1 -1 -1 -1 -2 -2 -2 -1 -6 -13 -20 -22 -23 -22 -15 -11 -9 -9 -8 -9 -9 -9 -10 -11
-0 -0 -0 -0 -0 -0 -0 -0 -0 -0 -0 -1 -1 -1 -1 -1 -2 -2 -2 -2 -2 -2 -2 -2 -10 -18 -20 -22 -26 -26 -18 -12 -8 -9 -11 -14 -16 -18 -19 -16 -17 -14 -12
-1 -1 -1 -1 -1 -1 -1 -1 -1 -1 -2 -2 -2 -2 -2 -2 -2 -2 -1 -3 -12 -18 -19 -19 -23 -28 -30 -26 -23 -9 -7 -8 -8 -11 -13 -11 -12 -20 -19 -16 -14 -12 -10
-1 -1 -1 -2 -2 -2 -2 -2 -2 -2 -2 -2 -3 -5 -7 -10 -18 -20 -20 -18 -20 -21 -23 -24 -24 -22 -20 -18 -15 -12 -10 -13 -17 -17 -14 -16 -16 -13 -12 -11 -11 -11 -10
-1 -1 -1 -2 -2 -2 -2 -3 -5 -9 -14 -16 -17 -18 -18 -18 -20 -21 -24 -27 -28 -26 -22 -20 -18 -21 -21 -20 -18 -16 -19 -21 -22 -20 -19 -15 -12 -11 -11 -11 -11 -10 -10
-3 -5 -7 -9 -12 -13 -14 -15 -16 -17 -18 -20 -20 -20 -21 -22 -24 -26 -27 -25 -23 -22 -21 -22 -20 -19 -20 -21 -22 -23 -22 -22 -20 -18 -13 -11 -10 -11 -11 -10 -10 -10 -10
-10 -13 -15 -14 -15 -15 -16 -18 -20 -20 -21 -21 -22 -23 -25 -27 -27 -25 -22 -20 -19 -16 -12 -14 -20 -21 -22 -22 -22 -21 -21 -19 -15 -12 -11 -11 -11 -10 -10 -10 -10 -10 -10
-14 -15 -15 -15 -15 -17 -19 -20 -21 -22 -23 -24 -25 -27 -28 -23 -24 -25 -24 -22 -20 -16 -20 -19 -19 -19 -19 -19 -19 -19 -15 -12 -11 -11 -11 -10 -10 -10 -10 -9 -10 -9 -9
-14 -15 -15 -16 -16 -18 -20 -21 -22 -22 -23 -25 -28 -29 -29 -27 -25 -24 -23 -22 -21 -20 -19 -17 -16 -16 -16 -16 -16 -14 -11 -11 -11 -10 -10 -10 -9 -9 -9 -9 -9 -9 -9
-14 -15 -15 -16 -16 -19 -21 -22 -22 -23 -24 -28 -29 -29 -27 -24 -23 -22 -21 -20 -19 -19 -19 -17 -18 -18 -17 -17 -15 -12 -11 -10 -10 -10 -10 -9 -9 -9 -9 -9 -9 -9 -9
-15 -15 -15 -15 -17 -19 -21 -22 -22 -23 -25 -27 -29 -26 -25 -23 -22 -22 -21 -20 -18 -17 -19 -19 -20 -19 -19 -17 -15 -12 -11 -10 -10 -10 -10 -9 -9 -9 -9 -9 -9 -9 -9
-15 -15 -15 -15 -17 -20 -21 -22 -22 -24 -29 -28 -26 -24 -22 -22 -21 -20 -19 -19 -19 -19 -19 -20 -20 -20 -20 -18 -15 -12 -11 -11 -10 -10 -10 -10 -9 -9 -9 -9 -9 -9 -10
-15 -16 -15 -15 -17 -20 -21 -22 -23 -28 -29 -26 -23 -22 -21 -21 -18 -16 -17 -19 -19 -19 -19 -19 -20 -20 -20 -19 -16 -13 -12 -11 -11 -11 -11 -11 -9 -9 -9 -9 -9 -10 -10
-15 -16 -15 -15 -17 -20 -21 -22 -25 -29 -27 -23 -22 -22 -21 -21 -20 -19 -20 -20 -19 -20 -20 -20 -20 -20 -20 -19 -18 -16 -14 -13 -13 -12 -12 -11 -9 -9 -9 -9 -10 -10 -10
-14 -16 -15 -15 -17 -20 -21 -22 -28 -27 -23 -22 -22 -22 -21 -21 -21 -21 -20 -20 -20 -20 -20 -20 -20 -21 -20 -20 -18 -17 -17 -15 -14 -13 -12 -9 -9 -9 -9 -9 -10 -10 -10
-14 -16 -15 -15 -17 -20 -21 -25 -28 -24 -23 -22 -21 -22 -22 -21 -21 -20 -20 -20 -20 -20 -20 -20 -20 -21 -20 -19 -19 -18 -16 -15 -13 -11 -9 -9 -9 -9 -9 -9 -9 -10 -10
-14 -16 -15 -15 -17 -20 -21 -28 -27 -23 -22 -21 -20 -20 -20 -20 -20 -21 -21 -20 -20 -20 -20 -21 -21 -20 -20 -19 -17 -16 -14 -11 -9 -8 -9 -9 -9 -9 -10 -10 -10 -9 -9
-14 -16 -15 -15 -17 -21 -22 -28 -24 -22 -21 -19 -18 -17 -17 -17 -18 -18 -19 -19 -20 -20 -20 -20 -19 -18 -17 -14 -12 -10 -8 -8 -8 -9 -9 -9 -9 -9 -9 -9 -9 -9 -9
-14 -16 -15 -15 -17 -21 -25 -27 -23 -22 -19 -17 -16 -16 -15 -16 -16 -16 -16 -16 -16 -16 -16 -15 -14 -12 -10 -8 -8 -7 -8 -8 -8 -9 -9 -9 -9 -9 -9 -9 -9 -9 -9

GFSGL_850_dewp_042.txt.gz
Dewpoint
1 1 2 4 5 6 4 1 0 -0 -1 -1 -1 1 5 7 8 8 8 8 8 9 8 8 7 7 7 7 6 6 5 3 2 3 3 3 0 -0 -2 -1 -5 -3 1
2 2 3 4 5 5 5 2 0 0 1 1 1 1 3 6 7 7 7 6 7 7 7 7 6 6 6 5 5 4 3 2 2 2 2 2 1 1 -2 -3 -0 1 1
2 2 2 3 3 4 3 2 2 2 1 2 1 1 1 3 4 4 3 3 6 6 6 6 5 4 4 4 3 2 2 2 2 2 2 1 1 -0 -0 -0 -1 -0 -1
1 2 2 2 2 3 3 3 3 2 2 2 3 3 3 3 4 4 5 5 5 5 6 4 4 3 2 2 1 1 1 1 1 1 1 0 -0 -1 -1 -1 -3 -13 -17
0 1 1 2 2 2 2 2 3 2 3 3 3 3 3 3 3 3 4 4 4 4 3 2 1 1 0 -0 0 0 0 0 0 -0 -0 -1 -1 -2 -7 -14 -15 -14 -12
0 0 1 1 2 2 2 2 2 2 3 3 3 3 2 2 1 1 1 1 1 1 0 0 -0 -1 -1 -1 -0 -0 -1 -1 -1 -2 -2 -3 -11 -13 -10 -9 -9 -9 -13
0 0 0 1 1 1 1 1 1 1 2 2 2 1 1 -0 -1 -1 -1 -1 -1 -1 -1 -1 -1 -2 -2 -2 -2 -2 -2 -2 -6 -13 -17 -12 -9 -8 -9 -9 -9 -11 -16
-0 -0 0 0 0 -0 1 1 1 1 0 -0 -1 -1 -1 -1 -1 -1 -1 -1 -1 -1 -1 -2 -2 -2 -2 -2 -3 -9 -17 -21 -17 -14 -14 -14 -14 -13 -12 -11 -13 -16 -17
-0 -0 -0 -0 -1 -0 -0 -0 -0 -1 -1 -1 -2 -2 -2 -2 -2 -2 -2 -2 -2 -2 -2 -2 -5 -11 -17 -21 -23 -22 -17 -12 -9 -9 -10 -12 -16 -18 -18 -18 -20 -18 -19
-1 -1 -1 -1 -1 -1 -1 -2 -2 -2 -2 -2 -2 -2 -2 -2 -2 -3 -7 -16 -19 -20 -19 -20 -22 -24 -25 -21 -18 -16 -10 -9 -9 -10 -12 -17 -17 -19 -19 -15 -15 -13 -12
-1 -1 -2 -2 -2 -2 -2 -2 -2 -4 -7 -12 -16 -17 -17 -19 -20 -22 -23 -24 -24 -23 -22 -21 -22 -21 -21 -21 -21 -18 -15 -14 -15 -17 -21 -20 -19 -17 -12 -12 -11 -11 -11
-2 -2 -2 -3 -4 -6 -8 -11 -15 -17 -18 -20 -20 -21 -21 -21 -23 -26 -28 -27 -25 -23 -21 -20 -19 -21 -21 -21 -21 -21 -20 -21 -22 -21 -20 -19 -14 -12 -12 -11 -11 -11 -10
-7 -10 -12 -13 -14 -15 -15 -16 -17 -19 -20 -21 -22 -23 -24 -26 -27 -26 -25 -24 -23 -23 -22 -22 -21 -20 -21 -22 -22 -23 -22 -22 -22 -20 -17 -13 -12 -11 -11 -11 -10 -10 -11
-12 -15 -15 -15 -15 -16 -17 -19 -20 -21 -21 -22 -23 -25 -27 -27 -26 -24 -23 -23 -22 -20 -19 -18 -21 -20 -21 -21 -21 -20 -21 -20 -17 -14 -12 -12 -11 -11 -10 -10 -10 -10 -10
-14 -15 -15 -16 -16 -17 -19 -21 -22 -22 -23 -24 -25 -28 -29 -28 -27 -27 -25 -25 -24 -22 -22 -21 -21 -20 -21 -21 -20 -19 -18 -14 -12 -12 -11 -11 -11 -10 -10 -9 -9 -9 -9
-14 -16 -16 -16 -17 -18 -20 -21 -22 -22 -23 -24 -27 -30 -29 -28 -26 -24 -24 -23 -22 -21 -21 -20 -20 -20 -20 -20 -20 -19 -16 -13 -11 -11 -11 -10 -10 -10 -9 -9 -9 -9 -9
-13 -16 -16 -16 -16 -18 -20 -21 -22 -22 -23 -26 -29 -29 -27 -25 -24 -23 -22 -22 -21 -20 -19 -20 -20 -21 -21 -21 -20 -18 -15 -11 -11 -11 -10 -10 -10 -10 -9 -9 -9 -9 -9
-12 -15 -16 -16 -16 -17 -20 -21 -22 -22 -24 -28 -29 -26 -24 -23 -22 -22 -21 -21 -20 -20 -19 -20 -20 -20 -21 -20 -19 -17 -15 -12 -11 -11 -11 -10 -10 -10 -10 -9 -9 -9 -9
-10 -15 -16 -16 -16 -17 -19 -21 -22 -22 -26 -29 -27 -23 -22 -22 -22 -21 -20 -19 -20 -20 -20 -20 -20 -20 -21 -20 -20 -18 -16 -14 -12 -11 -11 -12 -11 -11 -11 -10 -9 -9 -10
-9 -13 -16 -16 -16 -16 -19 -21 -22 -23 -29 -29 -24 -22 -22 -22 -22 -21 -20 -20 -20 -20 -20 -20 -21 -21 -20 -20 -20 -19 -18 -17 -15 -15 -14 -14 -13 -13 -12 -9 -10 -9 -9
-8 -12 -16 -16 -16 -16 -19 -21 -22 -24 -29 -26 -23 -22 -22 -22 -22 -22 -22 -21 -20 -20 -20 -21 -21 -20 -20 -20 -20 -20 -19 -18 -17 -17 -16 -15 -13 -11 -9 -9 -9 -9 -10
-5 -10 -15 -16 -16 -16 -18 -21 -22 -27 -28 -24 -23 -22 -22 -22 -22 -22 -21 -21 -20 -20 -20 -21 -21 -21 -21 -20 -20 -19 -19 -18 -17 -16 -14 -11 -9 -9 -9 -10 -10 -10 -10
-5 -10 -14 -16 -16 -16 -18 -21 -22 -28 -26 -23 -22 -21 -21 -21 -21 -21 -21 -21 -21 -21 -21 -21 -21 -21 -20 -20 -19 -19 -17 -15 -12 -10 -9 -8 -9 -9 -9 -9 -9 -10 -10
-2 -9 -14 -16 -16 -15 -18 -21 -22 -28 -25 -23 -21 -19 -19 -19 -19 -19 -20 -20 -21 -21 -21 -20 -20 -19 -18 -17 -15 -13 -10 -9 -8 -8 -8 -9 -9 -9 -9 -10 -10 -10 -10
-3 -10 -13 -16 -15 -15 -17 -21 -24 -28 -24 -22 -20 -18 -17 -17 -17 -17 -16 -16 -16 -16 -16 -15 -14 -13 -12 -10 -9 -8 -8 -8 -8 -9 -9 -9 -10 -10 -10 -9 -9 -9 -9
-5 -10 -13 -15 -15 -15 -17 -20 -25 -27 -24 -21 -18 -16 -15 -15 -13 -11 -10 -10 -10 -10 -10 -10 -10 -9 -9 -8 -8 -8 -8 -8 -9 -9 -9 -9 -9 -9 -9 -9 -9 -9 -9

GFSGL_850_dewp_045.txt.gz
Dewpoint
1 1 1 2 4 5 5 4 1 -0 -1 -1 -1 -1 -1 2 5 5 4 6 7 7 7 7 7 7 7 7 7 5 5 5 4 4 3 3 2 2 3 1 1 1 0
1 2 2 2 4 5 4 4 3 1 -0 -0 -0 -1 -1 -1 2 5 6 6 6 5 5 5 6 6 5 5 6 5 5 3 2 2 2 2 2 1 2 1 1 0 -1
2 2 2 2 2 3 3 3 3 2 2 2 1 1 1 0 0 2 3 3 3 5 5 5 5 5 4 4 4 4 3 2 1 1 1 1 1 1 1 -1 -1 -1 -2
1 1 1 2 2 2 3 3 3 3 2 2 2 2 2 2 2 3 2 3 3 4 4 4 4 4 4 3 2 2 2 1 1 0 1 0 0 0 -1 -1 -2 -2 -2
0 0 1 1 2 2 2 2 2 2 2 2 2 2 2 2 2 2 3 3 3 3 3 3 3 2 1 1 0 -0 -0 -0 -0 -0 -0 -0 -1 -1 -2 -2 -3 -10 -14
0 0 0 1 2 2 2 2 2 2 2 2 2 2 2 1 1 0 1 1 1 1 1 0 0 -0 -0 -1 -1 -1 -2 -1 -2 -1 -2 -2 -2 -3 -7 -12 -12 -13 -12
0 0 0 1 1 1 1 1 1 1 1 1 0 -0 -0 -1 -1 -1 -1 -1 -1 -1 -1 -1 -1 -1 -1 -1 -1 -2 -2 -3 -3 -4 -5 -8 -12 -12 -12 -11 -10 -10 -10
0 0 0 0 1 0 1 1 0 -0 -1 -1 -1 -1 -1 -2 -2 -2 -2 -2 -2 -1 -1 -2 -2 -2 -2 -2 -2 -4 -9 -14 -17 -17 -15 -13 -13 -12 -12 -12 -12 -13 -15
0 -0 -0 -0 -0 -0 -0 -0 -1 -2 -2 -2 -2 -2 -2 -2 -2 -2 -3 -3 -4 -4 -5 -9 -13 -18 -22 -24 -25 -24 -21 -15 -13 -10 -10 -11 -11 -12 -10 -13 -15 -16 -18
-1 -1 -1 -1 -1 -1 -2 -2 -2 -2 -2 -4 -6 -8 -11 -16 -20 -21 -22 -21 -22 -22 -24 -25 -25 -26 -24 -23 -23 -20 -18 -13 -9 -8 -9 -10 -15 -18 -15 -16 -16 -13 -11
-2 -2 -2 -2 -2 -2 -2 -3 -7 -14 -18 -19 -19 -20 -20 -22 -23 -25 -28 -28 -28 -28 -25 -23 -21 -21 -22 -21 -20 -19 -16 -13 -17 -17 -19 -21 -19 -19 -16 -12 -11 -11 -11
-2 -2 -2 -3 -5 -7 -11 -16 -17 -19 -21 -21 -21 -22 -23 -24 -27 -27 -28 -27 -27 -25 -23 -21 -20 -20 -20 -21 -21 -21 -22 -21 -21 -22 -22 -20 -18 -14 -12 -12 -11 -11 -11
-5 -8 -10 -12 -14 -16 -17 -18 -20 -21 -22 -22 -22 -23 -24 -26 -26 -25 -25 -25 -24 -23 -22 -21 -19 -19 -20 -21 -21 -21 -21 -21 -21 -21 -19 -15 -12 -12 -12 -11 -11 -10 -10
-12 -14 -15 -15 -16 -17 -18 -19 -21 -22 -22 -23 -24 -26 -28 -29 -28 -26 -25 -24 -23 -23 -23 -22 -22 -21 -20 -20 -21 -20 -20 -19 -17 -15 -12 -12 -11 -11 -11 -10 -10 -10 -10
-14 -15 -16 -16 -16 -17 -19 -20 -22 -22 -23 -23 -25 -28 -30 -29 -27 -26 -25 -24 -23 -22 -22 -22 -21 -21 -21 -21 -20 -19 -19 -16 -13 -12 -11 -11 -11 -10 -10 -10 -10 -10 -9
-13 -16 -16 -16 -16 -17 -19 -20 -21 -22 -22 -23 -26 -30 -30 -27 -25 -24 -23 -22 -22 -21 -21 -20 -21 -21 -21 -21 -20 -20 -19 -17 -14 -11 -11 -10 -10 -10 -10 -10 -9 -9 -9
-11 -15 -16 -16 -16 -17 -18 -20 -21 -22 -23 -24 -28 -30 -27 -24 -23 -23 -22 -22 -22 -21 -21 -20 -21 -21 -21 -21 -21 -20 -19 -17 -12 -11 -11 -11 -11 -11 -10 -10 -10 -10 -9
-9 -12 -16 -16 -16 -16 -17 -20 -21 -22 -22 -24 -29 -28 -25 -24 -23 -23 -22 -21 -20 -20 -20 -20 -21 -20 -20 -21 -21 -21 -19 -18 -15 -13 -12 -11 -12 -12 -12 -12 -11 -11 -10
-6 -10 -14 -16 -16 -16 -17 -19 -21 -21 -22 -26 -29 -26 -24 -23 -23 -22 -22 -21 -21 -21 -21 -21 -20 -21 -21 -21 -21 -21 -20 -19 -18 -16 -15 -15 -15 -15 -14 -13 -13 -11 -10
-4 -8 -11 -15 -16 -16 -16 -18 -20 -21 -22 -28 -28 -24 -24 -24 -23 -23 -23 -22 -22 -22 -21 -21 -21 -21 -21 -21 -21 -21 -21 -20 -19 -18 -17 -17 -16 -16 -14 -12 -10 -10 -10
-4 -2 -8 -14 -16 -16 -16 -17 -20 -21 -22 -29 -26 -24 -23 -23 -23 -23 -23 -22 -22 -22 -22 -21 -22 -21 -21 -21 -21 -21 -20 -20 -19 -18 -17 -16 -15 -12 -9 -9 -9 -9 -10
-4 -1 -2 -11 -15 -16 -16 -16 -19 -21 -23 -28 -25 -23 -22 -22 -22 -22 -22 -22 -22 -22 -22 -22 -22 -22 -21 -21 -21 -20 -20 -19 -17 -15 -12 -10 -9 -9 -9 -9 -9 -9 -9
-3 -1 -2 -10 -14 -16 -16 -16 -18 -21 -24 -28 -24 -22 -20 -20 -20 -20 -20 -21 -21 -21 -21 -21 -21 -20 -19 -19 -18 -17 -15 -13 -10 -8 -8 -9 -9 -9 -9 -9 -9 -10 -10
-1 -1 -2 -5 -13 -15 -16 -16 -18 -21 -24 -27 -24 -21 -19 -18 -18 -18 -17 -16 -16 -15 -15 -15 -14 -14 -14 -13 -12 -10 -9 -8 -8 -8 -8 -9 -9 -10 -10 -10 -9 -9 -9
-2 -2 -2 -3 -13 -15 -15 -16 -17 -20 -25 -27 -23 -20 -17 -16 -15 -14 -12 -10 -10 -10 -10 -10 -10 -10 -10 -9 -9 -8 -8 -8 -9 -9 -9 -10 -10 -10 -10 -9 -9 -9 -9
-3 -3 -2 -6 -13 -15 -15 -15 -17 -20 -26 -26 -23 -19 -16 -14 -13 -11 -10 -9 -9 -9 -9 -9 -9 -9 -8 -8 -8 -8 -8 -9 -9 -9 -10 -9 -9 -9 -9 -9 -9 -9 -9

GFSGL_850_dewp_051.txt.gz
Dewpoint
2 2 1 1 1 2 3 3 3 2 3 1 1 1 0 0 0 0 0 1 2 3 4 4 5 5 5 6 6 6 5 5 4 4 4 4 4 3 3 2 0 -0 0
2 1 1 1 2 2 3 3 3 2 2 2 1 1 0 0 -0 -0 -0 -0 -0 1 3 5 4 4 4 4 4 4 4 3 4 3 3 3 2 2 2 -0 -1 -1 -1
1 1 1 1 2 2 2 3 2 2 2 2 2 2 2 2 1 1 1 1 1 1 1 1 1 2 3 3 3 3 3 2 2 2 2 1 1 1 1 -0 -0 -0 -1
1 1 1 1 1 2 2 2 2 2 2 2 2 2 2 1 1 1 1 2 2 2 2 2 2 2 2 2 2 2 2 1 1 0 0 -0 -0 -0 -0 -1 -1 -2 -2
1 1 0 1 1 1 2 2 2 2 2 1 2 1 1 1 1 1 1 1 1 1 1 2 2 1 1 1 0 0 0 -0 -0 -0 -1 -1 -1 -1 -1 -2 -2 -2 -2
-0 -0 -0 -0 0 1 2 2 2 2 2 2 2 1 0 -0 -1 -1 -1 -1 -1 -1 -1 -1 -1 -1 -1 -1 -1 -1 -1 -1 -1 -1 -1 -2 -2 -2 -3 -3 -3 -4 -6
-1 -1 -1 -1 -0 1 2 1 1 1 1 1 0 -0 -1 -2 -2 -2 -2 -2 -2 -2 -2 -2 -2 -2 -2 -2 -2 -2 -2 -2 -3 -3 -3 -4 -4 -7 -9 -11 -11 -11 -12
-0 -0 -1 -1 -0 -0 1 1 1 0 -0 -1 -2 -2 -2 -3 -7 -14 -18 -21 -23 -22 -22 -22 -21 -21 -23 -25 -26 -25 -24 -23 -21 -21 -21 -18 -16 -15 -14 -14 -14 -14 -14
-0 -1 0 -1 -1 -0 0 0 -0 -1 -2 -2 -4 -10 -19 -22 -23 -25 -27 -29 -30 -30 -30 -29 -28 -27 -25 -27 -26 -26 -24 -23 -19 -16 -14 -11 -11 -11 -11 -13 -16 -19 -18
-0 0 -0 -1 -1 -0 -1 -2 -2 -2 -6 -16 -21 -22 -24 -25 -27 -30 -31 -31 -31 -30 -29 -27 -26 -25 -25 -25 -26 -24 -23 -22 -20 -17 -15 -14 -14 -15 -16 -18 -18 -17 -16
-1 -1 -0 -0 -0 -1 -2 -2 -7 -17 -20 -21 -23 -24 -25 -28 -29 -31 -31 -29 -28 -28 -26 -25 -24 -24 -24 -24 -23 -23 -22 -21 -21 -23 -23 -23 -23 -22 -20 -19 -18 -14 -12
-2 -1 -2 -2 -2 -2 -4 -14 -18 -21 -21 -22 -23 -25 -26 -29 -30 -29 -29 -27 -27 -26 -24 -24 -23 -24 -24 -23 -23 -22 -22 -23 -23 -23 -23 -22 -21 -20 -17 -14 -13 -12 -12
-2 -2 -3 -3 -4 -10 -16 -18 -20 -21 -22 -23 -23 -25 -27 -29 -29 -28 -27 -26 -25 -25 -24 -23 -22 -22 -22 -22 -22 -22 -23 -22 -22 -21 -21 -19 -17 -14 -13 -12 -12 -12 -11
-4 -5 -8 -10 -13 -17 -18 -19 -20 -21 -22 -23 -23 -24 -27 -29 -29 -28 -26 -25 -24 -23 -23 -22 -21 -21 -22 -22 -22 -22 -22 -21 -20 -19 -16 -14 -13 -12 -12 -11 -11 -10 -10
-7 -10 -12 -14 -16 -16 -17 -18 -20 -21 -22 -23 -23 -24 -27 -29 -28 -26 -25 -24 -24 -23 -23 -22 -21 -21 -22 -22 -22 -22 -22 -21 -21 -19 -18 -15 -12 -12 -11 -11 -10 -10 -10
-9 -12 -14 -16 -16 -16 -17 -18 -20 -21 -22 -22 -23 -23 -28 -29 -27 -25 -24 -24 -24 -22 -23 -23 -22 -22 -22 -22 -22 -22 -22 -22 -21 -20 -18 -14 -12 -12 -12 -11 -11 -11 -11
-9 -12 -14 -16 -16 -16 -17 -18 -19 -20 -20 -21 -22 -23 -27 -29 -26 -25 -25 -25 -25 -24 -23 -22 -22 -22 -22 -22 -22 -22 -23 -22 -22 -21 -19 -17 -15 -14 -13 -12 -13 -13 -14
-5 -8 -11 -14 -16 -16 -16 -17 -17 -18 -19 -20 -21 -22 -26 -28 -25 -24 -25 -25 -24 -23 -23 -23 -23 -23 -23 -23 -23 -23 -23 -23 -22 -22 -21 -20 -19 -17 -17 -16 -16 -16 -16
-1 -4 -7 -10 -13 -15 -15 -16 -16 -16 -18 -20 -21 -22 -24 -28 -25 -24 -24 -25 -25 -24 -24 -23 -23 -24 -24 -24 -23 -23 -23 -23 -22 -22 -22 -21 -20 -19 -18 -18 -17 -16 -15
1 -0 -2 -5 -9 -12 -15 -15 -15 -16 -17 -19 -20 -21 -24 -27 -25 -23 -23 -24 -24 -24 -24 -24 -24 -24 -23 -23 -23 -23 -23 -22 -22 -21 -21 -20 -19 -19 -18 -16 -14 -11 -9
1 1 -0 -0 -6 -7 -10 -14 -15 -15 -16 -17 -19 -21 -23 -27 -25 -23 -22 -22 -23 -23 -23 -24 -24 -24 -23 -23 -23 -22 -22 -21 -20 -19 -18 -17 -16 -13 -11 -9 -9 -9 -9
1 1 0 0 -0 -1 -2 -6 -11 -15 -15 -16 -18 -21 -22 -27 -25 -22 -20 -20 -20 -20 -20 -20 -19 -18 -17 -17 -17 -16 -15 -14 -13 -12 -11 -10 -9 -8 -8 -9 -9 -9 -9
0 -0 -0 -0 -1 -1 -2 -2 -5 -14 -15 -16 -17 -20 -21 -26 -25 -22 -20 -18 -17 -16 -14 -12 -11 -10 -10 -10 -10 -9 -9 -9 -9 -9 -9 -9 -9 -9 -9 -9 -10 -10 -10
-1 -0 -1 -1 -1 -2 -2 -3 -3 -4 -11 -16 -17 -19 -21 -26 -25 -23 -19 -17 -15 -13 -12 -10 -9 -9 -9 -9 -9 -9 -9 -9 -9 -9 -9 -9 -9 -10 -10 -10 -10 -10 -10
-1 -1 -1 -1 -2 -2 -2 -3 -3 -3 -7 -14 -14 -18 -21 -26 -26 -23 -19 -16 -14 -13 -12 -10 -9 -9 -9 -9 -10 -10 -10 -10 -10 -10 -10 -11 -11 -11 -11 -11 -11 -11 -10
-3 -2 -2 -2 -3 -3 -3 -4 -3 -4 -5 -5 -15 -18 -21 -26 -26 -23 -19 -16 -14 -13 -12 -11 -9 -9 -9 -10 -11 -11 -11 -11 -11 -11 -11 -11 -11 -10 -10 -10 -10 -10 -10

GFSGL_850_dewp_054.txt.gz
Dewpoint
1 1 1 1 1 1 1 2 2 2 2 2 1 0 0 0 0 0 1 1 2 3 4 4 4 4 6 4 4 5 5 4 4 4 3 3 2 2 3 3 2 2 1
1 1 1 1 1 1 2 3 3 3 2 2 2 1 1 1 1 0 0 0 0 1 1 2 3 2 3 3 3 3 3 3 3 2 2 2 2 2 2 2 1 0 -0
1 1 1 1 1 2 2 2 2 2 2 2 2 2 2 2 2 1 1 1 1 1 1 1 2 2 2 2 2 2 2 2 1 2 1 2 1 1 1 1 0 -1 -1
0 0 1 1 1 1 2 2 2 2 2 2 2 2 2 1 1 1 1 1 2 2 2 2 2 2 2 1 1 1 1 1 1 1 0 0 0 0 0 -0 -1 -1 -1
0 1 1 1 1 1 1 2 2 2 2 2 1 1 1 1 1 1 1 1 1 1 1 0 0 -0 0 0 0 -0 -0 -0 -0 -1 -0 -0 -1 -1 -1 -1 -1 -2 -2
1 0 -0 -0 0 0 1 2 2 2 2 2 2 1 0 -1 -1 -1 -1 -1 -1 -1 -1 -1 -1 -1 -1 -1 -1 -1 -2 -2 -2 -2 -2 -2 -2 -3 -3 -3 -4 -4 -5
0 -0 -0 -0 -1 -0 -0 0 1 1 1 1 0 -0 -1 -2 -2 -2 -2 -4 -8 -11 -12 -14 -15 -14 -17 -21 -22 -20 -15 -16 -19 -18 -16 -15 -12 -13 -13 -14 -15 -15 -15
-0 -1 -1 -1 -1 -0 -1 -0 -0 1 0 -0 -1 -2 -2 -4 -14 -23 -25 -26 -28 -29 -30 -31 -30 -28 -28 -28 -29 -27 -26 -25 -24 -23 -20 -18 -16 -15 -15 -15 -15 -16 -18
-0 -1 -1 -1 -1 -1 -0 -0 0 -0 -1 -2 -3 -11 -21 -24 -26 -28 -31 -32 -32 -32 -31 -29 -28 -26 -26 -29 -27 -27 -26 -25 -23 -22 -20 -16 -13 -11 -12 -15 -16 -18 -22
-0 -1 -1 -1 -1 -0 0 0 -1 -2 -3 -10 -21 -23 -25 -27 -30 -32 -32 -31 -29 -29 -28 -27 -25 -25 -26 -25 -26 -25 -25 -24 -23 -20 -20 -21 -23 -22 -22 -22 -21 -20 -19
-0 -0 -0 -1 -1 0 -1 -2 -2 -8 -18 -22 -24 -24 -26 -28 -29 -30 -30 -29 -28 -28 -27 -26 -25 -25 -26 -25 -25 -24 -23 -24 -22 -23 -24 -24 -24 -23 -22 -21 -20 -17 -14
-1 -1 -0 -0 -0 -1 -2 -3 -15 -19 -21 -22 -23 -24 -26 -28 -29 -29 -29 -28 -28 -27 -26 -26 -25 -25 -26 -25 -24 -23 -23 -24 -23 -23 -23 -23 -23 -21 -18 -15 -13 -12 -12
-2 -2 -1 -1 -2 -2 -5 -16 -20 -21 -22 -22 -23 -24 -25 -28 -28 -29 -27 -26 -26 -26 -26 -26 -25 -24 -23 -23 -23 -23 -23 -23 -23 -23 -22 -21 -18 -15 -14 -13 -12 -12 -12
-2 -3 -3 -3 -3 -7 -15 -18 -19 -21 -21 -22 -23 -23 -24 -27 -29 -28 -27 -26 -25 -25 -25 -25 -23 -23 -22 -23 -23 -23 -23 -23 -23 -23 -22 -20 -17 -15 -13 -12 -12 -12 -11
-3 -4 -4 -6 -7 -13 -16 -17 -19 -20 -21 -22 -22 -23 -24 -27 -29 -28 -26 -26 -26 -25 -26 -24 -23 -24 -23 -23 -23 -23 -23 -23 -23 -23 -22 -20 -17 -14 -13 -12 -12 -12 -11
-4 -6 -7 -9 -12 -14 -16 -16 -18 -19 -21 -22 -22 -22 -23 -26 -29 -27 -26 -26 -26 -26 -24 -24 -23 -24 -24 -23 -23 -23 -23 -23 -23 -23 -23 -21 -19 -17 -15 -14 -13 -12 -12
-5 -7 -10 -12 -12 -15 -16 -17 -17 -18 -20 -20 -21 -21 -22 -23 -29 -27 -25 -25 -26 -26 -25 -23 -23 -23 -23 -23 -23 -23 -23 -23 -23 -23 -23 -22 -22 -20 -19 -18 -17 -16 -16
-3 -6 -8 -11 -13 -15 -16 -16 -16 -17 -18 -18 -19 -20 -21 -22 -27 -27 -25 -24 -24 -25 -25 -25 -24 -24 -24 -24 -24 -24 -23 -23 -23 -23 -22 -22 -21 -21 -20 -19 -19 -18 -18
1 -1 -3 -6 -10 -12 -15 -15 -15 -16 -16 -16 -17 -19 -21 -21 -24 -27 -25 -23 -23 -24 -25 -25 -25 -25 -24 -24 -24 -24 -23 -23 -23 -23 -22 -22 -21 -20 -20 -19 -18 -17 -15
2 2 1 -1 -4 -7 -10 -13 -15 -15 -15 -16 -16 -18 -20 -21 -22 -26 -25 -23 -22 -22 -23 -24 -24 -24 -24 -24 -24 -24 -23 -22 -22 -21 -20 -19 -18 -17 -17 -15 -13 -11 -9
1 1 2 1 1 0 -4 -7 -11 -13 -15 -15 -15 -17 -19 -20 -21 -25 -26 -23 -21 -20 -20 -21 -20 -20 -20 -19 -18 -17 -17 -16 -15 -13 -13 -12 -12 -11 -10 -9 -9 -9 -9
1 1 1 1 1 0 -0 -1 -2 -2 -10 -13 -15 -16 -18 -19 -20 -24 -26 -23 -21 -19 -18 -17 -15 -13 -11 -10 -10 -10 -10 -9 -9 -9 -9 -9 -9 -9 -9 -9 -9 -9 -10
1 1 1 1 0 -0 -0 -1 -1 -2 -2 -3 -9 -14 -17 -18 -20 -23 -26 -24 -21 -19 -17 -15 -13 -12 -10 -9 -9 -9 -9 -9 -9 -9 -9 -10 -10 -10 -10 -10 -10 -10 -11
-1 -1 -1 -0 -0 -1 -1 -1 -2 -2 -2 -3 -5 -6 -15 -17 -19 -22 -26 -25 -22 -18 -16 -14 -12 -12 -11 -10 -9 -9 -9 -10 -11 -11 -11 -10 -11 -11 -11 -11 -11 -11 -11
-2 -1 -1 -1 -1 -2 -2 -2 -2 -2 -3 -3 -4 -5 -8 -13 -17 -22 -26 -26 -22 -19 -16 -14 -13 -12 -11 -10 -9 -9 -10 -10 -10 -11 -11 -12 -12 -11 -11 -11 -11 -11 -10
-1 -1 -2 -2 -3 -3 -3 -3 -3 -3 -3 -4 -4 -4 -5 -13 -19 -17 -24 -17 -21 -19 -18 -16 -14 -12 -11 -10 -9 -9 -10 -10 -11 -11 -11 -11 -11 -11 -10 -10 -10 -10 -10

GFSGL_850_dewp_057.txt.gz
Dewpoint
2 1 1 1 1 1 1 1 1 1 1 1 1 1 1 0 0 1 1 2 2 3 4 4 4 5 6 5 4 4 4 4 4 3 3 2 2 2 1 1 2 2 1
2 1 1 1 1 1 1 2 2 2 2 2 2 2 1 1 1 1 1 1 1 1 2 2 1 1 2 3 3 3 3 3 2 2 2 2 2 1 1 1 1 1 2
1 1 1 1 1 1 1 2 2 2 2 2 2 2 2 2 2 2 2 1 1 1 1 1 1 2 2 2 2 1 1 1 1 1 1 1 0 0 0 0 0 0 0
1 1 -0 0 1 1 1 2 2 2 2 2 2 2 2 2 1 1 1 1 1 2 2 2 1 2 2 1 1 1 1 1 1 0 0 -0 -0 -0 -0 -0 0 -0 -1
0 -0 -0 1 1 1 1 1 2 2 2 2 1 1 1 1 1 1 1 1 1 1 1 0 -0 -1 -0 -0 -0 -0 -1 -1 -1 -1 -1 -1 -1 -1 -1 -2 -2 -2 -2
-1 -0 1 0 0 0 1 1 1 2 2 2 1 1 0 -0 -1 -1 -1 -1 -1 -1 -2 -3 -3 -3 -4 -4 -4 -6 -7 -5 -4 -3 -3 -3 -4 -4 -4 -5 -7 -9 -11
-1 0 0 0 -0 -0 0 -0 0 1 1 1 1 0 -1 -2 -2 -2 -2 -6 -14 -16 -20 -24 -24 -25 -28 -28 -28 -29 -29 -29 -29 -27 -24 -23 -22 -21 -21 -20 -19 -19 -18
-1 -0 -0 -0 -1 -1 -0 -0 -0 -0 0 1 -0 -1 -2 -3 -13 -23 -26 -27 -29 -31 -31 -30 -30 -30 -29 -29 -29 -28 -27 -26 -25 -25 -24 -22 -21 -20 -18 -18 -18 -19 -20
-0 -0 -0 -1 -1 -0 -1 -1 -1 -1 -1 -1 -2 -6 -20 -24 -26 -30 -31 -31 -30 -29 -28 -27 -28 -27 -27 -28 -27 -26 -25 -25 -24 -24 -24 -24 -23 -22 -22 -21 -20 -22 -23
-0 -0 -0 -1 -1 -1 -1 -1 -1 -1 -1 -3 -12 -23 -25 -27 -31 -32 -31 -29 -28 -28 -27 -26 -25 -26 -26 -27 -26 -25 -25 -24 -23 -23 -24 -24 -25 -25 -25 -24 -23 -22 -21
-0 -0 -1 -1 -1 -1 -1 -1 -1 -2 -6 -18 -23 -24 -26 -28 -29 -30 -30 -28 -28 -27 -26 -25 -25 -25 -25 -25 -26 -25 -25 -25 -25 -25 -25 -25 -25 -24 -23 -23 -20 -17 -14
-1 -1 -1 -1 -1 -1 -1 -2 -2 -9 -19 -22 -23 -23 -25 -27 -28 -29 -29 -28 -27 -27 -25 -25 -26 -26 -25 -24 -24 -24 -24 -24 -24 -24 -24 -24 -23 -22 -19 -16 -14 -13 -13
-2 -1 -1 -1 -1 -1 -2 -2 -13 -18 -19 -21 -22 -23 -24 -26 -27 -28 -27 -27 -27 -26 -26 -25 -26 -25 -24 -23 -23 -24 -24 -24 -24 -24 -24 -23 -20 -17 -15 -14 -13 -13 -12
-2 -2 -1 -1 -1 -2 -2 -10 -18 -20 -21 -22 -22 -23 -23 -24 -26 -27 -27 -26 -25 -25 -26 -25 -24 -24 -24 -24 -23 -24 -23 -24 -24 -24 -24 -23 -21 -18 -15 -13 -13 -13 -12
-3 -2 -2 -3 -3 -3 -8 -16 -18 -19 -20 -21 -22 -22 -23 -23 -26 -28 -28 -26 -26 -26 -28 -24 -23 -24 -24 -24 -24 -24 -24 -24 -24 -25 -25 -24 -22 -19 -17 -15 -14 -13 -13
-3 -4 -4 -4 -5 -7 -13 -16 -17 -18 -20 -20 -21 -22 -22 -23 -24 -28 -28 -26 -26 -26 -26 -23 -23 -24 -25 -25 -24 -24 -24 -24 -24 -24 -24 -24 -23 -22 -21 -19 -18 -17 -16
-1 -4 -5 -6 -8 -11 -14 -16 -17 -17 -18 -19 -20 -21 -21 -22 -22 -25 -28 -26 -25 -24 -24 -24 -24 -25 -25 -25 -24 -24 -24 -24 -24 -24 -23 -23 -23 -22 -22 -21 -20 -20 -19
2 -1 -4 -7 -10 -12 -14 -15 -16 -16 -16 -18 -18 -19 -19 -20 -21 -22 -27 -26 -24 -23 -23 -24 -25 -25 -25 -25 -25 -25 -24 -24 -24 -23 -23 -22 -22 -22 -21 -21 -20 -19 -19
3 2 -1 -4 -7 -9 -11 -14 -15 -15 -15 -16 -16 -17 -17 -19 -21 -21 -23 -26 -25 -23 -22 -23 -24 -24 -25 -25 -24 -24 -24 -23 -23 -22 -22 -21 -20 -20 -19 -18 -17 -16 -15
2 2 2 1 -1 -2 -5 -8 -12 -14 -15 -15 -16 -16 -15 -17 -19 -21 -21 -25 -25 -23 -21 -21 -21 -21 -21 -21 -20 -19 -18 -17 -16 -15 -15 -14 -13 -12 -12 -11 -11 -10 -9
2 2 2 2 1 1 0 -0 -1 -3 -5 -10 -14 -14 -14 -15 -18 -19 -21 -23 -25 -24 -21 -20 -19 -18 -17 -15 -13 -11 -10 -10 -10 -9 -9 -9 -9 -9 -9 -9 -9 -9 -9
2 2 1 1 1 1 1 1 0 -0 -1 -1 -2 -4 -8 -13 -10 -18 -20 -21 -25 -24 -22 -19 -17 -16 -14 -12 -10 -10 -9 -9 -9 -9 -9 -10 -10 -10 -10 -10 -10 -10 -10
1 1 1 1 1 1 0 0 -0 -0 -1 -1 -2 -3 -4 -5 -7 -16 -18 -20 -25 -25 -22 -20 -17 -15 -13 -12 -11 -10 -10 -9 -9 -10 -11 -11 -12 -11 -11 -11 -11 -12 -12
-0 0 0 0 -0 -0 -1 -1 -1 -1 -2 -2 -2 -3 -4 -4 -7 -8 -9 -20 -25 -24 -24 -20 -17 -15 -13 -13 -12 -11 -10 -9 -9 -9 -10 -10 -11 -11 -11 -12 -11 -11 -11
-2 -2 -2 -2 -1 -1 -2 -2 -2 -2 -3 -3 -3 -3 -4 -4 -5 -5 -13 -17 -16 -14 -23 -20 -18 -16 -16 -14 -13 -11 -10 -9 -9 -9 -10 -11 -11 -12 -11 -11 -11 -11 -10
-2 -1 -1 -2 -2 -3 -3 -4 -4 -4 -4 -4 -4 -4 -4 -5 -5 -5 -10 -12 -7 -15 -11 -19 -18 -19 -17 -15 -13 -11 -10 -9 -9 -9 -10 -11 -11 -11 -10 -10 -10 -10 -10

GFSGL_850_dewp_060.txt.gz
Dewpoint
1 1 1 1 1 1 1 1 1 1 1 1 1 0 1 1 0 0 1 1 2 4 6 5 6 6 5 6 6 5 5 4 4 4 4 3 2 2 2 2 0 1 2
2 2 1 1 1 1 1 1 2 2 2 2 2 1 1 1 1 1 1 1 1 1 2 3 3 2 1 1 3 4 3 3 2 2 2 2 2 1 1 1 1 0 0
2 2 1 1 1 1 1 1 2 2 2 2 2 2 2 2 2 2 1 1 1 1 1 1 1 1 1 1 2 2 2 1 1 1 1 1 1 0 0 0 0 0 0
2 2 1 1 -0 0 1 1 2 2 2 2 2 2 2 2 2 1 1 1 1 1 1 1 1 1 1 1 1 1 1 1 1 1 1 0 -0 -1 -1 -1 -1 -1 -1
2 1 1 -0 -0 0 1 1 2 2 2 2 2 2 1 1 1 1 1 1 1 1 1 1 0 -1 -1 -0 -0 -0 -0 -1 -1 -1 -1 -2 -2 -2 -2 -2 -3 -3 -4
1 1 -0 -0 0 1 1 1 1 1 2 2 2 1 1 0 0 0 0 0 -0 -1 -1 -2 -5 -9 -10 -15 -15 -13 -15 -14 -9 -7 -6 -5 -6 -8 -12 -14 -18 -21 -13
1 -0 -1 -0 0 0 0 0 -0 0 1 1 1 1 -0 -1 -1 -1 -2 -2 -4 -10 -15 -21 -25 -27 -30 -29 -30 -30 -30 -30 -30 -29 -26 -23 -21 -22 -22 -21 -20 -20 -17
1 -1 -1 0 0 -0 -0 -0 -0 0 0 0 1 -0 -1 -2 -2 -5 -15 -23 -27 -30 -32 -31 -30 -29 -27 -29 -28 -27 -26 -26 -26 -26 -25 -23 -22 -22 -21 -20 -20 -21 -21
-0 -1 -0 0 -0 -0 -0 -0 -0 -0 -0 -1 -0 -2 -3 -12 -24 -27 -30 -31 -31 -30 -29 -28 -28 -27 -27 -27 -28 -26 -25 -25 -25 -25 -25 -25 -25 -25 -25 -23 -21 -21 -17
-1 -1 -0 -0 -0 -0 -1 -0 -1 -1 -1 -1 -2 -8 -21 -25 -29 -31 -31 -29 -28 -28 -27 -26 -27 -27 -28 -28 -27 -25 -25 -24 -23 -23 -24 -24 -25 -25 -26 -25 -24 -23 -21
-1 -1 -0 -0 -0 -0 -1 -1 -1 -1 -2 -2 -7 -20 -24 -27 -30 -31 -30 -28 -26 -26 -25 -26 -26 -27 -27 -28 -27 -26 -24 -24 -24 -24 -25 -25 -25 -25 -24 -23 -21 -17 -15
-1 -1 -1 -0 -1 -1 -1 -1 -1 -1 -2 -8 -18 -22 -24 -26 -27 -29 -29 -28 -27 -25 -25 -26 -26 -27 -27 -27 -26 -25 -25 -25 -24 -24 -24 -24 -24 -24 -21 -17 -15 -14 -13
-1 -1 -1 -0 -0 -1 -1 -1 -1 -2 -8 -19 -21 -21 -22 -25 -26 -27 -28 -26 -26 -26 -25 -26 -28 -27 -26 -25 -24 -25 -25 -24 -24 -24 -24 -24 -23 -21 -18 -16 -15 -14 -13
-1 -2 -2 -1 -1 -1 -1 -1 -2 -9 -17 -20 -20 -21 -22 -23 -24 -26 -26 -26 -25 -25 -25 -25 -26 -26 -25 -25 -24 -24 -24 -24 -24 -24 -25 -24 -24 -21 -19 -16 -14 -14 -13
-1 -2 -2 -1 -1 -1 -1 -2 -6 -17 -19 -20 -21 -21 -22 -23 -23 -25 -27 -28 -25 -25 -26 -26 -24 -24 -24 -25 -25 -24 -24 -25 -25 -25 -25 -25 -24 -23 -21 -20 -18 -17 -16
-1 -2 -2 -2 -2 -2 -2 -4 -13 -17 -18 -19 -20 -21 -21 -22 -23 -23 -27 -28 -26 -25 -24 -23 -22 -24 -24 -24 -24 -25 -25 -25 -25 -25 -25 -24 -24 -23 -23 -22 -21 -20 -19
1 -0 -2 -3 -3 -4 -4 -7 -14 -16 -17 -18 -19 -20 -21 -22 -21 -22 -23 -27 -27 -24 -23 -21 -22 -24 -25 -25 -25 -25 -25 -25 -24 -24 -24 -24 -23 -23 -22 -22 -21 -21 -20
2 2 0 -2 -4 -5 -7 -9 -13 -15 -15 -16 -17 -18 -19 -20 -20 -20 -22 -23 -25 -25 -22 -21 -22 -23 -24 -25 -25 -24 -24 -24 -24 -23 -23 -23 -22 -21 -21 -20 -20 -19 -19
2 2 2 1 -1 -5 -7 -9 -11 -12 -14 -16 -16 -16 -17 -18 -17 -18 -20 -21 -22 -24 -23 -22 -21 -22 -22 -23 -23 -23 -22 -22 -21 -21 -20 -19 -19 -18 -17 -15 -14 -13 -13
2 2 2 2 1 -1 -2 -4 -8 -10 -12 -15 -15 -12 -8 -15 -15 -16 -18 -20 -21 -22 -25 -23 -21 -20 -20 -20 -20 -19 -17 -14 -12 -11 -11 -11 -11 -10 -10 -9 -9 -9 -9
2 2 2 2 1 1 0 -1 -1 -1 -0 -2 -3 -4 -11 -13 -13 -15 -16 -19 -19 -21 -24 -24 -22 -20 -19 -18 -16 -13 -11 -10 -10 -9 -9 -9 -9 -9 -9 -10 -10 -10 -10
1 1 1 1 1 1 1 1 1 0 -0 -0 -1 -1 -2 -4 -6 -9 -8 -7 -7 -20 -22 -24 -23 -20 -18 -16 -14 -12 -11 -11 -10 -9 -9 -9 -9 -10 -11 -11 -11 -11 -11
1 1 1 1 1 1 1 0 0 -0 -0 -0 -1 -1 -2 -3 -3 -4 -6 -5 -11 -14 -18 -24 -23 -21 -18 -16 -14 -12 -12 -12 -11 -10 -9 -9 -9 -10 -10 -10 -11 -11 -12
-0 0 1 0 0 0 -0 -0 -1 -1 -1 -1 -2 -2 -2 -3 -3 -4 -4 -5 -9 -7 -21 -18 -11 -10 -19 -16 -14 -14 -14 -12 -11 -10 -9 -9 -9 -9 -10 -10 -11 -11 -11
-2 -2 -1 -1 -1 -1 -1 -1 -2 -2 -2 -3 -3 -3 -3 -3 -4 -4 -4 -5 -6 -9 -11 -9 -11 -19 -12 -15 -17 -16 -15 -13 -12 -10 -9 -9 -9 -9 -11 -12 -11 -10 -10
-2 -2 -2 -2 -2 -2 -2 -2 -3 -3 -3 -4 -4 -4 -4 -4 -4 -5 -5 -6 -6 -8 -8 -6 -8 -9 -18 -17 -18 -16 -15 -14 -12 -10 -9 -9 -10 -12 -11 -10 -10 -10 -10

GFSGL_850_dewp_063.txt.gz
Dewpoint
1 1 0 -0 0 1 1 1 1 1 1 1 1 1 1 0 1 1 0 1 2 5 6 6 6 6 6 6 6 6 6 5 5 4 4 4 4 3 2 2 1 1 1
1 0 0 1 1 1 1 1 1 1 1 2 2 1 1 1 1 1 1 1 2 2 3 3 3 4 4 3 2 3 3 3 3 3 3 2 2 2 1 1 0 0 0
1 1 1 1 1 1 1 1 0 1 1 2 2 2 2 2 2 2 2 2 2 2 2 2 2 2 1 1 1 2 2 2 1 1 1 1 1 1 1 -0 0 0 0
1 1 2 1 1 1 0 -0 -0 1 1 2 2 2 2 2 2 2 2 2 2 2 2 1 1 1 1 1 1 1 1 1 1 1 1 1 0 -0 -1 -1 -1 -1 -1
1 2 2 1 1 0 -1 -0 0 1 1 2 2 2 2 2 2 1 1 1 1 1 1 1 1 1 0 0 -0 -0 -0 -0 -1 -1 -1 -1 -2 -3 -3 -3 -4 -5 -6
2 2 2 1 0 -1 -0 0 1 1 1 2 2 2 2 1 1 1 1 1 1 1 0 -1 -2 -8 -11 -13 -16 -13 -12 -15 -13 -9 -6 -3 -4 -7 -10 -15 -19 -22 -15
2 2 1 1 -0 -0 0 0 1 0 0 1 1 1 1 0 -0 0 -0 -0 -1 -2 -4 -12 -20 -25 -31 -30 -31 -32 -32 -31 -31 -29 -21 -18 -16 -18 -20 -20 -19 -20 -17
2 2 1 0 -1 -0 0 0 0 0 0 1 1 0 0 -1 -1 -1 -2 -4 -12 -19 -25 -29 -30 -29 -28 -29 -30 -30 -30 -29 -28 -27 -26 -26 -25 -23 -22 -22 -22 -23 -22
2 1 1 -1 -1 -0 -0 -0 -0 -0 -0 0 -0 -0 -1 -2 -2 -8 -19 -25 -29 -30 -29 -28 -27 -27 -27 -29 -29 -28 -27 -26 -27 -27 -27 -28 -27 -27 -26 -25 -25 -23 -22
2 1 0 -1 -0 0 -0 0 -0 -0 -0 -1 -1 -1 -2 -8 -22 -27 -30 -30 -28 -27 -27 -26 -26 -27 -29 -29 -29 -26 -25 -23 -24 -25 -26 -27 -27 -27 -27 -27 -26 -25 -23
1 1 -1 -1 -0 -0 -0 -0 -0 -0 -1 -1 -1 -3 -12 -21 -25 -31 -31 -28 -26 -26 -26 -25 -26 -27 -29 -30 -28 -26 -25 -23 -25 -26 -25 -26 -26 -27 -26 -25 -23 -20 -17
1 -1 -1 -1 -0 -0 -0 -0 -1 -1 -1 -1 -2 -7 -20 -24 -27 -30 -30 -29 -26 -26 -25 -25 -26 -27 -30 -28 -27 -26 -26 -26 -26 -25 -25 -25 -25 -25 -25 -22 -18 -16 -15
-0 -1 -1 -1 -1 -0 -0 -0 -1 -1 -2 -1 -4 -16 -22 -24 -25 -27 -28 -28 -27 -26 -24 -25 -28 -29 -28 -26 -25 -25 -26 -26 -26 -25 -25 -25 -26 -25 -23 -20 -18 -16 -15
-1 -2 -1 -1 -0 -0 -0 -1 -1 -1 -1 -2 -11 -21 -22 -23 -24 -25 -25 -26 -26 -25 -24 -24 -25 -27 -26 -26 -26 -25 -25 -25 -25 -25 -25 -25 -25 -25 -23 -21 -19 -17 -16
-0 -0 -0 -1 -1 -1 -1 -1 -1 -1 -2 -8 -18 -20 -20 -22 -22 -23 -24 -26 -26 -26 -24 -24 -25 -23 -23 -25 -25 -25 -25 -25 -25 -25 -25 -25 -24 -24 -23 -22 -21 -20 -19
1 -1 -1 -1 -1 -1 -1 -1 -1 -2 -6 -15 -18 -20 -20 -21 -21 -22 -23 -25 -28 -28 -25 -24 -22 -21 -22 -23 -24 -25 -25 -25 -25 -25 -25 -24 -24 -23 -23 -23 -22 -22 -21
2 0 -0 0 -1 -1 -1 -1 -2 -3 -10 -17 -18 -19 -19 -20 -20 -22 -22 -23 -25 -27 -26 -23 -22 -20 -21 -23 -24 -24 -24 -24 -25 -25 -24 -24 -24 -23 -23 -22 -22 -21 -20
2 2 1 -0 -0 -1 -1 -3 -3 -4 -12 -17 -18 -18 -18 -19 -20 -21 -21 -21 -22 -22 -24 -23 -22 -21 -21 -22 -23 -24 -24 -24 -24 -23 -23 -23 -22 -22 -21 -20 -19 -19 -17
3 2 1 1 0 -0 -2 -2 -4 -5 -10 -14 -15 -14 -16 -17 -18 -19 -19 -19 -19 -20 -21 -22 -23 -22 -22 -21 -21 -22 -22 -22 -21 -20 -18 -17 -16 -15 -15 -14 -12 -11 -11
2 2 1 1 1 -0 -0 -0 -2 -6 -6 -2 -2 -2 -3 -8 -13 -16 -16 -15 -16 -18 -20 -20 -22 -23 -23 -21 -20 -20 -19 -18 -16 -13 -11 -10 -10 -10 -10 -10 -10 -10 -10
1 1 1 1 1 1 0 0 -0 -1 -2 -5 -7 -9 -9 -7 -8 -4 -4 -5 -4 -13 -8 -6 -12 -23 -24 -22 -20 -18 -17 -15 -12 -11 -10 -10 -9 -9 -9 -9 -10 -11 -11
0 0 1 1 1 1 1 0 0 -0 -0 -0 -0 -1 -1 -2 -2 -2 -5 -10 -7 -9 -10 -7 -10 -18 -13 -22 -20 -18 -16 -14 -11 -11 -11 -11 -10 -9 -9 -9 -10 -10 -11
0 0 0 0 0 0 0 0 -0 -0 -0 -0 -0 -1 -1 -1 -1 -2 -2 -3 -3 -5 -5 -5 -14 -7 -18 -23 -20 -13 -16 -14 -13 -13 -12 -11 -11 -10 -9 -9 -9 -9 -10
-0 0 0 -0 -0 -0 -0 -0 -0 -1 -1 -1 -1 -1 -1 -2 -2 -2 -3 -3 -3 -4 -5 -6 -9 -7 -15 -11 -6 -18 -16 -10 -13 -14 -13 -12 -11 -10 -9 -9 -9 -9 -10
-2 -1 -1 -0 -0 -0 -1 -1 -1 -1 -1 -1 -2 -2 -2 -3 -3 -3 -3 -4 -4 -5 -5 -5 -6 -8 -9 -8 -17 -8 -11 -17 -17 -15 -14 -13 -11 -10 -9 -9 -9 -10 -11
-2 -2 -2 -2 -2 -2 -2 -2 -2 -2 -3 -3 -3 -3 -4 -4 -4 -4 -4 -4 -5 -5 -5 -6 -6 -6 -7 -7 -8 -19 -19 -18 -15 -14 -11 -12 -10 -9 -9 -9 -10 -11 -11

GFSGL_850_dewp_066.txt.gz
Dewpoint
2 1 1 1 -0 -1 -1 -1 -1 -0 0 0 0 1 1 1 0 0 -0 0 1 2 5 5 5 5 5 6 6 6 6 6 6 6 5 5 4 3 3 3 2 1 0
2 1 1 0 -0 -1 -0 0 0 1 1 1 1 1 1 1 1 1 1 1 1 1 3 4 5 5 4 4 4 5 5 5 4 4 3 3 2 2 2 1 1 0 0
2 2 1 1 0 1 1 1 1 1 0 0 1 1 1 1 1 1 2 2 2 2 2 2 3 3 3 2 1 1 2 2 2 2 2 2 1 1 1 1 -0 -1 -0
2 2 1 1 1 1 1 1 1 -0 -0 0 1 1 1 2 1 2 2 2 2 2 2 2 1 1 1 1 1 1 1 1 1 1 1 0 0 -0 -0 -1 -1 -1 -2
2 2 1 1 2 1 1 1 -0 -1 -0 0 1 1 1 2 2 2 2 2 2 2 2 2 1 1 1 1 1 0 0 0 0 -0 -1 -1 -3 -7 -7 -7 -6 -7 -11
2 2 2 2 2 1 1 -0 -1 -0 0 1 1 1 2 2 2 1 1 1 1 1 1 1 0 -0 -3 -4 -6 -9 -9 -11 -12 -9 -10 -13 -10 -11 -18 -20 -21 -24 -24
2 2 1 2 1 1 0 -1 -1 0 0 0 0 1 1 2 1 0 0 1 1 1 -0 -1 -5 -15 -24 -29 -30 -31 -32 -32 -31 -29 -23 -20 -17 -18 -20 -22 -23 -24 -25
2 2 1 1 1 1 -1 -1 -0 0 0 0 0 0 0 1 0 -1 -0 -1 -1 -2 -7 -17 -26 -29 -28 -28 -29 -29 -29 -28 -27 -27 -25 -24 -23 -24 -24 -24 -24 -25 -25
2 2 1 1 1 0 -1 -1 -0 -0 -0 0 0 0 -0 0 -1 -2 -2 -5 -14 -21 -29 -30 -27 -26 -25 -27 -29 -28 -28 -27 -27 -27 -27 -27 -27 -28 -28 -28 -28 -28 -28
2 2 1 1 1 -0 -1 -0 -0 -0 -0 -0 -0 -1 -1 -1 -2 -6 -19 -26 -29 -28 -27 -26 -25 -26 -27 -28 -29 -29 -27 -27 -25 -25 -24 -26 -27 -28 -28 -29 -28 -28 -26
2 2 1 1 0 -1 -1 -0 -0 0 -0 -0 -1 -1 -1 -3 -12 -25 -29 -30 -28 -26 -25 -24 -24 -25 -27 -28 -29 -29 -27 -26 -26 -25 -26 -27 -27 -27 -27 -27 -26 -23 -19
2 1 1 1 -1 -1 -1 -1 -0 -0 -0 -1 -1 -1 -3 -13 -22 -27 -31 -31 -28 -25 -25 -24 -24 -25 -28 -29 -29 -28 -27 -26 -26 -26 -26 -26 -26 -26 -26 -25 -22 -19 -17
1 1 1 -0 -1 -1 -1 -1 -0 -0 -1 -1 -1 -1 -4 -17 -23 -26 -27 -29 -28 -27 -26 -24 -25 -27 -28 -27 -26 -26 -28 -27 -26 -26 -26 -26 -26 -26 -25 -25 -22 -19 -17
1 0 -0 -1 -2 -1 -0 -0 -0 -1 -0 -1 -1 -2 -7 -20 -22 -23 -25 -26 -27 -26 -25 -24 -23 -24 -26 -26 -25 -25 -26 -26 -26 -26 -26 -26 -24 -25 -25 -25 -24 -21 -20
-0 -1 -1 -1 -1 -1 -1 -1 -0 -0 -1 -1 -1 -3 -12 -21 -21 -22 -23 -23 -24 -25 -26 -25 -23 -23 -23 -22 -23 -24 -26 -26 -26 -26 -26 -26 -25 -25 -25 -24 -24 -23 -22
2 1 1 1 1 0 -1 -1 -1 -1 -1 -2 -2 -5 -15 -19 -20 -21 -22 -22 -23 -25 -27 -27 -25 -24 -22 -21 -22 -23 -24 -25 -26 -26 -26 -25 -25 -25 -24 -24 -23 -23 -22
3 2 2 1 0 -0 -1 0 -0 -1 -1 -1 -3 -12 -17 -19 -20 -20 -21 -21 -22 -23 -23 -25 -25 -24 -22 -21 -22 -23 -24 -24 -25 -25 -25 -25 -24 -24 -23 -23 -22 -22 -21
2 2 2 1 1 1 0 -0 -0 -1 -2 -2 -5 -14 -18 -19 -18 -19 -19 -20 -21 -22 -22 -22 -22 -23 -23 -21 -21 -21 -22 -23 -24 -24 -23 -23 -22 -21 -20 -19 -19 -18 -16
2 2 2 2 1 1 0 -0 -1 -2 -2 -3 -6 -13 -16 -16 -16 -16 -17 -19 -20 -20 -20 -20 -20 -21 -22 -23 -23 -21 -20 -21 -22 -22 -21 -18 -15 -13 -11 -11 -11 -11 -11
1 1 2 2 1 0 0 -0 -0 -2 -2 -5 -6 -9 -13 -12 -13 -15 -15 -16 -17 -17 -17 -13 -13 -11 -18 -21 -23 -23 -20 -19 -19 -19 -16 -12 -11 -10 -10 -10 -9 -9 -9
0 0 0 1 1 1 0 0 0 -0 -0 -1 -1 -1 -2 -2 -3 -4 -3 -3 -5 -7 -6 -4 -5 -10 -5 -5 -12 -10 -14 -19 -15 -17 -13 -11 -9 -10 -10 -10 -10 -9 -9
-1 -1 -1 -0 0 1 0 0 -0 -0 -0 -0 -0 -1 -1 -1 -2 -2 -3 -3 -3 -3 -3 -9 -7 -8 -11 -6 -11 -7 -18 -8 -13 -8 -9 -7 -7 -11 -11 -10 -10 -9 -9
-1 -1 -1 -0 -0 0 -0 -0 -0 -0 -0 -0 -0 -1 -1 -1 -1 -1 -1 -2 -2 -2 -3 -4 -5 -5 -8 -6 -9 -7 -12 -10 -7 -8 -10 -7 -10 -12 -12 -11 -10 -10 -9
-1 -1 -1 -1 -1 -1 -0 -0 -0 -1 -1 -1 -1 -1 -1 -1 -1 -2 -2 -2 -3 -3 -3 -4 -4 -5 -6 -6 -7 -9 -10 -7 -11 -10 -7 -10 -14 -13 -12 -11 -11 -10 -9
-2 -2 -1 -1 -1 -1 -1 -1 -1 -1 -1 -1 -1 -1 -2 -2 -2 -2 -3 -3 -3 -4 -4 -4 -5 -5 -6 -6 -7 -7 -8 -9 -8 -8 -13 -16 -15 -14 -10 -10 -10 -9 -10
-2 -2 -2 -2 -2 -2 -2 -2 -2 -2 -2 -2 -3 -3 -3 -3 -3 -4 -4 -4 -4 -4 -5 -5 -5 -6 -6 -6 -6 -7 -7 -7 -13 -19 -15 -13 -12 -9 -10 -10 -9 -10 -10

GFSGL_850_dewp_069.txt.gz
Dewpoint
1 1 2 2 2 1 0 1 0 0 -2 -1 -1 -0 0 0 0 0 0 -0 -0 -1 -0 1 4 5 5 5 6 6 7 7 7 6 6 5 5 5 3 2 2 1 1
3 2 3 2 2 1 1 0 -0 -1 -1 -1 0 1 1 0 0 1 1 1 0 0 -0 1 3 4 4 4 5 5 5 6 6 6 5 4 4 2 2 2 1 1 -0
3 3 3 2 1 1 0 0 0 0 0 1 1 -0 0 0 1 1 1 1 2 2 2 2 2 2 2 3 3 2 2 3 3 3 3 3 2 2 1 1 1 -0 -1
3 3 2 2 2 1 1 1 1 1 1 0 -0 -0 0 1 1 2 2 2 2 2 2 2 2 2 2 2 2 1 1 1 1 2 2 1 1 0 0 -0 -1 -1 -1
3 3 2 2 1 1 1 1 1 1 0 -1 -1 -0 1 1 1 2 2 2 2 2 2 2 2 2 1 1 1 1 1 1 1 0 0 -0 -2 -4 -8 -6 -5 -6 -9
2 2 2 2 1 1 2 1 1 0 -1 -1 -0 0 1 1 1 2 2 2 1 1 1 2 1 1 1 -0 -0 -1 -2 -3 -4 -5 -3 -8 -12 -11 -12 -15 -20 -22 -24
3 2 2 2 1 1 1 1 1 -1 -1 -0 -0 0 1 0 0 2 1 1 1 1 1 1 0 -2 -10 -18 -25 -29 -31 -31 -32 -27 -22 -18 -18 -18 -16 -22 -25 -26 -25
3 2 2 2 1 1 1 1 -0 -1 -1 -0 0 0 0 0 -0 1 0 0 0 0 -0 -1 -6 -18 -28 -27 -28 -28 -28 -27 -27 -27 -26 -25 -24 -23 -22 -24 -25 -25 -25
3 2 2 2 1 1 1 1 -1 -1 -1 -1 -0 -0 0 0 -0 -0 -1 -1 -1 -2 -7 -17 -26 -26 -25 -25 -26 -27 -27 -26 -25 -27 -28 -28 -28 -27 -28 -28 -28 -28 -27
3 2 2 2 2 1 1 0 -1 -1 -1 -0 -0 -0 -0 -0 -0 -1 -2 -5 -13 -21 -28 -27 -26 -25 -25 -26 -27 -28 -26 -25 -24 -24 -24 -26 -27 -27 -28 -29 -28 -28 -27
3 3 2 2 2 1 1 -1 -1 -1 -0 -0 -0 -1 -1 -1 -1 -3 -16 -24 -26 -27 -26 -24 -23 -23 -25 -26 -29 -29 -27 -27 -25 -26 -26 -27 -27 -27 -27 -27 -26 -25 -22
3 3 2 2 1 1 0 -1 -1 -1 -0 -0 -0 -0 -1 -1 -5 -17 -25 -29 -28 -25 -24 -23 -23 -23 -25 -28 -29 -29 -28 -28 -27 -27 -26 -26 -26 -27 -27 -26 -25 -22 -20
2 2 2 2 1 1 -1 -1 -1 -1 -1 -0 -0 -0 -1 -2 -11 -21 -25 -29 -29 -28 -26 -24 -24 -25 -26 -27 -27 -26 -27 -26 -26 -26 -25 -26 -26 -28 -27 -26 -25 -23 -20
2 2 1 1 1 -0 -1 -1 -1 -1 -1 -0 -0 -1 -1 -2 -12 -21 -24 -24 -26 -27 -27 -25 -24 -23 -24 -25 -25 -24 -24 -25 -26 -26 -25 -25 -25 -25 -25 -26 -26 -25 -23
1 1 0 -0 -1 -1 -1 -1 -0 -1 -1 -1 -1 -1 -1 -3 -17 -20 -20 -22 -23 -23 -23 -23 -24 -23 -23 -22 -21 -22 -23 -24 -26 -26 -25 -25 -25 -25 -25 -25 -25 -24 -23
1 1 1 2 1 0 -0 -0 -0 -1 -1 -1 -1 -2 -1 -5 -15 -19 -20 -21 -22 -22 -23 -24 -26 -25 -24 -22 -21 -20 -22 -24 -25 -25 -25 -25 -25 -25 -25 -24 -24 -23 -23
3 3 2 2 2 2 1 1 0 -0 -1 -1 -2 -1 -2 -7 -17 -18 -19 -20 -20 -21 -22 -22 -24 -25 -24 -23 -21 -21 -21 -22 -23 -24 -24 -25 -24 -24 -24 -23 -23 -22 -22
2 3 2 2 2 1 1 0 -0 -0 -1 -1 -1 -1 -4 -11 -16 -18 -18 -18 -19 -20 -21 -22 -22 -22 -21 -22 -22 -22 -21 -22 -21 -22 -23 -23 -23 -22 -20 -19 -19 -17 -16
2 2 2 2 2 1 1 0 -0 -1 -1 -0 -2 -2 -4 -10 -16 -16 -16 -16 -17 -18 -19 -20 -18 -19 -20 -20 -20 -11 -14 -23 -21 -20 -21 -21 -20 -17 -13 -12 -10 -10 -10
1 1 1 1 1 1 1 0 0 -0 -1 -1 -2 -3 -5 -12 -14 -16 -15 -15 -15 -16 -16 -15 -17 -14 -9 -9 -5 -5 -12 -23 -20 -13 -19 -18 -16 -13 -10 -8 -9 -10 -10
0 -0 -0 -0 0 1 1 1 0 -0 -0 -0 -0 -0 -1 -5 -10 -11 -7 -2 -2 -2 -3 -3 -3 -6 -6 -5 -11 -8 -5 -9 -9 -9 -14 -8 -14 -7 -6 -7 -8 -11 -10
-1 -1 -1 -1 -1 -0 0 0 0 -0 -0 -0 -0 -0 -1 -1 -1 -1 -1 -1 -2 -4 -5 -5 -6 -6 -4 -5 -6 -7 -7 -6 -7 -15 -8 -10 -8 -7 -7 -8 -10 -11 -11
-2 -2 -2 -2 -1 -1 -1 -0 -0 -0 -0 -0 -0 -0 -1 -1 -1 -1 -1 -1 -1 -1 -2 -2 -3 -3 -4 -6 -7 -7 -7 -7 -7 -13 -9 -8 -7 -7 -8 -8 -10 -12 -11
-3 -2 -2 -2 -2 -1 -1 -1 -1 -1 -1 -1 -1 -1 -1 -1 -1 -1 -1 -1 -1 -2 -2 -3 -3 -4 -4 -5 -5 -6 -7 -7 -8 -9 -8 -8 -8 -8 -9 -9 -13 -12 -9
-3 -3 -3 -3 -2 -2 -2 -2 -1 -1 -2 -1 -1 -2 -2 -2 -1 -2 -2 -3 -3 -3 -3 -4 -4 -5 -5 -5 -6 -6 -7 -7 -7 -8 -8 -8 -8 -11 -15 -13 -12 -9 -9
-4 -3 -4 -3 -3 -3 -2 -2 -2 -2 -2 -2 -2 -2 -2 -3 -3 -4 -4 -3 -4 -4 -4 -4 -5 -5 -5 -6 -6 -7 -7 -7 -8 -8 -9 -17 -18 -13 -13 -11 -9 -9 -10

GFSGL_850_dewp_072.txt.gz
Dewpoint
2 2 1 1 2 4 4 4 4 4 2 -0 1 1 0 -1 -0 0 0 0 0 0 0 -0 1 2 3 5 5 5 7 5 6 7 6 5 5 5 5 4 4 2 1
3 3 2 2 3 3 4 3 3 1 1 1 1 1 0 0 0 0 0 1 1 1 1 1 1 2 4 4 4 4 5 5 5 5 6 5 5 4 3 3 1 1 1
3 3 3 3 3 3 2 2 1 1 0 1 1 1 1 0 -0 -0 0 1 1 1 1 2 2 2 3 3 3 4 4 4 4 4 5 4 3 3 2 1 1 1 -0
4 4 4 3 3 3 2 1 1 1 1 1 1 1 -0 -1 -1 -1 0 1 1 1 2 2 2 2 2 3 3 3 3 2 2 3 3 3 2 1 1 -0 -0 -0 -1
3 4 3 3 3 2 2 1 1 1 1 1 1 -0 -1 -1 -0 0 1 1 1 2 2 2 2 2 2 2 2 1 1 1 1 1 2 2 1 0 -3 -3 -2 -3 -4
2 3 3 3 2 2 1 1 1 1 1 1 -0 -1 -1 -0 -0 0 1 1 2 2 2 1 2 2 2 1 1 1 0 0 -0 -0 -0 -1 -3 -10 -12 -12 -14 -16 -20
2 2 3 3 2 2 2 1 1 1 1 -0 -1 -1 -0 -0 0 0 0 1 1 0 0 0 1 1 -0 -4 -10 -15 -18 -18 -19 -20 -17 -13 -15 -14 -13 -17 -20 -22 -23
3 3 2 2 2 2 2 2 1 1 0 -1 -1 -1 -0 -0 0 -0 -1 -0 -0 -0 -0 -0 0 -1 -7 -21 -27 -28 -27 -26 -27 -28 -27 -22 -21 -19 -19 -21 -23 -23 -24
3 3 3 2 2 2 2 1 1 1 -0 -1 -1 -1 -1 -0 -0 -0 -0 -0 -1 -1 -1 -1 -3 -16 -26 -25 -25 -25 -25 -26 -26 -27 -27 -27 -26 -26 -26 -26 -27 -27 -28
2 3 3 3 2 2 2 2 1 1 -1 -1 -1 -1 -0 -0 -0 -0 -0 -1 -1 -1 -2 -11 -24 -26 -24 -24 -25 -26 -26 -25 -25 -23 -23 -24 -26 -26 -27 -28 -28 -28 -29
3 3 3 3 3 2 2 2 1 0 -1 -1 -1 -0 -0 -0 -1 -1 -2 -4 -8 -16 -24 -26 -24 -24 -24 -25 -27 -28 -26 -26 -24 -24 -24 -25 -26 -26 -26 -26 -26 -26 -26
3 3 3 3 3 2 2 2 1 -0 -1 -1 -1 -0 -1 -1 -1 -1 -3 -17 -23 -25 -25 -24 -22 -23 -23 -25 -28 -29 -28 -28 -26 -26 -26 -26 -25 -25 -25 -25 -25 -24 -22
3 3 3 3 2 2 2 1 1 -0 -1 -1 -1 -1 -1 -1 -1 -2 -13 -24 -28 -26 -24 -22 -22 -22 -23 -26 -28 -27 -26 -25 -25 -25 -25 -25 -25 -25 -26 -26 -25 -24 -22
1 2 2 2 2 2 1 1 0 -0 -1 -1 -1 -1 -1 -1 -1 -4 -17 -22 -28 -27 -26 -25 -24 -24 -23 -22 -24 -24 -24 -23 -24 -25 -25 -25 -25 -24 -24 -25 -25 -25 -24
1 1 1 1 1 1 0 -0 -1 -1 -1 -0 -1 -1 -1 -1 -1 -3 -16 -21 -22 -23 -22 -22 -22 -22 -22 -21 -21 -20 -21 -22 -23 -25 -25 -25 -25 -25 -25 -24 -24 -24 -24
1 1 1 1 1 2 2 1 1 -0 -0 -1 -1 -1 -1 -1 -2 -4 -17 -19 -19 -20 -20 -22 -22 -22 -24 -22 -21 -20 -20 -21 -22 -24 -25 -26 -25 -25 -25 -25 -24 -24 -24
2 2 2 1 1 2 1 1 1 1 -0 -1 -1 -1 -2 -2 -2 -5 -16 -17 -19 -20 -20 -21 -22 -23 -24 -24 -23 -21 -20 -21 -21 -21 -21 -23 -24 -25 -25 -24 -23 -23 -22
2 2 2 2 2 1 1 1 1 0 -0 -0 -1 -1 -2 -2 -2 -4 -14 -16 -18 -19 -20 -21 -21 -21 -22 -22 -22 -22 -21 -20 -21 -21 -21 -22 -23 -23 -23 -22 -20 -19 -17
1 1 2 1 1 1 1 1 1 0 -0 -1 -1 -2 -2 -2 -3 -8 -15 -16 -18 -19 -19 -19 -19 -20 -20 -19 -19 -20 -21 -19 -7 -8 -20 -20 -17 -21 -21 -19 -15 -12 -11
-0 0 0 1 1 1 1 1 1 0 -0 -0 -1 -1 -1 -2 -3 -6 -13 -16 -17 -17 -16 -16 -13 -8 -6 -8 -10 -15 -15 -8 -4 -9 -20 -15 -12 -19 -19 -13 -9 -7 -7
-1 -1 -0 -0 -0 0 0 0 0 0 -0 -0 -0 -1 -1 -2 -3 -7 -11 -14 -15 -13 -6 -3 -3 -5 -5 -3 -5 -6 -5 -6 -7 -6 -8 -13 -7 -12 -10 -8 -7 -7 -7
-2 -2 -1 -1 -1 -1 -0 -0 -0 -0 -0 -0 -0 -0 -1 -1 -1 -1 -1 -1 -2 -2 -2 -2 -3 -4 -5 -6 -8 -6 -5 -5 -7 -6 -6 -7 -14 -9 -8 -8 -7 -8 -8
-4 -3 -3 -2 -1 -2 -1 -1 -1 -1 -0 -0 -0 -0 -1 -1 -1 -1 -1 -1 -2 -2 -2 -2 -2 -2 -2 -3 -4 -5 -5 -6 -6 -7 -7 -8 -11 -8 -8 -8 -8 -8 -8
-4 -4 -4 -3 -3 -2 -2 -1 -1 -1 -1 -1 -1 -1 -1 -1 -1 -1 -1 -1 -2 -2 -2 -2 -2 -2 -3 -4 -4 -5 -5 -6 -7 -7 -7 -8 -8 -8 -8 -8 -8 -8 -9
-5 -5 -4 -4 -3 -3 -2 -2 -2 -2 -1 -1 -1 -1 -1 -1 -1 -1 -2 -2 -2 -2 -2 -3 -3 -3 -4 -4 -5 -5 -6 -6 -7 -7 -7 -8 -8 -8 -8 -9 -10 -11 -11
-6 -6 -5 -5 -4 -3 -3 -3 -3 -2 -2 -2 -2 -2 -2 -2 -2 -2 -2 -3 -3 -4 -4 -3 -4 -4 -5 -5 -5 -5 -6 -7 -7 -7 -8 -8 -8 -9 -13 -16 -13 -12 -10

GFSGL_850_dewp_075.txt.gz
Dewpoint
3 3 2 1 1 1 2 6 8 8 5 4 4 3 3 2 -0 -0 0 0 0 0 0 0 0 1 1 2 4 5 4 5 6 5 6 6 6 5 5 5 5 4 3
1 3 3 3 2 2 2 4 5 5 4 4 3 1 0 0 -0 0 1 1 0 0 0 1 1 1 2 3 3 3 4 5 5 5 5 5 5 5 4 4 3 3 1
-0 2 3 3 3 3 4 4 4 3 2 2 1 1 1 0 1 1 0 -0 -0 0 1 1 2 2 2 2 3 3 3 3 3 4 4 4 4 4 4 3 2 1 1
1 2 3 3 4 4 4 3 3 2 1 1 1 1 1 1 0 -0 -1 -0 0 0 1 1 2 2 2 2 2 3 3 2 3 3 2 3 3 3 2 2 0 0 0
3 3 3 4 3 3 3 3 2 2 1 1 1 1 1 1 -1 -1 -1 -0 0 1 1 2 2 2 2 2 2 2 2 2 2 2 2 2 2 2 1 0 -2 -1 -2
3 3 3 3 3 3 3 2 2 1 1 1 1 1 1 -1 -1 -0 -1 -1 0 1 1 1 1 1 1 2 2 1 1 1 1 1 1 1 1 1 -1 -8 -9 -8 -10
1 3 3 3 3 3 2 2 2 1 1 1 1 1 -1 -1 -1 -0 -0 -0 -0 0 0 -0 0 -0 0 1 -1 -6 -5 -3 -4 -2 -2 -3 -5 -8 -10 -10 -12 -16 -19
-0 2 3 3 3 3 2 2 2 2 1 1 1 -0 -1 -1 -0 -1 -0 -1 -1 -0 -1 -1 -1 -1 -0 -3 -12 -23 -26 -26 -27 -28 -27 -15 -12 -14 -14 -15 -17 -20 -21
-1 0 2 3 3 3 2 2 2 2 1 1 0 -1 -1 -1 -1 -1 -0 -1 -1 -1 -1 -1 -1 -1 -5 -19 -25 -25 -24 -23 -24 -24 -25 -24 -20 -22 -22 -22 -23 -23 -25
-0 1 2 3 3 3 3 2 2 2 1 1 0 -1 -1 -1 -1 -1 -1 -0 -0 -1 -1 -1 -1 -7 -21 -21 -20 -23 -23 -24 -23 -22 -22 -24 -25 -26 -27 -27 -27 -27 -28
-0 0 2 3 3 3 3 2 2 2 1 1 0 -1 -1 -1 -0 -0 -1 -0 -2 -2 -2 -5 -16 -24 -23 -24 -24 -24 -23 -23 -22 -22 -21 -23 -24 -26 -26 -26 -26 -27 -27
0 1 2 3 3 3 3 2 2 2 2 1 0 -1 -1 -1 -0 -1 -1 -1 -5 -11 -18 -23 -23 -22 -21 -22 -24 -25 -26 -26 -24 -23 -23 -24 -25 -25 -25 -25 -25 -25 -25
1 1 3 3 3 3 3 2 2 2 2 1 0 -1 -1 -0 -1 -1 -1 -1 -8 -22 -24 -23 -21 -20 -21 -22 -25 -27 -27 -27 -25 -24 -25 -25 -25 -25 -26 -27 -27 -27 -26
1 1 1 2 3 2 2 2 2 2 1 1 0 -1 -1 -0 -1 -1 -1 -2 -15 -23 -27 -24 -23 -22 -22 -23 -22 -22 -23 -24 -23 -24 -25 -25 -25 -26 -25 -25 -25 -26 -26
1 1 2 2 2 2 2 2 1 1 0 -0 -1 -1 -1 -1 -1 -1 -1 -2 -15 -21 -25 -25 -24 -24 -24 -22 -21 -21 -21 -20 -21 -23 -24 -24 -24 -25 -25 -24 -24 -24 -24
1 1 1 1 1 1 1 1 1 2 1 0 -0 -0 -1 -1 -1 -1 -2 -2 -13 -17 -17 -21 -21 -20 -20 -21 -22 -21 -21 -20 -20 -21 -23 -24 -24 -24 -24 -25 -24 -24 -24
0 1 1 2 2 1 1 1 1 1 1 1 1 -0 -1 -1 -1 -1 -2 -3 -13 -16 -16 -19 -20 -21 -21 -22 -24 -23 -22 -20 -19 -21 -22 -22 -22 -21 -23 -24 -24 -24 -23
-0 0 0 1 1 2 2 2 1 1 1 1 1 -0 -1 -1 -2 -2 -2 -3 -13 -16 -16 -19 -21 -21 -21 -21 -22 -23 -22 -21 -20 -20 -21 -20 -20 -21 -22 -23 -23 -22 -22
-2 -1 -0 0 0 0 1 1 1 1 1 1 1 -0 -1 -1 -2 -2 -3 -3 -9 -17 -17 -19 -20 -20 -19 -20 -20 -20 -19 -19 -20 -21 -16 -8 -6 -13 -20 -20 -21 -21 -19
-3 -2 -1 -1 -0 -0 -0 0 1 1 1 1 0 0 -1 -2 -2 -3 -2 -2 -9 -16 -18 -19 -19 -17 -17 -18 -17 -9 -6 -9 -12 -14 -12 -5 -9 -18 -17 -16 -17 -19 -14
-4 -3 -3 -2 -1 -1 -0 -0 -0 0 0 0 0 0 -0 -1 -2 -2 -2 -4 -11 -15 -17 -17 -17 -14 -5 -4 -4 -6 -6 -11 -13 -6 -5 -5 -7 -12 -12 -8 -8 -9 -7
-5 -4 -4 -3 -2 -2 -1 -1 -1 -1 -0 -0 0 0 -0 -1 -2 -2 -3 -5 -9 -9 -8 -9 -8 -3 -2 -2 -3 -4 -4 -5 -5 -5 -5 -6 -7 -7 -8 -8 -9 -8 -8
-6 -5 -4 -4 -3 -3 -2 -2 -2 -1 -1 -1 -0 -0 -0 -1 -1 -1 -1 -1 -1 -1 -1 -2 -2 -2 -2 -2 -3 -3 -4 -4 -5 -5 -6 -6 -7 -7 -7 -8 -8 -8 -8
-8 -6 -5 -5 -4 -4 -3 -3 -3 -2 -2 -1 -1 -1 -0 -1 -1 -1 -1 -1 -2 -2 -2 -2 -2 -2 -2 -2 -2 -3 -4 -4 -5 -5 -6 -7 -7 -7 -8 -8 -8 -8 -9
-7 -6 -6 -6 -5 -4 -4 -4 -3 -2 -2 -2 -2 -1 -1 -1 -1 -1 -2 -2 -2 -2 -2 -2 -2 -2 -2 -3 -3 -3 -4 -5 -5 -6 -6 -7 -7 -8 -8 -8 -8 -9 -9
-7 -7 -7 -6 -5 -5 -4 -4 -3 -3 -3 -2 -2 -2 -2 -2 -2 -2 -2 -2 -2 -2 -2 -2 -3 -3 -3 -3 -4 -4 -5 -5 -6 -6 -7 -7 -8 -8 -8 -8 -9 -12 -14

GFSGL_850_dewp_078.txt.gz
Dewpoint
-5 -1 3 3 2 2 1 1 3 7 7 7 8 8 8 7 3 3 3 -0 -1 -0 0 1 0 0 1 1 2 3 3 4 4 4 4 5 4 6 5 5 5 5 4
-2 -2 2 3 3 2 2 2 2 6 8 9 7 5 4 3 3 1 0 -0 -0 0 0 -0 0 1 1 1 2 3 3 3 4 4 5 5 5 5 4 4 4 4 4
-1 -1 -0 2 3 3 3 3 4 5 5 5 4 4 2 2 1 0 0 0 0 -0 -1 -0 0 1 2 2 2 3 3 3 2 3 3 3 4 4 4 4 4 3 3
0 1 0 2 3 3 3 4 4 4 3 3 2 2 1 1 0 1 1 0 -1 -1 -1 -0 1 1 2 3 2 2 2 2 2 2 2 2 2 3 3 3 2 2 0
0 1 1 2 3 4 3 3 3 3 3 2 2 1 1 1 1 1 -0 -1 -1 -1 -1 0 1 2 1 1 1 1 1 1 1 2 1 1 1 2 2 1 1 1 -1
-1 -0 2 2 3 3 3 3 3 3 2 2 1 1 1 1 1 -0 -1 -1 -1 -2 -1 1 0 0 0 0 -0 1 1 1 1 0 0 -0 1 1 0 0 -0 -4 -3
-1 -1 0 3 3 3 3 3 3 2 2 2 1 1 1 0 -1 -1 -1 -1 -1 -1 -1 -0 -0 -0 -0 -1 -0 -1 -4 -2 -0 -0 -0 -0 -1 -0 -2 -3 -8 -10 -12
0 -1 -0 2 3 3 3 3 3 2 2 2 1 1 0 -0 -1 -1 -1 -2 -1 -1 -1 -1 -1 -1 -1 -1 -2 -9 -19 -24 -25 -22 -16 -11 -10 -5 -11 -11 -9 -13 -17
1 -0 -1 0 3 3 3 3 3 2 2 2 1 1 1 -0 -1 -1 -2 -2 -1 -1 -1 -1 -1 -1 -1 -1 -9 -21 -23 -22 -22 -23 -24 -23 -21 -15 -16 -17 -17 -19 -21
2 1 -0 0 2 3 3 3 3 2 2 2 2 1 1 -0 -1 -2 -2 -1 -1 -0 -1 -1 -2 -2 -2 -11 -22 -21 -22 -23 -22 -21 -22 -23 -25 -26 -27 -27 -26 -26 -27
2 1 1 1 2 3 3 3 3 2 2 2 2 1 1 -0 -1 -2 -2 -1 -1 -0 -1 -1 -1 -3 -15 -22 -23 -22 -23 -23 -22 -22 -22 -21 -22 -24 -26 -26 -27 -27 -28
2 1 1 2 2 3 3 3 3 3 2 2 2 2 1 -0 -1 -2 -1 -1 -1 -1 -3 -6 -12 -21 -21 -21 -22 -23 -25 -26 -25 -23 -22 -22 -24 -26 -26 -26 -25 -26 -26
2 1 1 2 3 3 3 3 3 3 2 2 2 2 1 0 -1 -1 -0 -1 -1 -1 -9 -18 -22 -22 -20 -20 -22 -24 -27 -26 -24 -23 -23 -24 -24 -25 -25 -26 -26 -27 -27
0 2 1 2 2 3 3 3 3 2 2 2 2 2 1 0 -1 -1 -0 -1 -1 -1 -12 -23 -23 -21 -20 -19 -20 -23 -23 -22 -21 -21 -23 -23 -24 -25 -25 -26 -25 -25 -24
-2 0 2 1 2 2 2 2 2 2 2 1 1 1 0 -0 -1 -0 -1 -1 -1 -1 -11 -20 -24 -24 -22 -22 -22 -21 -21 -21 -20 -21 -22 -23 -24 -24 -24 -24 -24 -23 -23
-3 -2 -0 1 1 1 1 2 2 2 1 1 1 0 -0 -1 -1 -1 -1 -1 -1 -2 -10 -17 -23 -24 -22 -22 -22 -21 -20 -20 -19 -19 -21 -23 -24 -25 -24 -24 -23 -24 -23
-4 -3 -1 -0 0 0 1 1 1 1 1 1 1 1 1 1 -0 -1 -1 -1 -2 -2 -7 -16 -18 -21 -20 -19 -19 -20 -22 -21 -20 -19 -19 -21 -22 -23 -21 -20 -22 -23 -20
-8 -5 -3 -2 -1 -0 -0 -0 0 0 1 1 1 1 1 0 -0 -1 -1 -2 -2 -3 -5 -15 -19 -20 -20 -20 -20 -20 -22 -22 -21 -20 -20 -20 -20 -20 -19 -16 -17 -22 -22
-7 -7 -4 -3 -2 -1 -1 -0 -0 -0 -0 0 1 1 1 0 -0 -1 -2 -2 -2 -2 -3 -15 -19 -19 -20 -20 -20 -20 -20 -21 -21 -20 -21 -20 -21 -14 -7 -5 -13 -20 -18
-7 -6 -5 -4 -3 -2 -1 -1 -1 -1 -0 0 0 1 0 -0 -1 -1 -2 -2 -2 -3 -2 -4 -17 -18 -18 -19 -18 -18 -19 -19 -17 -13 -10 -12 -12 -12 -7 -7 -17 -17 -13
-7 -7 -6 -5 -4 -4 -3 -2 -1 -1 -1 -0 0 0 0 -0 -0 -1 -1 -2 -2 -2 -2 -3 -14 -17 -18 -17 -16 -16 -17 -14 -8 -5 -6 -9 -8 -6 -6 -8 -15 -15 -10
-7 -7 -6 -6 -5 -5 -4 -3 -2 -2 -1 -1 -0 -0 -1 -1 -1 -1 -1 -1 -2 -2 -3 -7 -8 -8 -15 -16 -15 -4 -3 -3 -3 -4 -4 -8 -7 -6 -6 -6 -7 -7 -8
-7 -7 -7 -7 -6 -5 -5 -4 -3 -2 -2 -1 -1 -1 -1 -1 -1 -0 -0 -1 -1 -2 -3 -7 -8 -7 -5 -2 -2 -2 -3 -3 -3 -3 -4 -5 -5 -6 -6 -7 -7 -8 -8
-8 -8 -8 -7 -6 -6 -6 -5 -4 -4 -3 -2 -2 -2 -1 -1 -1 -1 -1 -1 -1 -1 -1 -2 -2 -2 -2 -2 -2 -2 -2 -3 -3 -4 -4 -5 -6 -6 -7 -7 -7 -8 -8
-8 -8 -7 -7 -7 -7 -6 -5 -5 -4 -4 -4 -3 -2 -2 -2 -1 -1 -1 -1 -1 -1 -1 -1 -1 -2 -2 -2 -2 -2 -3 -3 -4 -5 -5 -6 -6 -7 -7 -7 -8 -8 -9
-8 -8 -8 -8 -8 -7 -6 -6 -5 -5 -4 -4 -3 -3 -2 -2 -2 -2 -2 -2 -1 -1 -1 -2 -2 -2 -2 -2 -2 -3 -3 -4 -5 -5 -6 -7 -7 -7 -8 -8 -8 -9 -9

GFSGL_850_dewp_081.txt.gz
Dewpoint
-5 -5 -4 -0 3 3 2 2 1 1 5 8 8 8 8 8 8 7 6 4 3 1 -0 -0 -0 0 -0 -0 0 1 2 4 4 4 4 3 3 5 4 5 5 5 4
-3 -3 -3 -3 1 3 3 2 2 1 3 8 9 9 9 9 8 6 3 3 1 0 -0 0 0 -0 -1 0 1 1 2 4 4 4 3 4 4 5 5 5 4 4 4
-1 -1 -0 -1 0 2 3 3 2 2 4 8 9 8 6 5 4 3 2 1 0 0 0 -0 -1 -1 -1 0 2 2 3 3 2 2 2 2 2 3 3 4 4 3 3
-2 -1 0 1 2 3 3 3 4 4 4 5 5 4 4 3 2 2 1 1 0 0 -0 -1 -1 -1 -0 0 2 2 2 2 2 2 2 2 2 2 2 3 3 3 2
-2 -2 -0 2 2 3 3 4 4 4 4 4 3 3 2 2 1 1 1 1 0 -1 -2 -2 -2 -1 0 1 1 1 1 2 1 1 1 1 1 1 2 2 2 2 1
-2 -1 -1 -0 2 2 3 3 3 3 3 3 3 2 1 1 1 1 1 -0 -1 -2 -2 -4 -3 -1 0 0 0 -0 -0 0 0 1 1 0 0 0 1 1 1 0 0
-8 -4 -1 -1 -0 3 3 3 3 3 3 3 2 2 1 1 1 0 -0 -1 -2 -2 -3 -4 -2 -0 0 0 -0 -1 -1 -0 -0 -0 -0 -0 -0 -0 -0 -0 -0 -1 -6
-7 -6 -1 -0 -1 1 3 3 3 3 3 2 2 2 1 1 0 -0 -1 -2 -2 -3 -3 -1 -0 -0 -0 -0 -0 -0 -5 -11 -19 -19 -11 -6 -3 -3 -4 -4 -7 -9 -10
-5 -3 -1 1 -0 -0 3 3 3 3 3 2 2 2 1 1 0 -0 -1 -2 -2 -2 -1 -0 -0 -0 -0 -1 -1 -2 -11 -21 -23 -23 -24 -23 -21 -16 -12 -12 -13 -15 -15
-2 -1 1 1 1 1 1 3 3 3 3 2 2 2 1 1 1 -0 -1 -2 -3 -2 -1 -0 -0 -1 -1 -2 -2 -15 -22 -22 -22 -22 -22 -23 -24 -22 -23 -24 -22 -22 -24
-1 0 2 1 1 2 2 3 3 3 3 2 2 2 2 1 1 -0 -1 -2 -2 -1 -1 -1 -1 -1 -2 -2 -17 -21 -21 -22 -22 -22 -21 -21 -21 -22 -23 -24 -26 -26 -27
-2 -1 1 2 1 2 3 3 3 3 3 2 2 2 2 1 1 0 -1 -2 -1 -1 -1 -1 -1 -1 -4 -17 -23 -23 -23 -24 -23 -22 -21 -21 -22 -24 -25 -25 -25 -26 -27
-3 -3 -1 1 1 2 3 3 3 3 3 3 2 2 2 2 1 0 -1 -1 -1 -1 -1 -3 -6 -12 -21 -22 -22 -22 -23 -24 -25 -24 -23 -23 -23 -24 -25 -25 -26 -26 -26
-6 -4 -2 -1 1 2 2 3 3 3 3 3 2 2 2 2 2 1 -0 -1 -1 -1 -2 -3 -14 -21 -22 -21 -20 -21 -22 -24 -22 -21 -22 -23 -24 -24 -25 -25 -25 -25 -25
-10 -8 -4 -3 -0 1 1 2 2 2 2 2 2 2 2 1 2 1 -0 -1 -1 -1 -1 -2 -15 -21 -21 -21 -20 -19 -20 -20 -21 -21 -20 -21 -22 -23 -24 -24 -24 -23 -21
-10 -9 -8 -5 -3 -1 0 1 1 1 1 2 1 1 1 1 -0 -0 -1 -1 -1 -1 -2 -2 -7 -19 -23 -22 -21 -21 -21 -20 -20 -19 -19 -20 -22 -23 -23 -23 -22 -20 -19
-7 -8 -8 -8 -6 -3 -1 -0 0 0 0 1 1 1 1 1 0 -0 -0 -1 -1 -2 -2 -2 -2 -13 -22 -23 -22 -22 -21 -20 -19 -19 -19 -19 -20 -22 -23 -22 -19 -18 -19
-8 -7 -7 -7 -7 -4 -3 -2 -1 -0 -0 0 0 0 0 1 1 0 -0 -1 -2 -2 -2 -2 -2 -4 -17 -21 -20 -19 -19 -19 -21 -21 -21 -19 -19 -20 -20 -20 -19 -15 -13
-8 -7 -7 -6 -5 -5 -4 -3 -2 -1 -1 -0 -0 -0 -0 -0 -0 -0 -1 -1 -1 -2 -2 -2 -2 -2 -15 -17 -17 -18 -19 -19 -20 -22 -22 -21 -20 -19 -20 -20 -10 -7 -7
-7 -7 -7 -6 -6 -6 -5 -4 -3 -2 -1 -1 -1 -0 -1 -1 -1 -1 -1 -1 -1 -2 -2 -2 -2 -2 -15 -17 -16 -18 -19 -19 -20 -20 -21 -20 -19 -16 -13 -15 -11 -7 -8
-7 -7 -7 -7 -7 -7 -6 -5 -4 -4 -3 -2 -1 -1 -1 -1 -0 -0 -1 -1 -1 -2 -2 -2 -2 -2 -7 -16 -16 -17 -17 -18 -18 -19 -19 -14 -8 -5 -7 -7 -8 -6 -9
-8 -7 -7 -8 -7 -7 -6 -6 -5 -5 -4 -3 -2 -1 -1 -1 -1 -0 -0 -1 -1 -2 -2 -2 -2 -2 -4 -14 -17 -17 -17 -16 -14 -6 -7 -7 -4 -4 -6 -7 -6 -6 -7
-8 -8 -8 -8 -8 -8 -7 -7 -6 -5 -5 -4 -3 -2 -1 -1 -1 -0 -0 -0 -1 -1 -1 -2 -2 -3 -8 -7 -5 -6 -4 -6 -5 -3 -3 -3 -4 -4 -5 -6 -6 -6 -7
-8 -8 -8 -8 -8 -8 -8 -7 -7 -6 -5 -5 -4 -3 -2 -2 -1 -1 -1 -1 -1 -1 -1 -1 -2 -4 -7 -7 -6 -5 -3 -3 -3 -3 -3 -3 -4 -4 -5 -6 -6 -7 -7
-8 -8 -8 -8 -8 -8 -8 -8 -7 -6 -5 -5 -5 -4 -3 -2 -2 -1 -1 -1 -1 -1 -1 -1 -1 -2 -2 -2 -2 -2 -2 -3 -3 -3 -3 -4 -4 -5 -6 -6 -7 -7 -8
-8 -9 -8 -8 -9 -8 -8 -7 -7 -6 -6 -5 -5 -5 -4 -3 -2 -2 -2 -1 -1 -1 -1 -2 -2 -2 -2 -2 -2 -2 -3 -3 -3 -3 -4 -5 -5 -6 -6 -7 -7 -8 -8

GFSGL_850_dewp_084.txt.gz
Dewpoint
-3 -2 -2 -2 1 3 3 2 2 2 3 7 8 8 9 9 9 8 8 9 8 5 3 3 1 -0 -0 -0 0 -0 0 1 4 4 4 4 4 3 3 4 5 4 4
-2 -3 -3 -2 -1 1 3 3 2 2 2 3 7 9 9 8 8 9 9 7 6 4 2 1 0 -0 -0 -0 -0 -0 0 1 3 3 4 3 3 3 4 4 4 4 4
-3 -2 -1 -2 -2 -1 1 3 3 3 3 4 7 9 9 9 9 9 8 7 4 2 1 0 -0 -0 -0 -1 -1 0 1 2 4 3 3 2 2 2 2 3 3 3 3
-2 -3 -2 -0 0 0 0 1 2 3 4 5 7 9 10 10 9 7 5 3 2 1 0 -0 -0 -1 -1 -1 -0 0 1 2 2 2 2 2 2 2 2 2 2 2 3
-6 -5 -2 -2 -1 1 2 2 3 3 4 4 5 5 5 5 4 4 3 2 1 0 0 -0 -1 -2 -2 -2 -0 1 1 2 1 2 2 2 1 1 1 1 2 2 2
-7 -8 -7 -3 -2 -1 2 3 3 4 4 4 4 4 4 3 3 2 1 1 1 0 -0 -1 -2 -3 -3 -1 0 0 1 1 1 1 1 1 1 1 1 1 1 1 1
-7 -7 -7 -6 -2 -1 -0 3 3 3 3 3 4 4 3 3 2 1 1 1 0 -1 -1 -2 -3 -4 -2 -0 0 0 0 -0 -0 0 0 0 0 0 0 0 0 0 -0
-5 -5 -5 -5 -3 -0 0 0 3 3 3 3 3 3 3 2 1 1 1 0 -1 -1 -2 -3 -3 -3 -1 -0 0 0 -0 -1 -5 -9 -6 -2 -1 -1 -1 -1 -1 -1 -2
-4 -3 -3 -3 -1 0 1 1 2 3 3 3 3 3 2 2 1 1 0 -0 -1 -2 -2 -3 -2 -1 -0 0 0 -0 -0 -5 -13 -23 -24 -23 -19 -14 -9 -6 -6 -6 -9
-4 -3 -3 -2 0 1 1 1 1 3 3 3 3 3 2 2 1 1 0 -0 -1 -1 -2 -2 -1 -1 -0 -0 -1 -1 -1 -11 -21 -23 -22 -23 -23 -21 -17 -13 -13 -12 -15
-5 -4 -3 -2 0 1 1 1 2 2 3 3 3 3 2 2 2 1 1 1 -0 -1 -2 -2 -1 -0 -1 -1 -2 -1 -13 -20 -22 -22 -22 -21 -21 -22 -21 -22 -23 -22 -24
-13 -9 -4 -3 -1 1 1 1 2 3 3 3 3 3 2 2 2 1 1 1 -0 -1 -2 -1 -1 -1 -1 -2 -2 -12 -21 -20 -22 -22 -21 -21 -21 -21 -22 -23 -25 -25 -26
-15 -16 -14 -6 -3 -1 1 2 2 3 3 3 3 3 2 2 2 2 1 1 -0 -1 -1 -1 -1 -2 -2 -2 -7 -20 -21 -22 -23 -23 -22 -21 -21 -22 -24 -25 -25 -25 -24
-16 -15 -16 -15 -9 -3 -0 1 1 2 2 2 3 3 3 2 2 2 2 1 -0 -1 -1 -1 -1 -4 -5 -7 -16 -19 -19 -20 -22 -23 -23 -22 -22 -23 -24 -25 -25 -25 -26
-15 -15 -14 -14 -14 -11 -4 -1 1 1 1 2 2 2 2 2 2 2 2 2 0 -0 -1 -1 -1 -5 -14 -18 -17 -11 -14 -18 -21 -21 -20 -21 -22 -23 -24 -25 -25 -25 -23
-13 -12 -11 -11 -10 -11 -10 -6 -2 -0 0 0 1 1 1 2 2 1 1 0 0 -0 -1 -1 -1 -2 -10 -18 -20 -19 -17 -17 -18 -19 -19 -19 -20 -21 -23 -23 -23 -22 -18
-12 -12 -11 -8 -6 -6 -7 -5 -4 -3 -1 -1 -0 0 0 1 1 1 0 0 -0 -2 -2 -1 -1 -1 -2 -15 -21 -21 -20 -19 -19 -19 -19 -19 -19 -21 -22 -23 -22 -21 -17
-11 -10 -9 -9 -7 -6 -6 -5 -5 -3 -2 -1 -1 -1 -0 -0 -0 0 0 -1 -1 -2 -2 -1 -1 -1 -2 -5 -14 -22 -21 -20 -19 -19 -19 -19 -18 -19 -20 -22 -20 -19 -18
-11 -10 -8 -7 -7 -7 -6 -6 -6 -5 -3 -2 -2 -1 -1 -1 -1 -1 -1 -1 -1 -1 -1 -1 -1 -2 -2 -2 -7 -19 -20 -19 -19 -19 -20 -20 -20 -18 -19 -20 -20 -20 -18
-11 -10 -9 -7 -7 -7 -7 -7 -6 -5 -5 -4 -3 -2 -2 -2 -2 -2 -1 -1 -1 -1 -1 -1 -1 -2 -2 -2 -5 -16 -16 -15 -16 -17 -19 -21 -21 -20 -19 -18 -19 -16 -14
-10 -10 -9 -7 -8 -7 -8 -8 -7 -6 -6 -5 -4 -3 -3 -2 -2 -1 -1 -1 -1 -1 -1 -1 -2 -2 -2 -2 -4 -16 -16 -18 -18 -19 -19 -19 -20 -19 -18 -16 -8 -8 -11
-10 -9 -8 -8 -8 -8 -8 -8 -7 -7 -6 -6 -5 -4 -3 -3 -2 -2 -1 -1 -1 -1 -1 -1 -2 -2 -2 -2 -7 -16 -16 -18 -18 -18 -17 -18 -15 -13 -14 -10 -5 -6 -6
-9 -8 -8 -8 -8 -8 -8 -8 -8 -7 -7 -6 -6 -5 -4 -3 -3 -2 -2 -1 -1 -1 -1 -1 -2 -2 -2 -3 -2 -9 -16 -18 -17 -12 -16 -9 -3 -4 -6 -5 -5 -5 -6
-9 -8 -8 -9 -9 -8 -8 -8 -8 -7 -8 -7 -6 -5 -5 -4 -3 -2 -2 -2 -1 -1 -1 -1 -2 -2 -2 -2 -5 -8 -10 -11 -11 -9 -4 -3 -3 -3 -4 -4 -5 -5 -6
-9 -8 -8 -9 -9 -9 -9 -8 -8 -8 -8 -7 -6 -5 -5 -4 -3 -3 -2 -2 -1 -1 -1 -1 -2 -2 -2 -2 -4 -7 -7 -4 -3 -3 -3 -3 -4 -4 -4 -4 -5 -6 -6
-8 -9 -9 -9 -9 -9 -9 -9 -8 -8 -7 -7 -6 -6 -5 -5 -4 -3 -2 -2 -1 -1 -1 -1 -1 -2 -2 -2 -3 -3 -2 -3 -3 -3 -3 -4 -4 -4 -5 -5 -6 -6 -7

GFSGL_850_dewp_087.txt.gz
Dewpoint
-2 -1 -1 1 3 3 3 3 4 6 7 8 8 8 9 9 10 10 10 10 9 8 8 8 8 3 2 1 0 0 0 1 3 4 4 4 4 2 3 3 3 3 4
-3 -2 -2 -2 -1 1 2 3 3 3 3 4 7 9 9 9 10 10 10 9 7 7 8 7 4 3 2 0 0 0 -0 -0 1 4 4 4 4 3 3 3 4 4 4
-3 -3 -3 -1 -0 -0 0 2 3 3 3 3 3 6 9 10 10 9 9 8 8 8 7 5 4 2 1 0 0 -0 -0 1 2 2 3 3 3 2 2 2 2 2 3
-6 -6 -4 -3 -3 -1 1 0 1 3 3 4 5 6 8 10 10 10 9 9 8 7 6 4 2 1 0 -0 -0 -0 0 2 3 2 2 2 2 2 2 2 2 1 2
-5 -6 -7 -7 -5 -3 -2 1 2 2 3 4 5 6 8 9 9 10 9 9 8 6 4 2 1 0 -0 -0 -0 -1 -0 1 1 1 2 2 1 1 1 1 1 1 2
-6 -6 -7 -7 -8 -7 -3 -1 2 2 3 4 4 4 5 6 8 8 7 5 4 3 1 1 0 0 -1 -2 -2 -1 -1 0 1 1 1 1 1 1 1 1 1 1 1
-6 -5 -4 -5 -6 -6 -5 -2 -1 2 3 3 3 4 4 4 4 4 4 3 2 1 1 1 -0 -1 -2 -3 -4 -3 -2 0 0 -0 0 0 1 1 0 0 0 0 0
-5 -5 -5 -4 -4 -4 -3 -1 -0 0 3 3 3 3 3 4 3 3 2 2 1 1 1 -0 -1 -2 -3 -4 -3 -2 -0 -0 -0 -0 -1 -1 -0 -0 -1 -1 -1 -1 -1
-6 -5 -4 -4 -4 -4 -2 -1 0 1 1 3 3 3 3 3 3 2 2 1 1 1 -0 -1 -2 -3 -3 -2 -1 -0 -0 -1 -1 -6 -14 -18 -16 -11 -9 -4 -4 -3 -3
-16 -14 -8 -4 -2 -2 -2 -0 1 1 2 1 3 3 3 3 3 2 2 1 1 0 -1 -1 -2 -3 -2 -1 -0 -0 -1 -1 -3 -11 -19 -23 -23 -22 -20 -12 -9 -8 -7
-19 -20 -19 -15 -7 -2 -2 -0 1 1 2 2 2 3 3 3 3 2 2 1 1 0 -0 -1 -2 -2 -1 -1 -1 -1 -1 -1 -7 -19 -21 -22 -21 -21 -19 -18 -17 -16 -17
-17 -19 -19 -19 -17 -10 -3 -1 1 1 1 2 2 3 3 3 3 2 2 1 1 1 0 -1 -1 -1 -1 -1 -1 -1 -2 -4 -17 -21 -21 -21 -21 -21 -22 -22 -23 -25 -26
-17 -15 -11 -15 -18 -19 -16 -4 -1 0 1 1 1 2 3 3 3 2 2 2 1 1 1 -0 -1 -1 -1 -1 -2 -2 -2 -14 -18 -21 -22 -21 -21 -21 -21 -22 -24 -25 -26
-15 -16 -15 -15 -14 -15 -15 -15 -6 -2 -0 0 1 0 1 2 2 2 2 2 1 1 1 -0 -1 -1 -1 -1 -2 -2 -6 -18 -20 -21 -22 -21 -21 -20 -22 -24 -25 -25 -25
-13 -14 -13 -11 -12 -13 -10 -12 -14 -10 -2 -1 -1 0 0 0 1 2 2 2 2 2 1 0 -1 -1 -1 -3 -3 -3 -10 -17 -18 -20 -21 -22 -21 -21 -22 -24 -25 -25 -25
-8 -8 -8 -9 -11 -10 -8 -8 -10 -13 -12 -4 -1 -1 -0 0 0 0 1 1 1 1 0 -0 -0 -1 -1 -2 -5 -7 -12 -15 -17 -19 -20 -20 -20 -21 -23 -23 -24 -25 -24
-9 -7 -7 -7 -10 -10 -8 -6 -6 -12 -11 -10 -4 -1 -1 -1 -0 -1 0 0 0 -0 -0 -1 -1 -1 -1 -2 -3 -11 -16 -16 -16 -17 -18 -19 -18 -18 -20 -22 -23 -23 -22
-10 -9 -10 -9 -7 -7 -8 -7 -7 -6 -6 -6 -9 -4 -2 -2 -1 -1 -1 -1 -1 -1 -1 -1 -1 -1 -1 -1 -2 -5 -16 -18 -18 -17 -17 -18 -19 -18 -19 -21 -22 -22 -21
-10 -8 -7 -7 -7 -7 -7 -7 -7 -7 -7 -6 -5 -6 -4 -2 -2 -2 -2 -2 -1 -1 -2 -1 -1 -1 -1 -1 -2 -2 -9 -17 -21 -18 -18 -18 -18 -18 -18 -19 -20 -22 -20
-9 -7 -7 -7 -7 -7 -7 -7 -7 -7 -7 -7 -7 -5 -4 -4 -3 -2 -2 -2 -2 -1 -1 -1 -1 -1 -1 -1 -2 -2 -3 -6 -20 -19 -19 -19 -19 -19 -19 -18 -18 -19 -20
-7 -9 -10 -8 -8 -8 -8 -8 -8 -8 -8 -7 -7 -6 -6 -4 -4 -3 -3 -3 -2 -1 -1 -1 -1 -1 -1 -2 -2 -3 -3 -5 -17 -19 -17 -18 -18 -20 -20 -19 -18 -18 -18
-8 -10 -8 -8 -8 -8 -8 -8 -8 -8 -8 -8 -7 -6 -6 -5 -5 -4 -3 -3 -3 -2 -1 -1 -1 -1 -1 -2 -2 -3 -3 -5 -15 -16 -16 -17 -18 -18 -19 -19 -18 -16 -14
-8 -8 -8 -8 -8 -9 -9 -9 -9 -8 -8 -8 -7 -7 -7 -6 -5 -4 -3 -3 -3 -3 -2 -1 -1 -1 -2 -2 -3 -3 -3 -6 -17 -17 -18 -19 -18 -18 -18 -12 -6 -6 -11
-8 -8 -8 -8 -8 -9 -9 -9 -9 -9 -8 -8 -8 -7 -7 -7 -5 -5 -4 -3 -3 -3 -2 -2 -1 -1 -2 -2 -3 -3 -3 -11 -15 -16 -17 -17 -15 -14 -9 -4 -4 -5 -6
-9 -8 -8 -8 -8 -9 -9 -9 -9 -9 -9 -8 -8 -8 -7 -6 -6 -5 -4 -3 -3 -3 -2 -2 -2 -1 -2 -2 -3 -3 -3 -7 -13 -15 -15 -11 -4 -4 -4 -4 -4 -4 -5
-9 -8 -8 -9 -9 -9 -10 -10 -10 -9 -9 -9 -8 -8 -7 -6 -6 -5 -4 -4 -3 -3 -2 -2 -2 -2 -2 -2 -2 -3 -3 -4 -4 -4 -4 -4 -4 -4 -4 -4 -5 -5 -5

GFSGL_850_dewp_090.txt.gz
Dewpoint
0 1 2 3 4 5 6 7 9 10 9 9 9 9 9 9 9 9 10 9 8 9 9 10 9 9 8 8 2 2 1 0 1 3 4 4 4 4 3 3 3 3 3
-3 -2 -2 -2 -2 -1 1 3 3 3 4 5 6 6 8 8 9 10 9 10 10 10 10 10 10 8 8 5 3 2 1 0 1 1 4 5 4 3 3 3 2 2 3
-5 -4 -4 -4 -4 -2 -2 -1 -0 2 3 3 3 4 6 9 10 10 11 11 10 10 10 8 8 8 7 4 3 1 1 0 0 3 4 3 3 2 3 2 2 2 1
-4 -5 -6 -6 -6 -4 -4 -2 -1 -0 0 2 3 4 6 7 9 10 10 10 10 10 9 9 8 6 4 3 1 1 1 1 0 1 4 3 2 3 2 2 1 1 1
-6 -6 -6 -7 -7 -8 -7 -4 -3 -0 1 1 2 3 4 6 9 9 9 9 9 9 9 8 6 4 3 2 1 0 0 0 0 3 3 3 1 2 1 1 1 1 1
-7 -7 -7 -7 -7 -7 -7 -8 -5 -2 0 2 3 3 4 5 6 8 8 8 8 8 7 6 5 3 2 1 0 -0 -1 -1 -1 0 1 1 1 1 1 1 1 1 0
-6 -6 -6 -6 -6 -6 -5 -5 -5 -3 -1 1 3 4 3 4 4 6 7 7 7 6 5 4 2 1 1 0 -0 -1 -2 -2 -0 -0 -0 0 0 1 1 1 1 0 -0
-13 -13 -10 -8 -6 -5 -5 -4 -3 -2 -1 1 2 3 4 4 4 4 4 5 4 4 3 2 1 1 0 -0 -2 -3 -3 -2 -1 -0 -0 0 0 0 0 0 -0 -1 -1
-14 -14 -16 -15 -14 -11 -7 -5 -4 -2 -0 1 2 2 4 4 4 4 4 3 3 3 2 1 1 0 -0 -2 -3 -3 -1 -1 -1 -0 0 -1 -6 -5 -4 -3 -2 -2 -2
-17 -17 -17 -16 -15 -16 -14 -10 -5 -3 0 1 2 3 3 3 4 3 3 3 2 2 1 1 0 -0 -1 -2 -3 -2 -1 -1 -0 -0 -3 -10 -19 -20 -15 -16 -11 -9 -5
-20 -21 -22 -21 -19 -18 -17 -15 -13 -3 -1 0 1 2 2 2 3 3 3 3 2 2 1 1 -0 -1 -1 -2 -2 -1 -1 -1 -1 -1 -6 -13 -20 -21 -20 -18 -15 -13 -10
-20 -22 -23 -20 -17 -15 -15 -15 -13 -7 -3 -2 -0 1 1 1 2 3 3 3 2 2 1 1 -0 -1 -1 -2 -1 -1 -0 -1 -1 -2 -11 -19 -21 -22 -21 -19 -16 -15 -19
-14 -18 -19 -19 -19 -17 -15 -14 -13 -11 -5 -2 -1 0 0 1 1 1 2 2 2 2 2 1 0 -0 -1 -1 -1 -1 -1 -1 -2 -4 -16 -20 -21 -21 -21 -21 -22 -23 -24
-12 -14 -16 -16 -15 -13 -13 -12 -10 -10 -10 -8 -3 -2 -1 0 0 0 0 1 1 1 2 1 1 0 -1 -1 -1 -1 -1 -2 -2 -8 -18 -19 -19 -21 -21 -20 -22 -24 -25
-9 -11 -13 -13 -12 -12 -13 -12 -10 -6 -6 -7 -5 -4 -3 -2 -0 -0 -0 -0 0 0 1 0 -0 -0 -1 -1 -1 -2 -2 -2 -2 -13 -18 -19 -20 -20 -20 -21 -22 -24 -24
-10 -10 -9 -9 -9 -10 -12 -14 -13 -9 -8 -6 -6 -5 -4 -3 -2 -1 -1 -1 -1 -0 -0 -0 -1 -1 -1 -1 -1 -1 -2 -2 -3 -15 -19 -20 -20 -21 -20 -21 -22 -24 -24
-9 -9 -10 -10 -10 -10 -12 -12 -12 -15 -9 -8 -7 -7 -5 -4 -3 -2 -2 -2 -2 -2 -2 -1 -1 -1 -1 -0 -1 -1 -1 -3 -5 -15 -17 -19 -21 -21 -20 -21 -22 -24 -24
-9 -9 -10 -9 -9 -10 -9 -8 -8 -7 -7 -10 -7 -8 -6 -5 -4 -2 -2 -2 -2 -2 -2 -2 -1 -1 -1 -1 -1 -1 -2 -4 -9 -13 -15 -16 -18 -18 -18 -19 -21 -22 -23
-9 -9 -9 -7 -7 -7 -7 -7 -7 -7 -7 -7 -8 -7 -7 -6 -5 -4 -3 -2 -2 -2 -2 -2 -2 -1 -1 -1 -1 -2 -1 -2 -4 -13 -16 -16 -16 -17 -18 -18 -18 -20 -21
-8 -8 -7 -6 -7 -7 -7 -8 -8 -8 -8 -8 -8 -8 -8 -7 -6 -5 -4 -3 -3 -2 -2 -2 -2 -1 -2 -2 -2 -2 -2 -2 -3 -11 -18 -18 -16 -17 -18 -18 -18 -19 -21
-8 -7 -7 -7 -7 -8 -8 -8 -8 -8 -8 -8 -8 -8 -8 -7 -7 -6 -5 -4 -3 -3 -3 -2 -2 -2 -2 -2 -2 -2 -2 -2 -2 -4 -8 -19 -18 -18 -18 -18 -18 -17 -18
-8 -8 -7 -8 -8 -8 -8 -9 -8 -8 -8 -8 -9 -9 -8 -7 -7 -6 -6 -5 -4 -4 -4 -3 -3 -2 -2 -2 -2 -2 -2 -3 -3 -3 -4 -19 -20 -19 -18 -19 -19 -18 -17
-9 -8 -8 -8 -9 -8 -8 -9 -9 -9 -9 -9 -9 -9 -8 -8 -8 -7 -6 -5 -5 -4 -4 -4 -3 -3 -2 -2 -2 -2 -2 -2 -3 -3 -4 -17 -19 -17 -17 -17 -19 -19 -18
-8 -8 -9 -9 -9 -8 -8 -8 -9 -9 -8 -9 -9 -9 -9 -8 -8 -8 -6 -6 -5 -4 -4 -4 -3 -3 -3 -2 -2 -2 -2 -3 -3 -3 -5 -14 -15 -15 -16 -16 -17 -18 -9
-9 -9 -9 -9 -9 -8 -8 -9 -9 -9 -10 -10 -10 -9 -9 -8 -8 -7 -7 -6 -5 -4 -4 -3 -3 -3 -3 -2 -2 -2 -3 -3 -3 -3 -9 -14 -15 -16 -18 -16 -13 -7 -4
-9 -9 -9 -9 -8 -9 -10 -10 -10 -10 -10 -10 -9 -10 -9 -8 -8 -8 -7 -6 -5 -4 -4 -3 -3 -3 -3 -2 -2 -2 -3 -3 -3 -7 -11 -14 -15 -16 -14 -10 -4 -5 -5

GFSGL_850_dewp_093.txt.gz
Dewpoint
2 3 4 4 6 8 8 8 9 10 10 10 10 9 9 9 8 8 8 9 9 8 8 7 8 8 9 9 8 8 8 5 2 2 2 3 4 4 4 4 2 2 2
-1 -1 -0 0 -0 0 1 2 3 3 4 4 5 6 8 9 9 9 9 9 9 10 9 8 9 9 9 9 9 8 5 2 2 1 2 3 4 5 5 4 2 2 2
-5 -5 -5 -5 -4 -3 -3 -2 -1 -1 -0 1 3 3 3 3 4 8 10 10 10 10 10 10 10 10 10 9 8 8 3 2 1 1 2 3 3 4 3 3 2 2 1
-5 -5 -5 -5 -5 -6 -7 -6 -5 -3 -2 -0 -0 1 3 4 5 5 9 9 9 9 9 10 9 10 9 9 8 6 3 2 1 1 1 2 4 4 3 2 2 2 1
-6 -6 -6 -6 -6 -7 -7 -7 -8 -7 -4 -1 0 1 2 2 4 6 8 8 8 9 9 9 9 9 9 8 7 4 2 2 1 1 1 2 3 3 3 2 2 1 1
-8 -8 -9 -8 -8 -8 -8 -7 -7 -7 -7 -6 -2 1 2 3 4 4 7 7 8 8 8 8 8 8 8 7 4 3 2 1 0 1 1 1 2 2 2 1 1 1 1
-13 -14 -14 -14 -13 -11 -9 -8 -6 -6 -6 -5 -4 -2 1 3 3 4 5 6 7 8 8 8 7 7 6 5 4 2 1 0 -0 0 -1 -1 0 0 0 1 1 1 0
-16 -17 -17 -19 -19 -18 -16 -13 -11 -7 -5 -5 -4 -2 -0 1 3 4 4 4 5 6 6 6 6 6 5 3 2 1 0 -0 -1 -2 -3 -3 -2 -1 0 0 1 0 -0
-18 -18 -18 -20 -21 -21 -21 -21 -19 -15 -10 -5 -3 -1 0 2 2 4 4 4 4 4 4 4 3 3 2 2 1 0 -1 -2 -2 -3 -3 -2 -1 -0 -0 -0 -0 -0 -1
-19 -19 -19 -20 -21 -22 -21 -22 -23 -22 -20 -16 -3 -1 1 1 2 2 3 4 3 3 3 3 3 2 1 1 1 -0 -2 -2 -3 -2 -1 -0 -0 -3 -9 -11 -5 -6 -2
-17 -18 -18 -19 -19 -18 -17 -17 -18 -18 -18 -17 -16 -3 -1 0 1 1 2 2 3 3 3 3 2 2 1 1 0 -1 -2 -2 -1 -1 -1 -1 -5 -12 -16 -16 -15 -14 -13
-19 -20 -19 -18 -17 -15 -13 -15 -14 -13 -13 -14 -16 -13 -3 -0 -0 1 1 2 2 2 3 2 2 1 1 0 -0 -1 -1 -1 -1 -1 -1 -2 -8 -14 -20 -20 -17 -15 -13
-10 -13 -18 -19 -18 -15 -13 -11 -10 -11 -12 -12 -11 -12 -13 -3 -1 -0 0 0 0 1 2 2 2 1 1 -0 -1 -1 -1 -1 -0 -1 -1 -2 -10 -18 -21 -20 -19 -17 -17
-15 -15 -14 -14 -15 -14 -12 -10 -10 -10 -10 -7 -8 -11 -12 -12 -7 -2 -1 -1 -0 -0 0 1 1 1 1 0 -1 -1 -1 -1 -1 -1 -1 -4 -16 -20 -21 -20 -21 -22 -22
-14 -13 -13 -11 -10 -10 -11 -10 -10 -11 -9 -6 -6 -6 -6 -6 -8 -5 -3 -2 -1 -1 -1 -0 -0 -0 -0 -1 -0 -1 -1 -1 -1 -1 -2 -6 -16 -19 -20 -20 -21 -21 -23
-13 -13 -12 -10 -9 -9 -10 -12 -12 -12 -11 -10 -7 -6 -6 -6 -6 -5 -5 -3 -2 -2 -2 -1 -1 -1 -1 -1 -0 -1 -1 -1 -1 -2 -2 -6 -16 -19 -19 -19 -20 -22 -24
-12 -11 -11 -9 -9 -9 -9 -10 -12 -14 -12 -11 -7 -7 -7 -7 -6 -6 -5 -4 -3 -2 -2 -2 -2 -1 -1 -1 -1 -1 -1 -1 -1 -2 -2 -5 -15 -18 -17 -19 -20 -22 -24
-10 -11 -9 -9 -9 -8 -7 -9 -9 -10 -10 -12 -10 -8 -8 -7 -7 -6 -6 -4 -3 -2 -2 -2 -2 -2 -2 -1 -1 -1 -1 -1 -1 -2 -2 -4 -14 -16 -17 -19 -20 -22 -23
-9 -9 -10 -8 -8 -8 -7 -7 -7 -7 -9 -9 -9 -9 -8 -8 -7 -7 -6 -5 -4 -3 -3 -3 -2 -2 -2 -2 -1 -1 -1 -1 -2 -2 -3 -5 -13 -13 -16 -18 -20 -21 -22
-10 -9 -8 -8 -8 -7 -7 -7 -8 -8 -8 -9 -9 -8 -8 -8 -8 -7 -7 -6 -5 -4 -4 -3 -3 -3 -2 -2 -2 -2 -2 -2 -2 -3 -3 -5 -9 -12 -14 -16 -17 -17 -20
-9 -9 -9 -8 -8 -7 -7 -8 -8 -8 -8 -9 -9 -9 -9 -8 -9 -8 -7 -7 -6 -5 -5 -4 -4 -3 -3 -2 -2 -2 -2 -2 -3 -3 -3 -4 -8 -13 -12 -14 -16 -17 -18
-9 -9 -9 -9 -9 -8 -8 -9 -8 -8 -8 -8 -9 -9 -10 -9 -9 -8 -8 -8 -7 -6 -5 -5 -5 -4 -3 -3 -2 -2 -2 -3 -3 -2 -3 -3 -7 -13 -14 -14 -16 -17 -17
-9 -9 -9 -8 -8 -9 -9 -9 -9 -8 -8 -9 -9 -9 -9 -9 -8 -9 -8 -8 -7 -6 -6 -5 -5 -4 -4 -3 -3 -3 -2 -2 -2 -2 -2 -3 -4 -6 -16 -15 -17 -17 -17
-10 -10 -10 -10 -10 -9 -9 -9 -9 -8 -9 -9 -10 -9 -9 -10 -9 -9 -9 -8 -8 -7 -6 -5 -5 -4 -4 -4 -3 -3 -3 -2 -2 -2 -3 -3 -4 -5 -17 -17 -17 -17 -18
-10 -10 -9 -9 -9 -9 -9 -9 -9 -10 -10 -11 -10 -10 -10 -9 -9 -9 -9 -8 -8 -7 -6 -5 -5 -4 -4 -4 -3 -3 -3 -2 -2 -3 -3 -4 -4 -9 -17 -16 -15 -15 -16
-10 -10 -10 -10 -10 -10 -10 -10 -11 -11 -11 -11 -10 -10 -10 -9 -9 -8 -8 -8 -7 -7 -6 -5 -4 -4 -4 -4 -3 -3 -3 -3 -3 -3 -4 -4 -5 -11 -13 -9 -14 -16 -16

GFSGL_850_dewp_096.txt.gz
Dewpoint
4 5 5 6 8 8 9 9 9 9 9 10 10 10 9 8 8 9 8 9 9 9 9 9 9 10 9 8 8 8 7 7 8 8 4 3 3 3 3 4 4 4 3
-2 -2 -1 -0 1 1 2 3 3 4 4 4 5 5 6 9 9 9 9 8 8 9 9 10 9 8 8 9 9 9 8 8 9 9 6 3 2 3 4 4 4 4 2
-4 -5 -5 -5 -6 -6 -5 -4 -3 -1 -0 1 1 3 3 3 4 7 9 10 10 9 10 9 10 9 8 9 9 9 9 9 9 7 3 2 2 3 4 4 3 2 1
-6 -6 -6 -6 -6 -6 -6 -6 -7 -7 -6 -3 -0 1 1 2 3 5 6 8 9 9 9 9 9 10 10 9 10 9 9 8 8 3 2 2 2 3 4 2 3 3 1
-8 -8 -9 -9 -8 -8 -7 -7 -7 -7 -7 -7 -7 -4 -1 1 2 3 4 5 8 8 9 9 9 9 9 9 9 9 9 8 6 3 2 2 2 2 1 2 2 2 0
-11 -12 -13 -14 -15 -15 -15 -14 -11 -9 -7 -6 -6 -6 -6 -2 2 3 4 4 5 7 7 7 8 9 9 8 9 9 9 8 5 3 2 2 1 1 1 1 2 1 1
-14 -15 -16 -16 -17 -19 -20 -20 -20 -19 -19 -15 -7 -5 -4 -3 -0 2 4 4 5 6 6 6 7 8 8 8 9 8 7 5 4 3 3 3 1 1 1 1 1 0 1
-16 -18 -19 -19 -20 -21 -21 -21 -21 -22 -22 -21 -20 -15 -6 -4 -3 0 3 4 4 4 5 6 6 7 6 7 7 6 6 4 4 3 2 2 2 1 -0 0 0 0 1
-15 -17 -18 -18 -19 -20 -20 -21 -21 -22 -22 -22 -22 -21 -20 -11 -2 0 1 2 3 3 4 5 5 6 5 5 5 5 4 4 2 2 1 1 -1 -1 -1 -0 0 0 0
-15 -15 -16 -16 -17 -18 -19 -20 -21 -21 -21 -20 -19 -18 -19 -17 -5 -1 0 1 2 2 3 3 4 4 4 4 4 3 2 1 1 0 0 -1 -2 -1 -1 -0 -0 0 -0
-16 -16 -17 -16 -13 -15 -15 -15 -14 -15 -16 -18 -18 -18 -17 -18 -11 -2 -1 0 1 1 2 3 3 3 3 3 2 2 1 1 -0 -1 -1 -1 -1 -1 -0 -1 -5 -6 -6
-21 -23 -24 -23 -19 -17 -16 -17 -17 -15 -13 -13 -15 -18 -18 -15 -14 -8 -1 -0 0 0 1 1 2 2 2 2 2 2 1 0 -1 -1 -1 -1 -1 -1 -2 -8 -12 -14 -16
-18 -19 -20 -23 -23 -19 -14 -12 -12 -11 -11 -12 -13 -14 -16 -16 -16 -14 -9 -2 -1 -0 -0 0 1 1 1 1 1 1 1 -0 -1 -1 -1 -1 -1 -2 -8 -14 -17 -17 -16
-14 -14 -14 -15 -16 -16 -13 -9 -9 -10 -9 -10 -10 -11 -12 -13 -15 -14 -10 -7 -3 -2 -1 -0 -0 0 -0 0 0 0 0 -0 -1 -1 -1 -1 -1 -4 -11 -17 -20 -19 -16
-12 -13 -13 -13 -13 -13 -12 -9 -8 -8 -8 -9 -11 -7 -6 -7 -8 -7 -6 -6 -5 -3 -2 -2 -1 -1 -0 -1 -1 -1 -0 -0 -1 -1 -1 -1 -1 -4 -13 -18 -20 -19 -18
-10 -11 -11 -11 -12 -11 -10 -9 -9 -8 -9 -11 -10 -8 -7 -7 -7 -7 -6 -6 -6 -6 -3 -2 -2 -2 -1 -1 -1 -1 -1 -1 -1 -1 -1 -1 -2 -3 -12 -18 -19 -20 -20
-11 -10 -10 -10 -11 -10 -8 -7 -8 -10 -9 -10 -10 -9 -8 -7 -7 -7 -7 -6 -6 -5 -4 -3 -2 -2 -2 -1 -1 -1 -1 -1 -1 -1 -1 -1 -2 -2 -11 -17 -18 -18 -19
-10 -10 -10 -9 -9 -9 -9 -7 -8 -8 -8 -10 -10 -9 -8 -8 -8 -7 -7 -7 -7 -6 -5 -3 -2 -2 -2 -2 -2 -2 -1 -2 -2 -2 -2 -2 -2 -2 -8 -15 -16 -17 -18
-11 -11 -10 -9 -9 -9 -8 -8 -7 -8 -8 -8 -9 -9 -9 -8 -8 -8 -8 -8 -7 -7 -6 -5 -4 -3 -3 -3 -2 -2 -2 -2 -2 -2 -2 -2 -3 -3 -5 -14 -16 -17 -18
-11 -11 -9 -9 -9 -9 -8 -8 -7 -7 -8 -9 -9 -9 -10 -9 -9 -9 -9 -8 -8 -8 -7 -6 -5 -4 -3 -3 -3 -3 -2 -2 -3 -2 -2 -2 -3 -3 -4 -10 -16 -17 -18
-11 -10 -9 -9 -9 -8 -8 -8 -8 -8 -9 -9 -9 -10 -9 -8 -9 -10 -10 -9 -8 -8 -8 -7 -6 -5 -4 -4 -3 -3 -3 -3 -3 -2 -2 -3 -3 -4 -4 -6 -9 -16 -18
-10 -10 -11 -11 -11 -10 -9 -9 -9 -9 -9 -8 -9 -9 -10 -10 -10 -9 -9 -9 -9 -9 -8 -7 -6 -6 -5 -5 -4 -4 -3 -3 -3 -3 -3 -3 -3 -3 -4 -6 -8 -14 -15
-10 -10 -10 -10 -10 -10 -10 -10 -9 -9 -9 -9 -9 -9 -10 -10 -10 -10 -9 -10 -10 -9 -8 -8 -7 -6 -6 -5 -4 -4 -4 -3 -3 -3 -3 -3 -3 -4 -5 -6 -6 -12 -14
-10 -10 -10 -10 -10 -10 -10 -9 -9 -9 -9 -9 -10 -11 -11 -11 -10 -10 -10 -10 -9 -9 -9 -8 -7 -7 -6 -5 -5 -4 -4 -3 -3 -3 -3 -3 -3 -3 -4 -6 -9 -12 -15
-11 -11 -11 -10 -10 -10 -10 -10 -10 -10 -11 -11 -11 -11 -11 -11 -11 -10 -9 -9 -9 -9 -9 -8 -7 -6 -5 -5 -4 -4 -4 -4 -3 -3 -3 -3 -3 -4 -4 -5 -7 -9 -15
-11 -11 -11 -11 -11 -11 -11 -11 -11 -11 -11 -11 -11 -11 -11 -11 -10 -10 -10 -9 -9 -9 -8 -7 -7 -6 -5 -5 -4 -4 -4 -4 -3 -3 -4 -4 -4 -4 -5 -5 -9 -15 -16

GFSGL_850_dewp_099.txt.gz
Dewpoint
2 3 2 3 5 7 7 8 8 8 8 9 9 8 9 8 9 9 9 9 9 9 9 10 9 9 9 9 9 10 9 9 9 8 8 8 7 6 3 3 3 3 3
-2 -3 -4 -4 -2 1 -3 -1 -0 0 2 2 4 5 6 8 9 9 9 8 9 9 9 9 9 9 9 8 9 8 8 8 8 8 8 7 6 5 3 3 4 4 4
-5 -5 -5 -5 -5 -6 -6 -6 -6 -6 -6 -3 -2 -0 1 2 4 6 9 9 9 9 8 8 8 9 9 9 8 9 8 8 8 8 7 8 7 4 3 4 3 4 4
-7 -8 -8 -9 -9 -9 -9 -8 -8 -7 -7 -6 -6 -5 -3 -0 1 2 4 5 7 8 9 9 9 9 10 10 9 8 8 9 9 9 9 9 8 4 3 3 3 4 3
-11 -11 -12 -14 -15 -15 -16 -16 -16 -16 -14 -11 -8 -7 -6 -5 -2 0 2 3 5 6 8 7 8 8 9 9 9 9 9 9 9 8 8 8 6 3 3 3 3 4 2
-14 -15 -15 -15 -16 -18 -19 -19 -19 -19 -20 -20 -20 -19 -11 -6 -4 -1 1 2 3 4 6 6 7 7 8 8 9 9 9 8 8 8 8 8 5 3 3 3 3 2 2
-14 -15 -17 -17 -18 -19 -19 -20 -20 -20 -20 -20 -21 -21 -21 -20 -11 -6 -4 -1 2 3 4 5 5 6 7 7 8 8 8 8 8 8 8 8 5 3 3 2 2 1 0
-15 -16 -17 -17 -18 -18 -18 -19 -19 -20 -20 -20 -20 -19 -19 -21 -22 -22 -13 -4 -1 2 3 4 5 5 5 6 7 7 8 8 7 7 6 5 4 3 4 4 3 1 1
-15 -15 -16 -16 -17 -17 -17 -17 -18 -19 -20 -20 -20 -20 -20 -20 -20 -21 -13 -12 -6 -1 1 3 3 4 5 5 5 6 6 6 6 5 5 5 5 5 4 2 1 1 1
-16 -16 -18 -20 -21 -21 -20 -20 -19 -17 -17 -19 -20 -18 -17 -17 -18 -19 -18 -2 -1 -2 -1 1 3 3 4 4 4 4 4 5 5 5 4 4 3 2 2 -0 -1 -1 0
-20 -23 -24 -25 -24 -23 -22 -21 -20 -18 -17 -15 -13 -14 -15 -15 -16 -15 -13 -6 -2 -1 -1 -0 0 2 3 3 3 3 3 4 4 3 3 3 3 2 0 -1 -1 -1 0
-19 -20 -21 -21 -21 -20 -20 -18 -17 -14 -12 -12 -13 -14 -15 -14 -14 -14 -14 -12 -6 -2 -2 -1 -0 -0 2 2 2 2 2 2 2 2 2 2 1 0 -1 -1 -1 -0 -0
-18 -17 -15 -15 -15 -15 -16 -16 -16 -15 -11 -9 -9 -10 -11 -13 -14 -12 -12 -11 -9 -5 -3 -2 -1 -0 1 1 1 1 1 1 2 1 1 -0 -0 -1 -1 -1 -0 -2 -4
-13 -13 -13 -12 -13 -13 -14 -14 -13 -12 -9 -9 -9 -8 -10 -8 -10 -10 -8 -6 -6 -6 -5 -3 -2 -1 -1 0 0 1 0 0 1 1 0 -1 -1 -1 -1 -1 -2 -8 -9
-13 -13 -13 -13 -12 -11 -12 -12 -11 -10 -8 -8 -9 -8 -8 -8 -9 -7 -7 -7 -7 -7 -6 -6 -4 -2 -2 -1 -1 -0 0 -0 -0 0 0 -0 -1 -1 -1 -2 -7 -11 -12
-14 -13 -12 -12 -11 -10 -10 -11 -12 -8 -7 -8 -9 -8 -9 -9 -7 -7 -7 -7 -7 -7 -6 -6 -5 -3 -2 -2 -2 -1 -1 -1 -0 -1 -1 -1 -1 -1 -1 -5 -11 -14 -15
-13 -13 -13 -12 -12 -12 -11 -10 -9 -10 -9 -9 -10 -9 -9 -9 -9 -8 -7 -8 -8 -7 -7 -6 -6 -5 -3 -2 -2 -2 -1 -1 -1 -1 -1 -1 -1 -2 -2 -4 -10 -14 -14
-13 -13 -12 -12 -11 -10 -9 -9 -9 -8 -9 -9 -8 -8 -9 -10 -9 -8 -8 -8 -9 -8 -8 -8 -7 -6 -4 -3 -3 -3 -2 -2 -2 -2 -2 -2 -2 -2 -2 -3 -6 -14 -15
-13 -12 -11 -10 -9 -9 -9 -9 -9 -9 -9 -8 -8 -8 -10 -9 -10 -10 -9 -9 -9 -9 -9 -8 -8 -7 -6 -4 -4 -3 -3 -3 -2 -2 -2 -2 -2 -2 -3 -3 -3 -12 -15
-12 -12 -10 -10 -10 -11 -11 -11 -9 -8 -8 -8 -9 -10 -9 -9 -10 -10 -10 -10 -9 -9 -9 -9 -9 -7 -7 -6 -4 -4 -4 -3 -3 -3 -3 -2 -2 -2 -2 -3 -4 -6 -13
-11 -10 -10 -10 -10 -10 -10 -10 -10 -9 -9 -9 -9 -10 -9 -8 -8 -9 -11 -11 -9 -9 -9 -9 -9 -8 -7 -6 -5 -4 -4 -4 -4 -3 -3 -3 -3 -3 -3 -3 -4 -5 -12
-10 -10 -11 -10 -10 -10 -10 -10 -9 -9 -9 -9 -10 -10 -9 -9 -9 -10 -11 -11 -10 -9 -9 -10 -9 -9 -8 -7 -6 -5 -5 -4 -4 -4 -4 -3 -3 -3 -3 -3 -4 -5 -6
-10 -10 -11 -10 -10 -10 -11 -10 -10 -10 -9 -9 -9 -9 -9 -10 -11 -11 -11 -11 -10 -10 -10 -10 -9 -9 -8 -7 -6 -6 -5 -4 -4 -4 -4 -4 -3 -4 -4 -4 -4 -5 -8
-10 -11 -11 -11 -11 -11 -11 -11 -11 -11 -11 -10 -11 -11 -11 -11 -11 -11 -11 -11 -10 -10 -10 -9 -9 -9 -8 -7 -6 -6 -5 -5 -4 -4 -4 -4 -4 -4 -4 -4 -5 -5 -6
-10 -11 -11 -11 -11 -11 -11 -11 -11 -11 -11 -11 -11 -11 -11 -12 -12 -11 -11 -11 -10 -10 -9 -9 -9 -9 -8 -7 -6 -6 -5 -5 -4 -4 -4 -4 -4 -4 -4 -4 -5 -5 -6
-11 -11 -11 -11 -11 -12 -12 -12 -12 -12 -12 -12 -12 -12 -12 -12 -11 -11 -11 -10 -10 -10 -10 -9 -9 -8 -7 -7 -6 -5 -5 -5 -5 -4 -4 -4 -4 -5 -4 -4 -5 -5 -6

GFSGL_850_dewp_102.txt.gz
Dewpoint
0 -1 -2 -1 0 4 3 -0 -1 0 1 2 4 7 8 9 8 8 8 8 10 10 9 9 8 6 7 9 9 9 9 10 9 9 9 9 9 8 8 8 6 5 5
-1 -0 -1 -3 -4 -5 0 1 -5 -6 -5 -4 -2 1 1 3 5 7 9 8 9 8 9 9 9 8 8 9 9 9 9 9 9 9 8 8 8 7 7 7 5 5 5
-0 -3 -6 -9 -10 -10 -10 -10 -10 -9 -8 -7 -6 -6 -5 -1 1 3 4 6 8 9 9 9 8 8 8 8 9 9 9 9 9 8 8 8 8 7 7 6 6 5 5
-11 -12 -13 -13 -14 -16 -17 -16 -18 -18 -18 -17 -17 -14 -10 -7 -6 -5 -1 1 3 5 6 8 8 9 9 9 9 9 8 9 8 9 8 8 8 8 7 7 6 5 5
-13 -14 -14 -15 -16 -17 -17 -17 -19 -19 -19 -19 -18 -19 -19 -19 -16 -10 -6 -5 -2 0 2 4 5 7 8 8 9 9 9 9 9 9 9 9 8 8 7 6 6 5 5
-12 -13 -14 -15 -16 -17 -17 -17 -18 -18 -18 -19 -19 -19 -19 -19 -20 -21 -21 -16 -8 -4 -3 0 3 4 6 7 8 8 8 8 8 8 8 8 8 8 7 7 5 5 4
-14 -15 -16 -16 -17 -17 -17 -17 -17 -17 -18 -18 -18 -18 -19 -19 -19 -20 -20 -21 -22 -21 -11 -5 -1 3 4 5 5 7 7 7 7 7 8 8 8 7 8 8 6 4 3
-16 -16 -16 -16 -17 -19 -21 -23 -24 -24 -23 -23 -22 -21 -20 -21 -21 -21 -21 -21 -21 -20 -17 -12 -4 -3 2 4 4 4 6 7 7 7 6 7 7 8 8 8 6 4 4
-15 -17 -20 -22 -23 -23 -23 -22 -21 -21 -22 -22 -22 -21 -20 -21 -21 -20 -20 -21 -20 -20 -15 -15 -8 -3 -1 2 3 4 5 5 6 7 7 6 6 6 6 5 4 4 4
-19 -20 -20 -20 -20 -21 -20 -21 -20 -20 -19 -19 -20 -18 -16 -16 -17 -18 -19 -17 -16 -17 -18 -5 -2 -1 -0 0 2 3 4 4 5 5 5 5 5 5 5 4 4 4 5
-19 -20 -20 -20 -20 -19 -19 -19 -18 -18 -18 -18 -17 -17 -14 -12 -12 -13 -15 -15 -15 -14 -11 -7 -4 -2 -1 -0 1 2 3 3 4 4 4 5 4 5 4 4 5 4 3
-19 -20 -20 -19 -18 -17 -15 -15 -15 -15 -15 -14 -13 -12 -12 -12 -12 -13 -12 -8 -8 -6 -6 -5 -5 -4 -3 -2 -0 1 2 2 3 3 3 3 4 4 4 3 3 2 1
-17 -16 -16 -16 -16 -17 -16 -16 -14 -14 -13 -12 -11 -8 -9 -10 -11 -13 -11 -7 -7 -6 -6 -6 -6 -7 -5 -3 -2 -0 0 1 2 2 2 2 3 3 3 2 2 1 -0
-16 -17 -17 -16 -16 -14 -14 -13 -11 -11 -12 -9 -8 -7 -8 -9 -10 -10 -10 -7 -7 -7 -7 -7 -6 -6 -6 -3 -2 -1 -0 -0 1 1 1 1 2 1 1 1 1 -0 -0
-17 -16 -15 -15 -14 -14 -13 -12 -12 -12 -10 -8 -7 -7 -7 -8 -8 -8 -7 -7 -7 -7 -7 -7 -7 -7 -6 -6 -3 -2 -1 -1 -1 -0 -0 0 0 0 -0 0 -0 -0 -1
-15 -15 -15 -14 -13 -13 -12 -12 -13 -12 -11 -10 -10 -8 -8 -8 -8 -7 -7 -8 -8 -7 -8 -8 -8 -7 -6 -6 -5 -3 -3 -2 -1 -1 -1 -0 -0 -0 -1 -1 -0 -1 -1
-14 -14 -14 -13 -13 -12 -12 -10 -9 -12 -11 -12 -11 -8 -7 -8 -8 -8 -7 -8 -8 -8 -9 -9 -9 -8 -8 -7 -6 -4 -3 -3 -2 -2 -1 -2 -1 -1 -1 -2 -2 -2 -2
-14 -14 -13 -13 -12 -11 -10 -9 -10 -11 -9 -9 -10 -9 -8 -8 -9 -9 -8 -8 -8 -9 -10 -9 -10 -9 -8 -8 -7 -6 -4 -4 -3 -3 -2 -2 -2 -2 -2 -2 -3 -3 -4
-14 -13 -13 -12 -11 -10 -10 -11 -10 -10 -9 -9 -9 -10 -11 -11 -10 -10 -9 -9 -10 -10 -10 -10 -10 -9 -9 -9 -7 -6 -5 -4 -4 -4 -3 -3 -2 -2 -2 -2 -2 -3 -4
-13 -12 -11 -11 -11 -11 -10 -10 -10 -10 -10 -10 -10 -10 -10 -10 -10 -10 -9 -9 -10 -11 -11 -9 -9 -9 -10 -9 -7 -7 -6 -5 -4 -4 -4 -4 -3 -3 -3 -2 -2 -3 -4
-12 -12 -11 -11 -11 -11 -11 -11 -11 -11 -10 -10 -10 -10 -9 -9 -9 -9 -9 -10 -11 -11 -10 -10 -9 -9 -10 -9 -8 -8 -7 -5 -5 -5 -4 -4 -4 -4 -4 -3 -3 -3 -4
-11 -11 -11 -11 -11 -11 -11 -11 -11 -11 -11 -11 -10 -10 -10 -10 -10 -11 -11 -12 -12 -11 -10 -10 -10 -10 -10 -9 -9 -8 -7 -6 -6 -5 -5 -5 -5 -4 -4 -4 -4 -4 -4
-10 -10 -10 -11 -11 -11 -11 -11 -12 -12 -12 -12 -11 -11 -11 -11 -11 -12 -12 -12 -12 -12 -11 -10 -10 -10 -10 -10 -9 -9 -8 -7 -6 -5 -5 -5 -5 -5 -5 -5 -4 -4 -5
-10 -10 -11 -11 -11 -12 -12 -12 -12 -12 -12 -12 -12 -12 -12 -12 -12 -12 -12 -12 -12 -11 -11 -10 -10 -10 -10 -9 -9 -9 -8 -7 -6 -5 -5 -5 -5 -5 -5 -5 -5 -4 -5
-11 -11 -11 -11 -11 -12 -12 -12 -13 -13 -13 -13 -12 -12 -12 -12 -12 -12 -12 -11 -11 -10 -10 -10 -10 -10 -9 -9 -9 -8 -7 -7 -6 -5 -5 -5 -5 -5 -5 -5 -5 -5 -5
-11 -11 -11 -11 -11 -12 -12 -13 -13 -13 -13 -13 -13 -12 -12 -12 -12 -12 -11 -11 -10 -10 -10 -9 -9 -9 -9 -9 -9 -8 -7 -6 -6 -5 -5 -5 -5 -5 -5 -5 -5 -5 -6

GFSGL_850_dewp_105.txt.gz
Dewpoint
2 1 -2 -2 -3 -3 2 3 1 -2 -1 -4 -3 -3 -0 1 4 7 9 9 8 9 8 10 9 8 9 9 9 9 9 8 8 9 8 8 9 9 9 9 9 8 8
1 0 -0 -2 -6 -7 -7 -4 -4 -2 -9 -10 -7 -6 -5 -5 -2 -0 1 4 7 8 8 9 8 9 9 8 8 9 8 7 8 9 9 9 8 9 9 9 8 7 7
-3 -4 -4 -6 -10 -10 -13 -13 -12 -13 -14 -15 -15 -16 -16 -13 -9 -6 -4 -1 1 3 5 6 8 8 9 9 9 9 9 8 8 9 9 9 8 8 8 7 7 7 6
-9 -10 -14 -14 -15 -14 -15 -16 -16 -16 -17 -17 -17 -18 -18 -18 -19 -19 -18 -14 -9 -5 -2 2 4 6 8 8 8 9 8 9 9 9 9 8 8 8 7 6 7 7 6
-12 -14 -14 -14 -15 -15 -16 -16 -17 -17 -17 -17 -17 -17 -17 -17 -17 -17 -18 -18 -19 -19 -19 -12 -6 -0 3 5 6 7 8 8 8 7 8 8 8 8 7 7 7 7 6
-13 -14 -15 -16 -16 -16 -17 -18 -20 -22 -23 -24 -24 -24 -23 -21 -20 -19 -19 -18 -18 -17 -17 -18 -20 -18 -8 -2 3 5 6 7 8 8 8 8 8 8 8 7 7 6 5
-15 -15 -16 -16 -18 -22 -26 -27 -28 -29 -29 -28 -28 -28 -29 -29 -29 -28 -25 -23 -21 -20 -19 -19 -18 -17 -19 -15 -7 1 4 5 6 7 7 7 8 8 8 8 7 7 7
-15 -15 -19 -24 -26 -25 -24 -23 -22 -21 -20 -20 -20 -20 -20 -22 -22 -22 -23 -24 -25 -24 -23 -22 -20 -20 -17 -14 -10 -7 -3 2 4 5 6 6 7 7 7 8 8 7 6
-18 -22 -23 -21 -21 -20 -19 -19 -18 -18 -18 -18 -18 -18 -17 -17 -17 -17 -16 -16 -18 -20 -23 -24 -20 -17 -16 -13 -3 -1 -2 0 2 3 3 6 6 7 7 7 6 5 4
-22 -20 -19 -18 -18 -18 -18 -17 -18 -17 -18 -18 -18 -17 -16 -16 -15 -14 -13 -12 -13 -14 -16 -18 -21 -17 -5 -3 -3 -2 -1 -1 1 2 3 4 5 6 5 6 6 5 3
-17 -16 -16 -15 -16 -17 -18 -17 -18 -18 -18 -18 -18 -18 -17 -16 -16 -15 -14 -13 -10 -8 -7 -7 -9 -17 -13 -4 -5 -3 -2 -1 -0 1 3 3 4 5 5 5 5 5 5
-16 -17 -18 -19 -18 -18 -18 -17 -17 -15 -15 -15 -14 -14 -14 -11 -10 -10 -10 -7 -7 -7 -7 -7 -7 -7 -7 -8 -6 -7 -4 -2 -1 0 1 2 3 3 4 5 5 5 5
-19 -19 -19 -18 -18 -17 -16 -16 -17 -16 -15 -14 -12 -11 -10 -9 -11 -12 -11 -10 -8 -7 -7 -7 -7 -7 -7 -6 -7 -6 -7 -3 -2 -1 -0 1 2 3 3 4 4 4 4
-19 -18 -18 -18 -17 -17 -16 -15 -14 -14 -13 -12 -9 -8 -8 -8 -8 -10 -10 -8 -8 -8 -8 -8 -8 -8 -7 -7 -7 -6 -5 -4 -2 -1 -1 -0 1 2 2 2 2 3 2
-18 -18 -17 -17 -16 -16 -15 -14 -14 -14 -10 -8 -8 -8 -8 -8 -8 -9 -7 -7 -8 -7 -7 -8 -9 -9 -10 -8 -8 -7 -6 -5 -3 -2 -2 -1 -1 0 0 0 1 1 1
-18 -17 -16 -16 -15 -14 -14 -15 -14 -10 -9 -9 -9 -8 -8 -8 -8 -8 -8 -7 -8 -7 -7 -7 -9 -10 -10 -10 -9 -8 -8 -5 -4 -3 -3 -2 -1 -1 -0 -0 -0 -0 0
-17 -16 -16 -14 -14 -12 -12 -10 -10 -13 -13 -10 -10 -9 -8 -8 -8 -8 -8 -7 -8 -7 -7 -9 -10 -10 -10 -9 -9 -9 -8 -6 -5 -4 -3 -3 -2 -2 -1 -1 -1 -0 -1
-16 -15 -14 -13 -12 -11 -10 -10 -10 -11 -10 -11 -12 -10 -9 -9 -9 -9 -8 -8 -8 -9 -9 -11 -11 -10 -10 -9 -9 -10 -9 -7 -6 -5 -4 -4 -3 -3 -2 -2 -2 -2 -2
-15 -14 -13 -12 -11 -10 -11 -11 -11 -11 -11 -11 -12 -12 -11 -9 -9 -10 -9 -9 -9 -8 -9 -10 -11 -10 -9 -9 -9 -10 -8 -7 -6 -5 -5 -5 -4 -4 -3 -3 -3 -2 -2
-14 -12 -11 -10 -11 -12 -12 -11 -11 -11 -11 -11 -11 -11 -11 -11 -10 -9 -10 -9 -9 -10 -10 -11 -11 -11 -10 -9 -9 -9 -9 -8 -8 -6 -5 -5 -5 -5 -4 -4 -4 -4 -3
-14 -12 -10 -10 -11 -11 -11 -11 -11 -11 -12 -12 -11 -11 -10 -10 -10 -11 -12 -11 -11 -11 -12 -11 -11 -11 -11 -10 -10 -10 -9 -9 -7 -7 -6 -5 -5 -5 -5 -5 -4 -4 -4
-13 -11 -10 -11 -11 -11 -11 -11 -12 -12 -12 -12 -12 -12 -11 -11 -12 -12 -12 -12 -12 -12 -12 -12 -11 -11 -11 -10 -10 -10 -9 -9 -8 -7 -6 -5 -5 -5 -5 -5 -5 -5 -5
-12 -11 -11 -11 -11 -11 -12 -12 -12 -12 -12 -12 -13 -13 -13 -12 -12 -12 -12 -12 -12 -12 -12 -11 -11 -11 -10 -10 -10 -10 -10 -9 -9 -7 -7 -6 -6 -6 -6 -5 -6 -6 -6
-11 -11 -11 -11 -11 -11 -11 -12 -12 -13 -12 -13 -13 -13 -13 -13 -13 -12 -12 -12 -12 -12 -11 -11 -10 -10 -10 -10 -10 -10 -10 -9 -9 -7 -6 -6 -6 -6 -6 -6 -6 -6 -5
-13 -12 -11 -11 -11 -11 -12 -12 -12 -13 -13 -13 -13 -13 -13 -12 -12 -12 -12 -12 -11 -11 -11 -10 -10 -10 -10 -10 -10 -10 -9 -9 -8 -7 -6 -5 -5 -6 -6 -6 -6 -6 -6
-14 -14 -12 -11 -11 -11 -12 -12 -13 -13 -13 -12 -12 -12 -12 -12 -12 -12 -11 -11 -11 -10 -10 -10 -9 -9 -9 -9 -9 -10 -9 -8 -7 -7 -6 -6 -6 -6 -6 -6 -6 -6 -7

GFSGL_850_dewp_108.txt.gz
Dewpoint
1 -0 -4 -5 -7 -9 -6 -2 2 2 -2 -5 -4 -4 -6 -4 -3 -1 1 3 6 8 8 8 9 8 9 10 9 8 9 10 10 9 8 8 9 8 8 7 8 8 8
1 -1 1 1 -8 -13 -13 -13 -13 -13 -5 -11 -12 -14 -15 -12 -13 -10 -6 -5 -2 1 2 4 6 8 8 9 9 9 9 9 9 9 9 9 8 8 7 8 8 9 9
-7 -9 -8 -5 -3 -5 -9 -12 -13 -14 -12 -12 -14 -15 -16 -16 -16 -16 -17 -17 -15 -11 -8 -4 -0 3 5 7 8 8 8 9 8 8 8 9 8 8 7 8 8 8 8
-10 -10 -11 -10 -11 -13 -13 -15 -15 -16 -16 -17 -17 -18 -18 -18 -18 -17 -17 -16 -16 -17 -17 -18 -16 -9 -4 1 3 6 7 8 8 8 7 8 8 8 8 8 8 7 6
-12 -13 -15 -15 -16 -16 -17 -19 -23 -27 -28 -29 -30 -31 -31 -31 -30 -28 -26 -23 -21 -20 -18 -17 -17 -17 -18 -15 -7 -1 2 5 6 7 8 8 8 8 8 8 8 7 6
-14 -15 -15 -16 -18 -23 -26 -27 -27 -27 -26 -25 -25 -25 -25 -25 -26 -27 -27 -28 -30 -30 -28 -27 -24 -20 -18 -17 -17 -16 -5 2 4 5 6 7 7 7 7 8 7 6 5
-14 -15 -16 -21 -24 -25 -24 -23 -22 -22 -21 -21 -21 -21 -21 -22 -22 -23 -23 -24 -23 -26 -27 -28 -28 -27 -26 -21 -19 -17 -15 -10 1 4 4 5 5 7 6 8 8 7 6
-14 -17 -22 -25 -24 -23 -21 -20 -20 -20 -20 -20 -19 -19 -18 -17 -17 -17 -17 -17 -18 -20 -20 -22 -23 -24 -21 -7 -4 -8 -7 -8 -9 -3 2 3 4 5 5 6 6 7 7
-17 -24 -24 -22 -20 -19 -18 -18 -19 -19 -19 -19 -19 -18 -17 -17 -15 -13 -12 -6 -6 -6 -7 -8 -13 -15 -11 -18 -8 -4 -4 -3 -2 -3 -5 0 3 4 5 5 6 5 4
-23 -22 -19 -18 -18 -19 -19 -19 -19 -18 -19 -19 -19 -18 -17 -17 -16 -14 -13 -7 -7 -7 -7 -7 -7 -7 -8 -8 -7 -6 -6 -6 -5 -5 -2 -4 -1 3 4 4 5 5 5
-21 -19 -19 -19 -19 -19 -18 -18 -17 -17 -17 -17 -18 -17 -15 -11 -12 -12 -12 -11 -7 -7 -8 -8 -7 -7 -7 -7 -6 -6 -6 -5 -5 -6 -5 -4 -2 -1 2 4 4 4 5
-18 -19 -19 -18 -18 -18 -18 -18 -17 -16 -17 -16 -16 -16 -15 -13 -11 -9 -12 -11 -9 -7 -7 -8 -7 -7 -7 -7 -7 -7 -7 -6 -6 -7 -7 -4 -3 -3 0 2 4 4 4
-19 -19 -18 -18 -17 -17 -17 -17 -16 -15 -13 -11 -9 -8 -8 -8 -8 -7 -7 -7 -7 -7 -7 -8 -8 -7 -7 -7 -7 -7 -8 -7 -6 -5 -6 -3 -2 -3 -3 1 1 2 3
-18 -18 -18 -17 -17 -17 -16 -16 -15 -11 -9 -8 -8 -8 -8 -8 -8 -8 -7 -7 -7 -7 -7 -8 -8 -7 -7 -7 -8 -8 -7 -8 -7 -6 -5 -4 -2 -2 -1 -0 -0 1 2
-17 -17 -17 -18 -17 -16 -15 -14 -13 -12 -9 -8 -8 -9 -8 -8 -8 -8 -7 -7 -7 -7 -7 -8 -8 -7 -8 -8 -9 -8 -9 -9 -8 -8 -5 -5 -4 -3 -2 -1 -1 -1 0
-17 -16 -17 -17 -15 -14 -13 -13 -11 -11 -12 -12 -10 -9 -9 -9 -9 -8 -8 -8 -7 -7 -8 -8 -7 -7 -8 -9 -9 -10 -9 -9 -10 -9 -7 -5 -4 -4 -2 -2 -2 -2 -1
-17 -17 -17 -16 -14 -12 -10 -9 -10 -14 -13 -12 -10 -10 -9 -9 -9 -9 -9 -8 -8 -8 -8 -8 -8 -8 -8 -9 -10 -10 -9 -10 -10 -7 -7 -6 -5 -4 -4 -3 -3 -2 -2
-17 -17 -16 -15 -13 -10 -10 -9 -10 -10 -10 -11 -12 -10 -10 -10 -9 -9 -9 -9 -9 -8 -8 -9 -8 -9 -9 -10 -10 -10 -9 -10 -9 -8 -7 -6 -5 -5 -4 -4 -4 -3 -2
-17 -16 -15 -13 -10 -10 -10 -10 -10 -10 -10 -10 -10 -10 -10 -10 -10 -9 -9 -9 -9 -9 -9 -9 -9 -10 -10 -9 -10 -10 -9 -10 -9 -8 -7 -7 -6 -5 -5 -5 -4 -4 -4
-17 -16 -14 -12 -10 -10 -10 -10 -10 -10 -10 -10 -11 -11 -11 -11 -11 -11 -10 -10 -10 -10 -10 -10 -10 -10 -10 -10 -10 -10 -10 -10 -10 -9 -8 -7 -6 -6 -6 -5 -5 -5 -5
-17 -17 -14 -11 -11 -10 -11 -11 -11 -11 -11 -11 -11 -11 -11 -11 -11 -11 -11 -11 -11 -11 -11 -11 -11 -11 -11 -11 -10 -10 -10 -10 -10 -9 -8 -8 -7 -6 -6 -5 -5 -6 -5
-17 -15 -13 -12 -11 -11 -11 -11 -11 -11 -11 -11 -12 -12 -12 -12 -12 -12 -11 -11 -11 -12 -12 -12 -12 -11 -11 -11 -10 -10 -10 -10 -10 -9 -9 -8 -7 -6 -6 -6 -6 -6 -6
-15 -14 -13 -12 -12 -11 -11 -11 -12 -12 -12 -12 -12 -12 -12 -12 -13 -13 -13 -13 -12 -12 -12 -12 -11 -11 -11 -10 -10 -10 -10 -10 -10 -10 -9 -8 -7 -7 -6 -6 -6 -6 -7
-15 -14 -15 -14 -13 -11 -11 -11 -12 -12 -12 -12 -12 -12 -13 -13 -13 -12 -12 -12 -12 -12 -11 -11 -11 -11 -10 -10 -10 -10 -10 -10 -9 -9 -8 -8 -7 -6 -6 -6 -6 -6 -7
-15 -15 -15 -15 -13 -12 -11 -12 -12 -13 -12 -12 -12 -12 -12 -11 -12 -12 -11 -11 -11 -11 -11 -10 -10 -10 -10 -9 -9 -9 -10 -10 -10 -9 -8 -8 -7 -6 -6 -6 -6 -6 -7
-16 -15 -15 -14 -13 -12 -11 -12 -12 -12 -12 -12 -12 -11 -11 -11 -11 -11 -11 -10 -10 -10 -10 -10 -9 -9 -9 -9 -9 -9 -9 -9 -9 -9 -8 -7 -7 -6 -6 -7 -7 -7 -7

GFSGL_850_dewp_111.txt.gz
Dewpoint
-0 -0 -2 -5 -10 -12 -12 -11 -7 -3 1 1 -0 -4 -7 -7 -1 -2 -7 -4 -0 1 1 4 4 5 7 8 8 8 9 10 10 9 9 8 9 9 9 8 8 8 8
-0 1 0 0 0 1 -0 -9 -13 -14 -13 -13 -12 -10 -10 -12 -14 -10 -1 -2 -11 -14 -6 -5 -8 -1 3 2 5 8 8 8 8 9 8 9 9 9 9 8 8 8 7
-10 -11 -10 -8 -7 -7 -7 -9 -12 -13 -15 -16 -17 -17 -16 -17 -18 -18 -17 -17 -16 -16 -16 -16 -16 -16 -14 -10 -6 2 5 6 7 8 8 9 8 9 9 8 8 7 7
-11 -12 -13 -14 -15 -16 -16 -17 -20 -24 -28 -29 -30 -31 -31 -32 -31 -30 -31 -31 -30 -26 -22 -20 -19 -17 -16 -15 -16 -16 -12 -7 -0 3 6 7 8 8 8 7 8 8 8
-12 -13 -15 -15 -16 -19 -25 -29 -29 -29 -27 -26 -25 -25 -25 -25 -20 -24 -25 -26 -27 -26 -25 -24 -26 -29 -29 -24 -18 -17 -17 -15 -13 -6 -0 4 6 6 7 8 7 8 8
-12 -14 -15 -16 -22 -26 -26 -24 -23 -22 -22 -22 -23 -22 -23 -19 -15 -22 -22 -23 -23 -22 -22 -24 -26 -26 -22 -26 -15 -9 -13 -14 -12 -2 1 3 3 5 5 6 7 7 7
-13 -14 -15 -21 -24 -22 -20 -18 -17 -18 -20 -21 -21 -21 -21 -20 -20 -20 -19 -19 -19 -17 -15 -17 -19 -16 -16 -12 -10 -11 -14 -8 -7 -3 -1 0 1 2 3 5 5 6 6
-13 -13 -17 -20 -20 -19 -19 -20 -21 -21 -21 -19 -19 -19 -19 -19 -18 -17 -16 -16 -11 -10 -8 -9 -10 -10 -11 -6 -9 -11 -13 -12 -10 -11 -6 -3 -1 0 2 3 4 4 5
-13 -17 -22 -22 -20 -22 -22 -21 -19 -18 -18 -17 -15 -14 -13 -13 -10 -11 -9 -7 -7 -7 -7 -7 -7 -7 -7 -12 -12 -12 -11 -11 -13 -14 -13 -7 -3 -3 -2 1 3 3 4
-15 -22 -20 -19 -20 -20 -18 -17 -17 -16 -15 -15 -15 -12 -11 -10 -8 -6 -6 -6 -7 -7 -8 -8 -8 -7 -6 -7 -7 -6 -6 -8 -12 -16 -16 -21 -20 -19 -16 -7 0 1 3
-23 -20 -21 -22 -20 -19 -19 -17 -16 -15 -14 -13 -12 -11 -10 -9 -8 -7 -7 -7 -6 -7 -8 -8 -8 -8 -6 -7 -7 -7 -7 -7 -7 -7 -9 -18 -17 -10 -15 -8 -8 -0 1
-21 -23 -22 -20 -20 -19 -16 -15 -14 -13 -13 -12 -11 -12 -10 -9 -8 -8 -7 -7 -7 -7 -7 -8 -8 -8 -8 -6 -6 -6 -7 -7 -8 -8 -7 -6 -5 -6 -6 -3 -5 -6 -2
-23 -22 -20 -19 -19 -18 -16 -16 -14 -13 -11 -10 -10 -9 -10 -11 -12 -8 -7 -7 -7 -7 -8 -8 -8 -8 -9 -10 -9 -8 -8 -9 -8 -9 -9 -9 -7 -6 -5 -6 -4 -2 -1
-21 -20 -19 -19 -19 -17 -16 -15 -13 -13 -11 -10 -9 -9 -9 -10 -10 -9 -8 -9 -8 -8 -8 -7 -7 -7 -8 -7 -7 -9 -10 -9 -8 -8 -9 -8 -9 -7 -7 -6 -5 -3 -2
-20 -19 -18 -17 -17 -15 -15 -13 -12 -11 -10 -9 -9 -9 -9 -9 -10 -9 -8 -8 -8 -8 -7 -8 -8 -9 -9 -8 -8 -10 -10 -10 -9 -10 -10 -10 -9 -9 -6 -5 -5 -4 -3
-18 -18 -17 -17 -16 -14 -12 -12 -11 -10 -10 -10 -9 -9 -9 -9 -9 -9 -9 -9 -9 -8 -9 -9 -10 -9 -9 -8 -10 -10 -10 -9 -9 -9 -10 -9 -8 -6 -6 -5 -5 -4 -4
-17 -17 -16 -16 -14 -13 -11 -9 -11 -11 -11 -11 -9 -9 -9 -9 -10 -10 -9 -9 -9 -8 -9 -9 -8 -8 -8 -9 -10 -10 -10 -10 -10 -10 -10 -9 -8 -7 -6 -6 -5 -5 -4
-17 -17 -17 -17 -15 -12 -10 -9 -9 -10 -10 -10 -10 -10 -10 -9 -10 -10 -10 -9 -9 -9 -9 -9 -9 -9 -9 -10 -10 -10 -10 -10 -10 -10 -10 -9 -9 -8 -7 -6 -6 -5 -5
-17 -17 -17 -16 -14 -10 -9 -9 -10 -10 -10 -10 -11 -11 -11 -11 -10 -10 -10 -11 -11 -10 -10 -10 -10 -10 -10 -11 -10 -10 -10 -10 -10 -10 -10 -10 -9 -8 -7 -6 -6 -6 -5
-17 -17 -18 -16 -12 -10 -10 -10 -10 -10 -10 -10 -11 -11 -12 -12 -12 -12 -12 -12 -11 -11 -11 -11 -11 -11 -11 -11 -11 -11 -11 -11 -11 -11 -10 -10 -9 -8 -8 -7 -6 -6 -6
-17 -17 -16 -12 -12 -11 -10 -10 -10 -10 -10 -11 -11 -11 -11 -11 -12 -12 -12 -12 -12 -12 -11 -12 -12 -12 -12 -11 -11 -11 -11 -10 -10 -10 -11 -10 -9 -9 -8 -7 -6 -6 -6
-17 -17 -15 -14 -13 -12 -11 -10 -10 -11 -11 -11 -11 -12 -11 -12 -12 -12 -12 -12 -12 -12 -12 -12 -12 -12 -12 -12 -12 -12 -12 -11 -10 -10 -10 -10 -10 -9 -8 -7 -7 -6 -6
-17 -16 -15 -14 -14 -13 -11 -11 -11 -11 -11 -12 -12 -12 -12 -12 -12 -12 -12 -12 -11 -11 -11 -11 -11 -11 -11 -11 -11 -11 -11 -11 -11 -10 -10 -9 -9 -8 -8 -7 -7 -7 -6
-17 -16 -16 -16 -15 -14 -11 -11 -12 -12 -12 -12 -12 -12 -11 -11 -11 -11 -11 -11 -10 -10 -10 -10 -10 -10 -10 -10 -10 -10 -10 -10 -10 -10 -10 -10 -9 -8 -8 -7 -7 -7 -7
-16 -16 -16 -16 -15 -14 -12 -11 -12 -12 -12 -12 -12 -11 -11 -10 -10 -10 -10 -10 -9 -9 -9 -9 -9 -9 -9 -9 -9 -9 -9 -10 -10 -10 -10 -9 -9 -8 -7 -7 -7 -7 -7
-16 -16 -16 -15 -15 -13 -12 -11 -11 -12 -12 -12 -11 -11 -10 -10 -10 -10 -9 -9 -9 -9 -9 -9 -9 -9 -9 -8 -8 -9 -10 -10 -10 -10 -9 -9 -8 -8 -7 -7 -7 -7 -7

GFSGL_850_dewp_114.txt.gz
Dewpoint
0 0 -0 0 -0 -2 -6 -11 -13 -12 -11 -9 -4 -0 -1 -1 -2 -3 -4 0 2 -2 -7 -10 -4 -6 -1 -2 3 4 5 6 5 7 8 9 10 10 10 10 9 9 8
-8 -10 -9 -8 -7 -7 -10 -10 -12 -11 -13 -14 -16 -16 -16 -15 -16 -16 -16 -15 -14 -13 -4 -1 -5 -13 -12 -4 -4 -12 0 3 2 4 7 7 7 9 9 9 9 9 9
-9 -10 -12 -13 -15 -15 -16 -18 -21 -24 -26 -29 -29 -29 -30 -30 -29 -29 -27 -29 -30 -27 -24 -18 -15 -12 -14 -16 -16 -12 -14 -10 -10 -3 2 5 5 7 8 9 9 9 9
-10 -12 -14 -15 -16 -18 -24 -29 -29 -28 -27 -26 -25 -24 -24 -23 -21 -22 -22 -25 -25 -25 -23 -18 -17 -13 -17 -22 -22 -19 -17 -16 -15 -14 -11 -7 -1 3 6 6 7 8 7
-10 -11 -13 -15 -18 -25 -27 -25 -23 -22 -23 -23 -24 -25 -24 -23 -17 -19 -24 -24 -24 -24 -22 -19 -18 -20 -20 -17 -12 -6 -6 -12 -14 -14 -13 -9 -4 1 3 4 5 6 7
-10 -12 -14 -15 -23 -25 -23 -22 -22 -23 -23 -23 -23 -22 -22 -22 -21 -19 -21 -23 -23 -22 -21 -19 -18 -18 -14 -11 -10 -11 -8 -6 -4 -4 -6 -3 -3 -1 1 2 3 4 5
-9 -12 -14 -19 -27 -24 -22 -23 -23 -23 -22 -22 -21 -21 -21 -20 -20 -19 -19 -20 -19 -18 -14 -13 -11 -10 -8 -9 -8 -10 -14 -16 -12 -6 -5 -5 -5 -5 -2 -1 1 2 2
-10 -13 -14 -23 -24 -22 -25 -24 -22 -21 -20 -20 -20 -20 -19 -18 -18 -17 -15 -16 -15 -14 -12 -9 -8 -8 -8 -8 -8 -11 -13 -14 -12 -13 -12 -12 -12 -13 -12 -5 -2 -0 1
-11 -13 -20 -26 -22 -25 -23 -21 -21 -20 -20 -19 -19 -18 -16 -15 -11 -8 -7 -9 -9 -9 -8 -7 -8 -8 -7 -7 -7 -9 -9 -12 -13 -12 -12 -12 -15 -18 -17 -15 -16 -8 -3
-12 -16 -25 -21 -23 -22 -21 -21 -20 -19 -18 -17 -16 -13 -11 -10 -9 -8 -6 -6 -7 -7 -7 -8 -10 -8 -7 -6 -7 -7 -7 -8 -8 -8 -14 -17 -16 -15 -13 -14 -9 -5 -4
-14 -23 -22 -24 -22 -20 -21 -20 -19 -18 -16 -14 -13 -11 -11 -10 -10 -8 -7 -6 -7 -7 -7 -7 -9 -7 -7 -7 -7 -7 -7 -7 -7 -9 -10 -10 -13 -11 -10 -5 -4 -6 -4
-21 -23 -23 -22 -20 -21 -21 -21 -19 -16 -14 -13 -13 -13 -13 -11 -11 -12 -9 -7 -7 -7 -7 -7 -8 -8 -7 -7 -7 -8 -7 -6 -7 -10 -9 -9 -9 -9 -8 -10 -8 -5 -6
-23 -23 -22 -20 -21 -21 -20 -20 -18 -15 -13 -12 -11 -11 -13 -13 -13 -12 -12 -8 -8 -8 -8 -8 -7 -7 -7 -7 -9 -8 -7 -7 -10 -10 -9 -10 -10 -10 -10 -10 -12 -12 -9
-23 -23 -20 -21 -20 -20 -20 -19 -16 -14 -12 -11 -11 -10 -11 -12 -12 -11 -10 -9 -9 -9 -9 -9 -9 -9 -8 -10 -10 -11 -9 -10 -10 -10 -10 -10 -10 -10 -10 -9 -7 -6 -6
-24 -21 -20 -19 -19 -19 -19 -17 -15 -12 -10 -9 -8 -9 -9 -9 -10 -9 -8 -9 -9 -9 -8 -8 -9 -10 -10 -11 -10 -9 -10 -11 -11 -11 -10 -10 -10 -10 -11 -10 -8 -7 -6
-21 -19 -19 -19 -19 -20 -18 -17 -14 -11 -9 -8 -9 -9 -9 -9 -9 -9 -9 -9 -9 -8 -9 -9 -9 -9 -10 -9 -8 -9 -9 -9 -11 -11 -10 -10 -10 -10 -11 -10 -8 -7 -7
-20 -19 -19 -19 -19 -18 -17 -15 -13 -13 -11 -11 -11 -9 -9 -9 -9 -9 -10 -10 -10 -9 -10 -9 -8 -9 -9 -9 -9 -9 -9 -11 -11 -11 -11 -10 -10 -11 -10 -10 -9 -8 -7
-19 -18 -19 -19 -19 -18 -16 -13 -11 -10 -11 -12 -11 -11 -10 -9 -10 -10 -10 -10 -11 -12 -11 -11 -11 -12 -11 -11 -11 -11 -11 -11 -11 -11 -11 -11 -11 -11 -10 -10 -8 -8 -7
-18 -18 -18 -19 -18 -17 -13 -11 -11 -11 -10 -11 -11 -11 -11 -11 -10 -10 -11 -12 -12 -12 -11 -11 -12 -12 -12 -12 -12 -12 -12 -12 -11 -11 -11 -11 -11 -11 -10 -9 -9 -8 -7
-18 -18 -18 -19 -18 -15 -13 -13 -12 -11 -11 -11 -11 -12 -11 -11 -10 -12 -13 -12 -12 -12 -12 -12 -11 -11 -11 -12 -12 -12 -12 -12 -12 -12 -11 -10 -10 -11 -10 -9 -9 -8 -7
-18 -18 -18 -19 -17 -14 -13 -12 -11 -11 -11 -11 -11 -12 -11 -11 -11 -12 -12 -12 -12 -12 -12 -12 -12 -12 -12 -12 -12 -12 -12 -12 -12 -11 -11 -10 -10 -10 -10 -10 -9 -8 -7
-18 -18 -18 -18 -16 -15 -14 -12 -11 -11 -11 -11 -12 -12 -11 -11 -12 -11 -11 -11 -11 -10 -10 -11 -11 -11 -11 -11 -11 -11 -11 -11 -11 -11 -11 -11 -11 -10 -10 -9 -8 -8 -7
-18 -18 -18 -18 -16 -16 -15 -14 -12 -11 -11 -11 -12 -12 -12 -11 -11 -11 -10 -10 -10 -10 -10 -10 -10 -10 -10 -10 -10 -10 -11 -11 -11 -11 -11 -11 -11 -11 -10 -9 -8 -8 -7
-17 -17 -18 -17 -16 -16 -16 -14 -13 -11 -11 -12 -12 -12 -11 -11 -11 -10 -10 -10 -9 -9 -9 -9 -9 -9 -9 -9 -9 -9 -10 -10 -10 -10 -11 -11 -11 -11 -10 -9 -8 -7 -7
-17 -18 -17 -16 -16 -16 -15 -14 -12 -11 -11 -12 -12 -11 -11 -11 -10 -10 -10 -9 -9 -9 -9 -8 -8 -8 -8 -8 -9 -9 -9 -9 -10 -10 -11 -11 -10 -10 -9 -8 -8 -7 -7
-18 -18 -17 -17 -16 -16 -15 -13 -12 -11 -12 -12 -11 -11 -11 -10 -10 -10 -9 -9 -9 -8 -8 -8 -8 -8 -8 -8 -8 -8 -9 -9 -9 -9 -10 -10 -10 -9 -8 -8 -7 -7 -7

GFSGL_850_dewp_117.txt.gz
Dewpoint
-5 -7 -8 -8 -9 -11 -13 -14 -13 -13 -13 -15 -16 -15 -15 -12 -7 -7 -6 -4 -5 -7 -5 -1 -0 -1 -3 -7 -8 -3 -2 -4 -2 2 4 4 6 7 8 9 9 9 9
-9 -10 -12 -13 -14 -16 -17 -20 -24 -27 -28 -28 -29 -29 -28 -28 -27 -26 -23 -22 -23 -25 -24 -21 -20 -15 -6 -2 0 -2 -14 -7 -4 -3 -1 -4 -3 2 6 7 8 9 9
-8 -10 -11 -13 -15 -17 -24 -30 -30 -27 -27 -25 -24 -24 -25 -24 -24 -24 -24 -24 -25 -24 -24 -23 -21 -21 -22 -19 -18 -11 -5 -11 -15 -14 -11 -12 -11 -8 -0 5 6 7 8
-7 -7 -9 -12 -15 -20 -31 -30 -26 -25 -26 -26 -25 -24 -24 -23 -20 -22 -23 -25 -24 -24 -23 -20 -19 -17 -17 -18 -15 -12 -8 -10 -12 -13 -14 -15 -15 -12 -6 -2 4 6 6
-7 -7 -9 -13 -15 -25 -28 -24 -24 -28 -28 -27 -26 -25 -25 -24 -23 -22 -20 -20 -21 -21 -20 -19 -18 -16 -15 -12 -9 -9 -10 -10 -11 -11 -9 -11 -12 -11 -6 -2 0 1 3
-8 -8 -10 -13 -17 -27 -23 -23 -25 -23 -21 -21 -20 -20 -19 -19 -18 -18 -17 -19 -20 -20 -19 -15 -11 -9 -8 -8 -8 -9 -10 -12 -14 -9 -8 -9 -10 -11 -12 -10 -8 -3 -1
-7 -8 -10 -13 -22 -24 -22 -24 -22 -21 -20 -20 -20 -19 -19 -18 -18 -18 -18 -16 -16 -16 -14 -13 -11 -9 -8 -7 -7 -8 -9 -12 -12 -11 -11 -13 -13 -15 -12 -13 -14 -12 -10
-7 -8 -11 -15 -25 -22 -24 -22 -21 -20 -20 -19 -19 -18 -18 -17 -16 -15 -12 -12 -13 -13 -13 -12 -10 -9 -8 -7 -7 -8 -9 -11 -9 -9 -10 -11 -11 -14 -14 -12 -12 -14 -14
-6 -8 -12 -21 -23 -23 -23 -21 -21 -20 -20 -18 -17 -17 -16 -15 -13 -11 -7 -8 -8 -9 -9 -9 -10 -11 -11 -8 -6 -6 -8 -9 -9 -9 -8 -10 -11 -12 -13 -9 -12 -8 -6
-6 -10 -14 -24 -23 -24 -21 -21 -21 -20 -19 -18 -17 -16 -14 -13 -12 -10 -7 -7 -7 -8 -9 -8 -8 -9 -10 -6 -6 -6 -7 -8 -9 -7 -8 -12 -14 -14 -13 -10 -8 -6 -5
-7 -12 -21 -23 -24 -21 -22 -22 -22 -21 -20 -18 -16 -15 -14 -13 -13 -12 -11 -8 -8 -7 -7 -7 -7 -8 -7 -7 -7 -6 -6 -8 -7 -6 -7 -11 -14 -14 -14 -12 -10 -9 -8
-11 -16 -23 -24 -22 -21 -21 -21 -20 -20 -19 -17 -15 -14 -13 -13 -12 -12 -12 -8 -8 -8 -8 -8 -9 -9 -7 -7 -7 -6 -6 -7 -6 -7 -8 -12 -12 -12 -12 -12 -12 -12 -12
-13 -23 -23 -23 -20 -20 -19 -19 -20 -19 -18 -16 -13 -13 -12 -12 -12 -12 -11 -10 -8 -8 -9 -9 -8 -8 -8 -8 -10 -10 -8 -8 -9 -8 -10 -10 -11 -11 -11 -11 -11 -13 -12
-20 -22 -23 -21 -20 -19 -19 -20 -19 -18 -17 -14 -12 -11 -11 -11 -10 -10 -9 -9 -10 -10 -10 -10 -9 -8 -9 -11 -11 -12 -11 -10 -8 -8 -9 -11 -11 -11 -11 -10 -10 -12 -11
-23 -23 -22 -20 -19 -19 -20 -21 -20 -17 -14 -10 -9 -8 -9 -9 -9 -8 -9 -9 -9 -9 -9 -9 -9 -9 -10 -11 -11 -11 -10 -9 -8 -9 -10 -11 -11 -11 -11 -10 -11 -11 -9
-23 -23 -21 -19 -19 -19 -20 -21 -18 -17 -15 -13 -10 -9 -9 -9 -9 -9 -9 -9 -9 -9 -9 -9 -11 -10 -9 -9 -8 -9 -9 -9 -9 -10 -11 -10 -11 -11 -10 -11 -11 -11 -11
-23 -22 -20 -19 -19 -20 -20 -21 -22 -19 -16 -15 -12 -11 -9 -9 -9 -9 -9 -10 -10 -10 -12 -13 -12 -11 -11 -11 -12 -12 -12 -12 -12 -12 -12 -12 -12 -11 -11 -12 -11 -11 -10
-23 -21 -19 -19 -19 -20 -20 -19 -18 -17 -16 -15 -13 -11 -10 -10 -10 -10 -10 -10 -12 -13 -13 -13 -13 -12 -12 -12 -12 -11 -12 -13 -13 -13 -13 -12 -11 -12 -12 -11 -11 -11 -10
-21 -20 -19 -19 -19 -20 -20 -18 -16 -16 -15 -13 -12 -12 -12 -12 -12 -11 -11 -12 -12 -12 -12 -12 -12 -12 -12 -12 -12 -12 -12 -12 -12 -11 -11 -12 -13 -12 -11 -11 -11 -10 -9
-20 -20 -19 -19 -19 -18 -18 -17 -17 -16 -15 -12 -11 -11 -12 -11 -11 -12 -12 -12 -11 -11 -11 -11 -11 -11 -11 -11 -11 -11 -11 -12 -12 -12 -12 -12 -12 -11 -11 -10 -10 -10 -10
-20 -19 -18 -19 -18 -17 -17 -17 -16 -16 -14 -12 -12 -12 -11 -11 -11 -12 -11 -11 -11 -10 -10 -10 -10 -10 -10 -10 -10 -11 -11 -11 -11 -11 -11 -11 -11 -11 -11 -11 -10 -10 -10
-19 -19 -18 -18 -18 -17 -16 -17 -16 -15 -14 -12 -12 -12 -12 -12 -11 -11 -11 -11 -10 -10 -9 -9 -9 -9 -9 -10 -10 -10 -10 -11 -11 -11 -11 -11 -11 -11 -11 -11 -11 -11 -10
-19 -18 -18 -18 -18 -17 -16 -16 -16 -16 -13 -11 -12 -12 -12 -11 -11 -11 -10 -10 -10 -9 -9 -9 -9 -9 -9 -9 -9 -9 -9 -10 -10 -10 -10 -11 -11 -11 -11 -11 -11 -10 -9
-19 -18 -18 -18 -17 -17 -17 -16 -16 -15 -12 -11 -12 -12 -11 -11 -11 -10 -10 -10 -9 -9 -9 -9 -8 -8 -8 -8 -8 -8 -8 -9 -9 -9 -10 -10 -11 -11 -11 -10 -10 -9 -8
-18 -18 -18 -18 -17 -17 -17 -16 -15 -14 -12 -11 -12 -12 -11 -11 -10 -10 -10 -10 -9 -9 -9 -8 -8 -8 -8 -8 -8 -8 -8 -8 -9 -10 -10 -10 -10 -10 -10 -10 -9 -8 -8
-18 -18 -18 -17 -17 -17 -16 -16 -15 -13 -12 -12 -12 -11 -11 -11 -10 -10 -10 -10 -9 -9 -9 -8 -8 -8 -8 -7 -7 -7 -7 -7 -8 -9 -9 -9 -10 -10 -9 -9 -8 -8 -8

GFSGL_850_dewp_120.txt.gz
Dewpoint
-8 -8 -9 -11 -13 -15 -17 -21 -25 -27 -27 -28 -26 -26 -26 -25 -23 -21 -19 -17 -17 -15 -15 -13 -10 -7 -2 -1 -1 -1 -4 -6 -7 -6 -4 -1 2 2 2 4 5 7 8
-8 -8 -9 -11 -13 -16 -20 -27 -27 -25 -23 -25 -27 -27 -27 -26 -26 -25 -25 -23 -25 -26 -25 -25 -25 -23 -21 -20 -19 -17 -11 -4 -1 -1 0 -2 -9 -13 -2 -4 -4 5 6
-7 -8 -8 -10 -13 -15 -23 -30 -26 -23 -23 -24 -22 -24 -25 -26 -26 -26 -25 -25 -25 -26 -24 -21 -20 -18 -17 -18 -17 -18 -18 -13 -11 -11 -10 -9 -13 -19 -19 -14 -12 -7 3
-7 -7 -7 -9 -12 -15 -25 -28 -24 -25 -26 -25 -24 -23 -22 -20 -19 -20 -21 -20 -21 -22 -23 -21 -20 -18 -17 -16 -16 -15 -14 -14 -15 -15 -15 -17 -17 -18 -18 -19 -22 -16 -10
-6 -7 -7 -8 -11 -15 -27 -24 -25 -25 -24 -22 -22 -21 -21 -20 -19 -19 -17 -18 -19 -19 -18 -17 -15 -13 -11 -10 -10 -10 -11 -11 -13 -14 -16 -16 -16 -18 -18 -19 -20 -23 -26
-4 -6 -7 -8 -11 -16 -26 -23 -26 -23 -21 -21 -20 -20 -20 -20 -20 -20 -19 -18 -17 -18 -17 -15 -12 -9 -8 -8 -8 -8 -9 -9 -12 -13 -13 -13 -15 -15 -15 -15 -16 -19 -18
-3 -5 -7 -8 -12 -19 -24 -25 -22 -21 -20 -20 -19 -19 -18 -17 -16 -15 -14 -12 -12 -13 -13 -14 -13 -11 -9 -9 -8 -7 -7 -8 -9 -9 -9 -10 -10 -11 -12 -13 -14 -14 -14
-3 -5 -7 -8 -12 -23 -23 -23 -20 -20 -19 -19 -18 -17 -17 -16 -15 -14 -10 -10 -10 -11 -11 -11 -11 -11 -12 -11 -8 -6 -6 -7 -9 -9 -9 -9 -8 -11 -12 -10 -11 -9 -12
-3 -5 -6 -9 -13 -23 -24 -21 -20 -20 -19 -19 -17 -16 -16 -15 -15 -13 -10 -11 -11 -12 -12 -10 -10 -9 -10 -8 -7 -6 -6 -8 -9 -9 -10 -8 -8 -11 -13 -11 -12 -10 -10
-3 -5 -6 -11 -18 -23 -24 -21 -22 -21 -21 -21 -19 -17 -15 -15 -14 -14 -14 -14 -14 -13 -12 -9 -8 -8 -7 -7 -7 -7 -7 -9 -8 -9 -9 -10 -8 -10 -13 -12 -11 -10 -9
-4 -6 -7 -12 -22 -23 -22 -21 -21 -20 -21 -21 -20 -17 -15 -14 -14 -13 -13 -13 -11 -9 -8 -9 -9 -10 -8 -7 -7 -6 -6 -7 -6 -6 -7 -8 -9 -10 -12 -13 -12 -11 -10
-5 -6 -11 -19 -23 -23 -21 -20 -20 -20 -20 -20 -19 -17 -14 -13 -13 -13 -12 -10 -8 -8 -8 -9 -10 -9 -8 -8 -8 -8 -7 -7 -7 -7 -7 -10 -9 -11 -13 -13 -12 -11 -11
-6 -8 -13 -22 -23 -20 -19 -18 -19 -19 -19 -18 -18 -16 -14 -12 -12 -11 -10 -10 -9 -8 -9 -9 -8 -10 -9 -9 -10 -9 -8 -9 -10 -10 -10 -8 -9 -11 -12 -13 -12 -12 -12
-6 -11 -20 -23 -21 -19 -18 -18 -19 -18 -18 -18 -16 -15 -13 -12 -11 -10 -10 -9 -9 -10 -10 -10 -10 -9 -9 -10 -11 -11 -11 -11 -9 -8 -8 -8 -9 -10 -12 -13 -13 -13 -11
-9 -16 -22 -22 -20 -19 -18 -18 -19 -18 -17 -16 -15 -12 -12 -12 -10 -8 -8 -9 -9 -9 -9 -9 -10 -11 -13 -12 -11 -10 -9 -9 -9 -9 -8 -9 -10 -11 -11 -13 -12 -11 -11
-12 -21 -22 -21 -20 -19 -18 -19 -18 -18 -16 -16 -15 -13 -12 -10 -9 -9 -9 -9 -9 -9 -9 -11 -13 -13 -13 -12 -11 -11 -12 -12 -12 -12 -12 -12 -12 -12 -12 -12 -11 -11 -12
-17 -22 -22 -21 -19 -18 -19 -19 -20 -19 -18 -17 -16 -13 -12 -10 -9 -9 -9 -9 -9 -10 -13 -13 -13 -13 -13 -13 -13 -13 -12 -12 -12 -12 -12 -13 -13 -12 -11 -11 -12 -12 -12
-22 -22 -22 -20 -19 -18 -19 -19 -20 -20 -20 -19 -16 -12 -12 -12 -11 -10 -10 -10 -12 -13 -12 -12 -12 -12 -12 -12 -12 -11 -12 -12 -12 -12 -12 -12 -11 -11 -12 -12 -12 -12 -11
-22 -22 -21 -20 -19 -19 -19 -19 -18 -18 -18 -18 -16 -13 -12 -12 -12 -11 -12 -12 -12 -12 -11 -11 -11 -11 -11 -11 -11 -11 -11 -11 -11 -11 -11 -12 -12 -12 -12 -12 -11 -11 -11
-21 -21 -20 -20 -19 -19 -18 -18 -18 -18 -18 -18 -15 -12 -12 -11 -11 -12 -12 -12 -11 -11 -10 -10 -10 -10 -10 -10 -10 -10 -10 -10 -11 -11 -11 -11 -11 -11 -11 -11 -11 -11 -11
-21 -20 -20 -19 -19 -18 -18 -18 -17 -17 -18 -17 -14 -12 -11 -10 -11 -12 -12 -11 -10 -10 -10 -10 -10 -9 -9 -9 -9 -9 -9 -10 -10 -10 -10 -10 -11 -11 -11 -11 -11 -11 -11
-21 -20 -19 -19 -18 -18 -18 -17 -17 -18 -17 -16 -13 -12 -12 -12 -12 -11 -11 -11 -10 -10 -9 -9 -9 -9 -9 -9 -9 -9 -9 -9 -9 -9 -10 -10 -10 -11 -11 -11 -11 -11 -11
-20 -19 -19 -19 -18 -18 -18 -17 -17 -17 -17 -16 -12 -12 -12 -12 -11 -11 -11 -10 -10 -10 -9 -9 -9 -9 -8 -8 -8 -8 -9 -9 -9 -9 -9 -10 -10 -10 -11 -11 -11 -11 -10
-20 -19 -18 -18 -18 -18 -17 -17 -17 -17 -16 -14 -12 -12 -12 -11 -11 -11 -11 -10 -10 -10 -9 -9 -8 -8 -8 -8 -8 -8 -8 -8 -8 -8 -9 -9 -10 -10 -10 -10 -10 -10 -10
-19 -19 -18 -18 -18 -17 -17 -17 -17 -16 -15 -13 -12 -12 -12 -11 -11 -11 -10 -10 -10 -10 -9 -9 -8 -8 -8 -8 -8 -8 -8 -8 -8 -8 -8 -9 -9 -9 -10 -10 -10 -9 -9
-19 -18 -18 -18 -18 -17 -17 -17 -17 -16 -15 -12 -12 -12 -12 -11 -11 -10 -10 -10 -10 -9 -9 -9 -8 -8 -8 -8 -8 -8 -7 -7 -7 -7 -8 -8 -9 -9 -9 -9 -9 -9 -8

GFSGL_850_dewp_123.txt.gz
Dewpoint
-8 -8 -9 -10 -12 -13 -16 -20 -29 -29 -26 -24 -23 -24 -25 -25 -25 -25 -24 -22 -22 -21 -20 -18 -17 -15 -13 -10 -6 -3 -1 -2 -3 -2 -1 -1 -2 -1 -1 -1 -1 1 1
-7 -7 -7 -8 -10 -12 -15 -21 -29 -26 -24 -25 -26 -24 -23 -23 -22 -21 -22 -25 -25 -24 -22 -20 -18 -18 -18 -19 -19 -20 -20 -17 -12 -10 -11 -13 -11 -7 -3 -2 -2 -7 -6
-7 -7 -7 -7 -8 -10 -14 -21 -28 -24 -26 -26 -26 -25 -23 -23 -23 -23 -21 -18 -19 -22 -23 -23 -21 -19 -18 -17 -17 -16 -15 -14 -12 -12 -14 -18 -21 -21 -23 -22 -20 -19 -21
-5 -6 -6 -7 -7 -9 -13 -22 -26 -25 -26 -23 -22 -22 -21 -21 -20 -19 -19 -19 -20 -20 -20 -19 -18 -17 -17 -15 -15 -14 -13 -13 -13 -14 -15 -18 -19 -20 -21 -22 -27 -26 -25
-3 -4 -6 -7 -7 -8 -12 -22 -24 -26 -23 -21 -20 -19 -19 -19 -19 -19 -18 -16 -16 -16 -16 -16 -14 -11 -10 -9 -7 -9 -9 -11 -12 -13 -13 -14 -16 -17 -17 -17 -19 -21 -24
-2 -3 -5 -6 -7 -8 -12 -23 -24 -24 -22 -21 -21 -20 -19 -18 -18 -18 -18 -15 -15 -15 -14 -14 -13 -11 -10 -9 -9 -8 -8 -8 -9 -10 -11 -10 -11 -10 -11 -12 -14 -16 -18
-2 -3 -4 -5 -6 -8 -12 -23 -24 -23 -22 -21 -21 -19 -18 -17 -16 -14 -11 -12 -12 -12 -12 -12 -13 -12 -12 -13 -11 -9 -6 -6 -6 -7 -9 -9 -10 -9 -9 -12 -14 -12 -13
-2 -2 -3 -5 -6 -8 -13 -23 -24 -22 -22 -22 -21 -19 -18 -16 -15 -14 -12 -13 -12 -12 -13 -14 -13 -12 -11 -10 -8 -10 -8 -7 -6 -7 -9 -9 -10 -9 -7 -10 -12 -12 -13
-2 -2 -3 -5 -6 -8 -14 -24 -25 -22 -22 -21 -21 -19 -18 -16 -15 -14 -14 -14 -14 -14 -13 -13 -11 -10 -10 -8 -7 -8 -7 -7 -8 -8 -8 -7 -9 -9 -8 -8 -11 -13 -12
-2 -2 -3 -5 -7 -10 -19 -24 -23 -22 -21 -21 -21 -19 -18 -16 -15 -14 -14 -14 -14 -14 -13 -12 -11 -11 -9 -7 -7 -7 -8 -8 -7 -8 -8 -7 -8 -9 -8 -7 -11 -11 -11
-2 -3 -4 -6 -7 -12 -23 -24 -21 -21 -20 -21 -21 -20 -19 -16 -14 -13 -13 -13 -12 -11 -10 -10 -10 -11 -8 -7 -7 -8 -8 -8 -7 -8 -8 -8 -8 -8 -10 -9 -11 -12 -11
-2 -3 -4 -6 -9 -17 -23 -22 -21 -20 -20 -20 -20 -19 -18 -15 -13 -12 -12 -10 -8 -8 -9 -9 -10 -8 -8 -8 -8 -8 -8 -8 -9 -9 -9 -10 -10 -10 -10 -10 -11 -12 -13
-2 -4 -5 -7 -12 -22 -23 -21 -20 -19 -20 -20 -20 -19 -18 -16 -13 -12 -11 -10 -9 -8 -8 -10 -8 -8 -8 -9 -11 -9 -9 -10 -11 -11 -11 -11 -10 -9 -8 -10 -11 -12 -13
-3 -4 -6 -9 -17 -23 -22 -20 -19 -19 -20 -20 -20 -18 -17 -17 -14 -12 -9 -9 -9 -9 -10 -9 -9 -10 -11 -12 -14 -14 -12 -10 -9 -9 -9 -10 -9 -9 -9 -10 -11 -13 -13
-4 -5 -7 -12 -22 -22 -21 -19 -19 -19 -20 -20 -19 -18 -17 -17 -13 -9 -8 -8 -8 -9 -8 -9 -11 -12 -14 -14 -14 -13 -13 -12 -12 -11 -10 -10 -11 -11 -11 -12 -12 -13 -12
-5 -6 -9 -17 -22 -21 -20 -18 -19 -19 -19 -18 -17 -17 -18 -15 -11 -9 -8 -8 -9 -9 -9 -11 -13 -12 -12 -13 -13 -13 -13 -13 -13 -13 -13 -12 -13 -13 -13 -13 -13 -12 -11
-5 -7 -13 -21 -22 -20 -19 -18 -18 -18 -19 -17 -18 -18 -17 -13 -10 -9 -9 -9 -9 -9 -12 -12 -12 -12 -12 -11 -11 -11 -11 -12 -12 -11 -11 -12 -12 -12 -12 -12 -12 -12 -12
-5 -9 -17 -21 -21 -19 -18 -18 -18 -19 -19 -18 -18 -18 -16 -12 -11 -10 -9 -9 -11 -12 -12 -12 -11 -11 -11 -11 -11 -10 -10 -10 -10 -11 -11 -11 -11 -11 -12 -12 -12 -12 -12
-5 -11 -20 -21 -21 -19 -18 -18 -18 -18 -18 -19 -19 -19 -16 -12 -12 -11 -11 -11 -12 -12 -11 -11 -11 -10 -10 -10 -10 -10 -10 -10 -10 -10 -10 -10 -11 -11 -11 -12 -12 -12 -12
-9 -17 -20 -20 -20 -18 -18 -18 -18 -18 -18 -18 -19 -19 -16 -12 -12 -12 -12 -12 -11 -11 -11 -10 -10 -10 -9 -9 -9 -9 -9 -9 -9 -10 -10 -10 -10 -10 -11 -11 -11 -11 -11
-13 -20 -20 -20 -19 -18 -18 -18 -18 -18 -18 -18 -19 -18 -13 -11 -12 -12 -12 -11 -11 -10 -10 -10 -9 -9 -9 -9 -9 -9 -9 -9 -9 -9 -9 -9 -10 -10 -10 -11 -11 -11 -11
-19 -21 -19 -20 -19 -18 -18 -18 -18 -18 -17 -18 -18 -18 -13 -12 -12 -12 -11 -11 -11 -10 -10 -9 -9 -9 -9 -9 -9 -9 -9 -9 -9 -9 -9 -9 -9 -10 -10 -11 -11 -11 -11
-20 -21 -19 -19 -18 -18 -17 -18 -18 -17 -17 -18 -18 -17 -12 -12 -12 -11 -11 -11 -11 -10 -10 -9 -9 -9 -8 -8 -8 -8 -8 -8 -8 -8 -9 -9 -9 -9 -10 -10 -10 -11 -11
-20 -20 -19 -19 -18 -18 -17 -18 -17 -17 -18 -18 -18 -16 -12 -12 -12 -11 -11 -11 -10 -10 -10 -9 -9 -9 -8 -8 -8 -8 -8 -8 -8 -8 -8 -8 -9 -9 -9 -10 -10 -10 -10
-18 -20 -19 -19 -19 -18 -17 -17 -17 -17 -17 -18 -17 -15 -12 -12 -12 -11 -11 -11 -10 -10 -10 -9 -9 -8 -8 -8 -8 -8 -8 -8 -8 -8 -8 -8 -8 -8 -9 -9 -9 -9 -9
-16 -20 -18 -18 -18 -18 -17 -17 -17 -17 -17 -18 -17 -14 -12 -12 -12 -11 -11 -10 -10 -10 -10 -9 -9 -8 -8 -8 -8 -8 -7 -7 -7 -7 -8 -8 -8 -9 -9 -9 -9 -9 -9